     2.10           OBSERVATION DATA    G (GPS)             RINEX VERSION / TYPE
teqc 2006Apr5 Bo Madsen 20060516 08:17:56UTC                PGM / RUN BY / DATE
Solaris 5.9|UltraSparc IIi|cc -xarch=v9 SC5.5|=+-|*Sparc    COMMENT
BIT 2 OF LLI FLAGS DATA COLLECTED UNDER A/S CONDITION       COMMENT
SKAG                                                        MARKER NAME
Base                                                        MARKER NUMBER
HAUERBACH GFY                                               OBSERVER / AGENCY
00013705 TRIMBLE 4000SSI NP 7.29 / SP 3.07                  REC # / TYPE / VERS
06159 TRM22020.00+GP                                        ANT # / TYPE
  3356838.2011   626716.0243  5368971.0176                  APPROX POSITION XYZ
        0.0000        0.0000        0.0000                  ANTENNA: DELTA H/E/N
     1     1                                                WAVELENGTH FACT L1/2
     6    L1    L2    C1    P2    P1    D1                  # / TYPES OF OBSERV
SNR is mapped to RINEX snr flag value [1-9]                 COMMENT
L1: 3 -> 1; 8 -> 5; 40 -> 9                                 COMMENT
L2: 1 -> 1; 5 -> 5; 60 -> 9                                 COMMENT
  2006     5     8     0     0    0.0000000     GPS         TIME OF FIRST OBS
                                                            END OF HEADER
 06  5  8  0  0  0.0000000  0  9G30G 9G 4G25G 6G 1G 5G 2G14
  -5740139.07348  -4390314.83347  20043390.0144   20043393.1624
     -1289.3784
  40290641.63045  31500158.01245  24408265.1604   24408272.2234
     -6096.3904
   6271300.20946   4926880.44846  22982339.8244   22982343.7194
     -3142.9184
  -1129161.28545   -806614.36845  23879820.1844   23879823.2234
      1015.9674
  -4605794.37646  -3488102.03946  22393874.1154   22393879.2244
      1054.8794
    225530.56846   1633848.40446  22791996.7644   22792000.6264
     -1662.1284
   5904103.79048   4709584.58847  20614280.8164   20614284.5514
     -3663.1944
  -3008122.76047  -2278509.03346  22344931.5164   22344933.0134
      -677.8694
  11760292.09846   9253849.67846  22834261.8464   22834265.7874
     -4408.7164
 06  5  8  0  0 15.0000000  0  9G30G 9G 4G25G 6G 1G 5G 2G14
  -5720736.92248  -4375196.26847  20047082.1214   20047085.0414
     -1297.5954
  40382097.74345  31571422.51545  24425668.6724   24425675.0014
     -6097.7854
   6318518.86946   4963674.18146  22991325.2344   22991329.5164
     -3152.9064
  -1144371.90545   -818466.79545  23876925.6954   23876930.2124
      1012.1234
  -4621581.99546  -3500404.07346  22390869.8134   22390874.3624
      1050.1404
    250539.38946   1653335.79846  22796755.7564   22796760.3614
     -1672.3914
   5959104.51748   4752442.30247  20624747.1204   20624750.7784
     -3670.2634
  -2997880.61947  -2270528.12746  22346880.5234   22346881.7364
      -687.7734
  11826480.09146   9305424.73546  22846857.0194   22846860.7544
     -4416.3674
 06  5  8  0  0 30.0000000  0  9G30G 9G 4G25G 6G 1G 5G 2G14
  -5701211.80048  -4359981.88347  20050797.6254   20050800.6914
     -1305.7344
  40473574.28145  31642702.89745  24443076.0664   24443080.0214
     -6099.0514
   6365886.99946   5000584.41146  23000339.0834   23000342.7514
     -3162.8104
  -1159525.00045   -830274.38445  23874042.1624   23874047.1514
      1008.3364
  -4637298.51246  -3512650.69546  22387879.0394   22387884.0504
      1045.4354
    275701.81346   1672942.88746  22801543.9664   22801548.8404
     -1682.5724
   6014210.70648   4795382.19147  20635233.4874   20635237.2814
     -3677.2144
  -2987490.05347  -2262431.57346  22348857.7694   22348858.9584
      -697.6094
  11892782.15846   9357088.65846  22859473.8994   22859476.9254
     -4423.8794
 06  5  8  0  0 45.0000000  0  9G30G 9G 4G25G 6G 1G 5G 2G14
  -5681565.53348  -4344673.09747  20054536.1824   20054539.6234
     -1313.7574
  40565068.97645  31713997.44745  24460486.9384   24460491.9604
     -6100.2334
   6413402.90246   5037609.76746  23009381.0674   23009385.3914
     -3172.5974
  -1174622.09845   -842038.32945  23871169.2904   23871173.7054
      1004.6404
  -4652945.35646  -3524843.01346  22384901.5444   22384906.8004
      1040.8044
    301016.21046   1692668.38446  22806361.1074   22806365.2344
     -1692.6544
   6069420.56248   4838402.84847  20645739.5864   20645743.3804
     -3684.0664
  -2976952.45047  -2254220.43646  22350862.9914   22350864.2704
      -707.3754
  11959196.13546   9408839.79846  22872112.0664   22872114.7194
     -4431.2834
 06  5  8  0  1  0.0000000  0  9G30G 9G 4G25G 6G 1G 5G 2G14
  -5661797.26948  -4329269.25247  20058297.9524   20058301.7044
     -1321.8964
  40656582.75445  31785306.87345  24477901.4864   24477906.5804
     -6101.4814
   6461067.11546   5074750.73446  23018451.2554   23018455.3194
     -3182.4924
  -1189662.20745   -853757.86745  23868307.2204   23868311.0034
      1000.8134
  -4668521.49646  -3536980.25646  22381937.4964   22381941.8424
      1036.1074
    326483.37446   1712512.94046  22811207.3444   22811211.5154
     -1702.8444
   6124734.66748   4881504.75047  20656265.5174   20656269.2544
     -3691.0204
  -2966266.91247  -2245894.02446  22352896.3674   22352897.9194
      -717.2434
  12025722.59646   9460678.58546  22884771.6324   22884775.1734
     -4438.7804
 06  5  8  0  1 15.0000000  0  9G30G 9G 4G25G 6G 1G 5G 2G14
  -5641906.73548  -4313770.12847  20062082.9814   20062086.4374
     -1330.0694
  40748115.08845  31856630.77845  24495319.5774   24495324.9604
     -6102.7474
   6508879.50646   5112007.12746  23027549.6424   23027553.1984
     -3192.3724
  -1204644.81846   -865432.61445  23865456.1034   23865460.0784
       996.9494
  -4684026.68846  -3549062.21546  22378986.9434   22378991.0154
      1031.3724
    352103.48246   1732476.65346  22816082.7004   22816087.4364
     -1713.0704
   6180153.05448   4924687.90647  20666811.2914   20666814.9684
     -3698.0114
  -2955433.06647  -2237452.04946  22354957.9694   22354959.5724
      -727.1694
  12092361.29446   9512604.84046  22897452.5734   22897455.5814
     -4446.2864
 06  5  8  0  1 30.0000000  0  9G30G 9G 4G25G 6G 1G 5G 2G14
  -5621893.84148  -4298175.66747  20065891.2984   20065894.4384
     -1338.3544
  40839665.89445  31927969.05645  24512741.1434   24512745.3924
     -6104.0794
   6556839.98346   5149378.94146  23036676.1964   23036680.3914
     -3202.3634
  -1219569.69646   -877062.39146  23862616.0094   23862619.2934
       993.0014
  -4699460.71246  -3561088.71646  22376049.9374   22376053.6584
      1026.4804
    377876.58646   1752559.59346  22820987.1644   22820992.0074
     -1723.3884
   6235675.58348   4967952.20747  20677376.8874   20677380.4794
     -3705.0494
  -2944450.41647  -2228894.13946  22357047.9034   22357049.4474
      -737.2024
  12159112.00046   9564618.36346  22910154.8284   22910158.6524
     -4453.8404
 06  5  8  0  1 45.0000000  0  9G30G 9G 4G25G 6G 1G 5G 2G14
  -5601758.27048  -4282485.61447  20069722.9654   20069726.2494
     -1346.4164
  40931235.26245  31999321.80245  24530166.2424   24530170.7104
     -6105.1714
   6604948.66246   5186866.21346  23045830.9514   23045835.2624
     -3212.1294
  -1234436.31146   -888646.74846  23859786.9854   23859790.5364
       989.2074
  -4714822.94846  -3573059.28446  22373126.5904   22373131.0184
      1021.8234
    403802.96946   1772761.97846  22825920.7974   22825925.2374
     -1733.4874
   6291302.37248   5011297.75747  20687962.3254   20687965.8474
     -3711.8814
  -2933318.97047  -2220220.27446  22359166.1424   22359167.4174
      -747.0134
  12225974.50546   9616719.00946  22922878.3664   22922881.0214
     -4461.1814
 06  5  8  0  2  0.0000000  0  9G30G 9G 4G25G 6G 1G 5G 2G14
  -5581500.02448  -4266699.95847  20073577.9744   20073580.9124
     -1354.6064
  41022822.74245  32070688.66945  24547594.7754   24547600.0614
     -6106.3994
   6653205.24846   5224468.73146  23055013.8784   23055017.4474
     -3222.0084
  -1249244.43746   -900185.54846  23856969.0924   23856973.5394
       985.2974
  -4730113.31346  -3584973.82946  22370216.9104   22370222.0264
      1017.0174
    429882.59546   1793083.76546  22830883.5874   22830887.8634
     -1743.7044
   6347033.32048   5054724.46747  20698567.5854   20698571.4054
     -3718.8274
  -2922038.46047  -2211430.25646  22361312.7384   22361313.9104
      -756.9834
  12292948.57846   9668906.58746  22935623.1124   22935626.6874
     -4468.6054
 06  5  8  0  2 15.0000000  0  9G30G 9G 4G25G 6G 1G 5G 2G14
  -5561119.98848  -4250819.41147  20077456.1644   20077459.0934
     -1362.6544
  41114427.30745  32142068.84545  24565026.5394   24565032.6404
     -6107.4604
   6701608.86146   5262185.82546  23064224.8004   23064228.4824
     -3231.7054
  -1263994.71945   -911679.26045  23854162.1814   23854165.5464
       981.5134
  -4745332.52946  -3596832.95346  22367320.7784   22367325.4064
      1012.3304
    456114.58346   1813524.27646  22835875.3764   22835879.7794
     -1753.8134
   6402867.31948   5098231.48147  20709192.4534   20709196.5684
     -3725.6174
  -2910609.51247  -2202524.57746  22363487.5954   22363488.9094
      -766.7924
  12360032.84046   9721180.02546  22948388.8174   22948392.3514
     -4475.8684
 06  5  8  0  2 30.0000000  0  9G30G 9G 4G25G 6G 1G 5G 2G14
  -5540617.40848  -4234843.37047  20081357.6744   20081360.4544
     -1371.0224
  41206049.27345  32213462.55645  24582461.6444   24582466.1954
     -6108.8054
   6750159.96746   5300017.84746  23073463.7934   23073467.4114
     -3241.7364
  -1278686.18945   -923127.13946  23851366.4494   23851370.6864
       977.3644
  -4760479.57346  -3608635.83646  22364438.3874   22364443.3954
      1007.2974
    482499.71746   1834084.12246  22840896.3224   22840901.5494
     -1764.2274
   6458804.97848   5141819.26647  20719837.0504   20719841.1974
     -3732.7334
  -2899031.15147  -2193502.45946  22365690.8834   22365692.2174
      -776.9824
  12427227.82346   9773539.73946  22961175.5944   22961179.1694
     -4483.4434
 06  5  8  0  2 45.0000000  0  9G30G 9G 4G25G 6G 1G 5G 2G14
  -5519990.41348  -4218770.39347  20085282.8694   20085285.4054
     -1379.2304
  41297690.22845  32284871.06845  24599900.3634   24599904.9014
     -6109.9824
   6798860.08546   5337965.98546  23082731.1374   23082735.3414
     -3251.5834
  -1293316.89646   -934527.65746  23848582.2954   23848585.4224
       973.4034
  -4775552.61946  -3620381.05846  22361570.0964   22361574.5104
      1002.4714
    509039.68146   1854764.61646  22845946.7194   22845951.2594
     -1774.4424
   6514847.82948   5185489.02347  20730501.6524   20730505.7214
     -3739.6464
  -2887301.53947  -2184362.49546  22367922.9634   22367924.2514
      -786.9684
  12494534.69846   9825986.63546  22973983.6684   22973986.7094
     -4490.8104
 06  5  8  0  3  0.0000000  0  9G30G 9G 4G25G 6G 1G 5G 2G14
  -5499241.17748  -4202602.15847  20089231.3324   20089234.1674
     -1387.3354
  41389347.75245  32356292.55545  24617342.2304   24617346.4364
     -6111.0134
   6847706.89146   5376028.41746  23092026.4004   23092030.3474
     -3261.3264
  -1307888.76846   -945882.36546  23845809.3444   23845812.7934
       969.5154
  -4790553.76046  -3632070.25846  22358715.4794   22358719.9484
       997.6994
    535732.31846   1875564.07946  22851026.1854   22851029.9734
     -1784.5804
   6570993.51948   5229238.90847  20741185.8234   20741189.8734
     -3746.4524
  -2875422.71547  -2175106.25846  22370183.4274   22370185.0324
      -796.8984
  12561950.95545   9878518.79246  22986812.5434   22986816.0804
     -4498.0414
 06  5  8  0  3 15.0000000  0  9G30G 9G 4G25G 6G 1G 5G 2G14
  -5478369.41248  -4186338.44447  20093203.1084   20093206.1784
     -1395.5554
  41481021.68044  32427726.75045  24634787.1544   24634791.3284
     -6112.1384
   6896700.53846   5414205.28846  23101349.6114   23101353.3954
     -3271.1294
  -1322401.06746   -957190.62846  23843047.7254   23843052.7534
       965.4914
  -4805482.34246  -3643702.90846  22355874.6634   22355879.0184
       992.8194
    562578.08146   1896482.85746  22856134.7904   22856138.7264
     -1794.8294
   6627242.33048   5273069.14647  20751889.6194   20751893.4974
     -3753.3604
  -2863393.94347  -2165733.17246  22372472.4314   22372473.5334
      -806.9344
  12629476.62745   9931136.18746  22999662.2634   22999666.6884
     -4505.3634
 06  5  8  0  3 30.0000000  0  9G30G 9G 4G25G 6G 1G 5G 2G14
  -5457374.44748  -4169978.73047  20097198.3204   20097201.5474
     -1403.7864
  41572712.33144  32499174.02745  24652235.2764   24652240.6764
     -6113.2774
   6945841.20046   5452496.69446  23110700.8004   23110705.4574
     -3280.9574
  -1336853.27446   -968452.09446  23840297.5614   23840301.8514
       961.4514
  -4820337.81346  -3655278.58846  22353047.7524   22353051.7414
       987.9324
    589577.29946   1917521.21046  22861272.5914   22861276.4934
     -1805.0794
   6683594.42848   5316979.86747  20762613.0644   20762616.8484
     -3760.2694
  -2851214.86847  -2156242.97646  22374790.0134   22374791.3944
      -816.9814
  12697111.71345   9983838.84446  23012532.7814   23012536.0614
     -4512.6694
 06  5  8  0  3 45.0000000  0  9G30G 9G 4G25G 6G 1G 5G 2G14
  -5436256.60248  -4153523.26347  20101216.9104   20101220.1494
     -1412.0114
  41664419.07245  32570633.80845  24669686.4854   24669690.3994
     -6114.3684
   6995128.51346   5490902.40346  23120079.8824   23120084.3974
     -3290.7314
  -1351245.34846   -979666.69146  23837558.8074   23837563.2144
       957.4174
  -4835120.07346  -3666797.21046  22350234.7654   22350239.1654
       982.9884
    616729.68846   1938678.92346  22866439.5414   22866443.7634
     -1815.3124
   6740049.42948   5360970.77647  20773356.0914   20773359.8674
     -3767.1424
  -2838885.49947  -2146635.65046  22377136.1954   22377138.0804
      -827.0364
  12764855.70645  10036626.33846  23025424.0314   23025427.4584
     -4519.9334
 06  5  8  0  4  0.0000000  0  9G30G 9G 4G25G 6G 1G 5G 2G14
  -5415016.95048  -4136972.89047  20105258.6764   20105262.0104
     -1419.9884
  41756140.43545  32642105.00045  24687140.5054   24687144.6114
     -6115.1894
   7044561.12346   5529421.31646  23129486.5984   23129490.8494
     -3300.3074
  -1365578.29346   -990835.19246  23834831.3304   23834835.5104
       953.5904
  -4849830.35046  -3678259.74446  22347435.4734   22347439.4174
       978.3054
    644034.08946   1959955.08046  22871635.3994   22871640.0884
     -1825.3204
   6796606.07948   5405040.88647  20784118.4664   20784122.1764
     -3773.7864
  -2826406.74347  -2136911.94246  22379510.8094   22379512.7124
      -836.8644
  12832706.98345  10089497.45846  23038335.6804   23038339.3854
     -4526.9564
 06  5  8  0  4 15.0000000  0  9G30G 9G 4G25G 6G 1G 5G 2G14
  -5393654.88048  -4120327.11647  20109323.7404   20109327.1064
     -1428.2044
  41847876.78545  32713587.86845  24704597.3754   24704602.9444
     -6116.2444
   7094139.27046   5568053.65346  23138921.0004   23138924.9094
     -3310.0514
  -1379851.02346  -1001956.79046  23832115.3324   23832119.3434
       949.5324
  -4864467.69446  -3689665.45846  22344650.0564   22344654.3564
       973.3974
    671491.23546   1981350.26346  22876860.3284   22876864.8804
     -1835.5554
   6853264.85248   5449190.57847  20794900.2764   20794903.7844
     -3780.6414
  -2813777.84647  -2127071.22346  22381913.9794   22381915.2594
      -846.9184
  12900665.98245  10142452.50446  23051267.8474   23051272.3014
     -4534.1704
 06  5  8  0  4 30.0000000  0  9G30G 9G 4G25G 6G 1G 5G 2G14
  -5372170.25848  -4103585.84747  20113412.1214   20113415.7104
     -1436.5394
  41939628.06745  32785082.35945  24722057.1044   24722062.5344
     -6117.3754
   7143862.95246   5606799.38446  23148383.0934   23148386.5704
     -3319.9004
  -1394063.48546  -1013031.40646  23829410.7484   23829416.2354
       945.3384
  -4879031.91446  -3701014.19546  22341878.5684   22341883.0124
       968.3664
    699101.03446   2002864.39046  22882114.3014   22882118.4794
     -1845.8784
   6910025.55548   5493419.69647  20805701.4804   20805704.9754
     -3787.5814
  -2800998.68147  -2117113.42846  22384345.7504   22384347.2554
      -857.1064
  12968732.19046  10195491.08146  23064220.4384   23064224.4164
     -4541.4614
 06  5  8  0  4 45.0000000  0  9G30G 9G 4G25G 6G 1G 5G 2G14
  -5350562.97148  -4086748.99747  20117523.8444   20117527.1104
     -1444.4864
  42031393.93544  32856588.21445  24739519.5844   24739522.1364
     -6118.1204
   7193732.01646   5645658.37946  23157872.8544   23157876.5184
     -3329.3624
  -1408215.16845  -1024058.70646  23826717.7414   23826722.4184
       941.5024
  -4893522.60946  -3712305.62346  22339121.0824   22339125.5324
       963.6834
    726863.66446   2024497.61546  22887397.3474   22887401.8534
     -1855.8544
   6966888.20748   5537728.25347  20816522.0774   20816525.5994
     -3794.1564
  -2788068.91647  -2107038.29146  22386806.1944   22386807.9884
      -866.9314
  13036905.44045  10248613.08746  23077193.3684   23077196.8984
     -4548.3594
 06  5  8  0  5  0.0000000  0  9G30G 9G 4G25G 6G 1G 5G 2G14
  -5328833.06248  -4069816.60047  20121658.9014   20121662.1074
     -1452.7964
  42123174.07844  32928105.20645  24756984.7774   24756987.3994
     -6119.1834
   7243746.43146   5684630.63246  23167390.2734   23167394.8654
     -3339.1544
  -1422305.86246  -1035038.44046  23824036.3534   23824041.1794
       937.2954
  -4907939.61246  -3723539.64746  22336377.6144   22336382.0574
       958.6374
    754779.08846   2046249.88746  22892709.4664   22892713.2084
     -1866.1694
   7023852.58548   5582116.08147  20827362.0264   20827365.8404
     -3801.0634
  -2774988.27547  -2096845.55746  22389295.3484   22389296.7074
      -877.1194
  13105185.31645  10301818.17046  23090186.6034   23090191.2904
     -4555.5944
 06  5  8  0  5 15.0000000  0  9G30G 9G 4G25G 6G 1G 5G 2G14
  -5306979.42048  -4052787.79347  20125817.5124   20125820.9434
     -1460.9764
  42214969.19144  32999633.80645  24774452.7654   24774456.1084
     -6120.0854
   7293906.78346   5723716.60146  23176935.4914   23176940.8224
     -3348.8384
  -1436334.37746  -1045969.73346  23821366.8084   23821371.3124
       933.2054
  -4922281.78546  -3734715.35146  22333648.3824   22333652.5874
       953.6984
    782848.24346   2068121.96546  22898050.8424   22898054.6814
     -1876.3404
   7080919.50948   5626583.80747  20838221.4934   20838225.4354
     -3807.8204
  -2761755.74447  -2086534.49046  22391813.4044   22391814.9534
      -887.1764
  13173572.49645  10355106.85145  23103200.2594   23103204.0024
     -4562.6674
 06  5  8  0  5 30.0000000  0  9G30G 9G 4G25G 6G 1G 5G 2G14
  -5285002.26248  -4035662.73047  20129999.6324   20130003.2814
     -1469.1704
  42306778.79644  33071173.75445  24791923.5434   24791928.1534
     -6121.0244
   7344212.72646   5762916.02546  23186508.4174   23186513.3844
     -3358.4764
  -1450300.72946  -1056852.59646  23818709.0894   23818713.0994
       929.1064
  -4936549.31546  -3745832.90146  22330933.3674   22330937.8004
       948.7554
    811070.87446   2090113.62746  22903421.4034   22903425.7924
     -1886.5394
   7138088.54148   5671131.09647  20849100.3944   20849104.6324
     -3814.5904
  -2748371.33747  -2076105.08646  22394360.3664   22394361.9774
      -897.2734
  13242066.45145  10408478.76846  23116234.2214   23116236.8984
     -4569.7314
 06  5  8  0  5 45.0000000  0  9G30G 9G 4G25G 6G 1G 5G 2G14
  -5262902.08748  -4018441.81547  20134205.1554   20134208.9254
     -1477.4954
  42398602.10145  33142724.37345  24809396.9634   24809402.3924
     -6122.0534
   7394663.55046   5802228.37046  23196108.8814   23196113.8814
     -3368.2674
  -1464205.15446  -1067687.19946  23816063.1324   23816067.1904
       924.8284
  -4950742.41646  -3756892.43746  22328232.5134   22328236.9494
       943.6784
    839446.48046   2112224.49146  22908821.0704   22908825.6384
     -1896.8544
   7195359.10948   5715757.50947  20859998.6194   20860002.8294
     -3821.4574
  -2734835.46647  -2065557.64746  22396936.1394   22396937.7694
      -907.4914
  13310666.06645  10461932.98546  23129288.3174   23129291.2854
     -4576.8684
 06  5  8  0  6  0.0000000  0  9G30G 9G 4G25G 6G 1G 5G 2G14
  -5240679.01448  -4001125.13847  20138434.0674   20138437.5064
     -1485.6804
  42490438.42945  33214285.17445  24826872.8664   24826877.2424
     -6122.8724
   7445258.70446   5841653.15346  23205736.8194   23205741.5984
     -3377.8534
  -1478047.69346  -1078473.58446  23813428.9474   23813433.4704
       920.7284
  -4964861.17146  -3767894.05046  22325545.8144   22325549.5304
       938.7474
    867974.75546   2134454.32746  22914249.7804   22914254.4074
     -1907.0124
   7252730.67248   5760462.62047  20870916.0704   20870920.0074
     -3828.1784
  -2721148.24547  -2054892.26546  22399540.7114   22399542.4584
      -917.5684
  13379370.68845  10515469.04746  23142362.3734   23142366.1034
     -4583.8284
 06  5  8  0  6 15.0000000  0  9G30G 9G 4G25G 6G 1G 5G 2G14
  -5218332.61548  -3983712.36647  20142686.4534   20142689.6014
     -1493.7864
  42582288.28144  33285856.45245  24844351.2954   24844354.6084
     -6123.7064
   7495998.82046   5881190.89246  23215392.3274   23215396.3934
     -3387.4144
  -1491827.33646  -1089210.94846  23810806.7354   23810810.6814
       916.6054
  -4978904.85946  -3778837.18946  22322873.3864   22322877.5704
       933.7944
    896656.38846   2156803.65246  22919707.6844   22919711.9044
     -1917.1564
   7310203.79748   5805246.87547  20881852.8544   20881856.5984
     -3834.8564
  -2707308.93747  -2044108.37946  22402174.2304   22402176.0084
      -927.6264
  13448180.75045  10569087.24946  23155456.5114   23155460.5464
     -4590.7804
 06  5  8  0  6 30.0000000  0  9G30G 9G 4G25G 6G 1G 5G 2G14
  -5195864.26848  -3966204.55747  20146962.0494   20146965.0164
     -1501.8854
  42674149.88644  33357436.88845  24861831.9654   24861834.9984
     -6124.3864
   7546881.95146   5920840.06846  23225075.0294   23225078.9754
     -3396.8824
  -1505545.52146  -1099900.43046  23808196.2484   23808200.6714
       912.5704
  -4992874.68246  -3789722.75046  22320215.0164   22320218.8894
       928.9424
    925489.73246   2179271.19146  22925194.4544   22925198.3494
     -1927.1984
   7367776.75848   5850108.92447  20892808.6314   20892812.2184
     -3841.4414
  -2693318.87647  -2033207.02046  22404836.4574   22404838.1564
      -937.6234
  13517094.30545  10622786.11946  23168570.3334   23168573.6604
     -4597.5964
 06  5  8  0  6 45.0000000  0  9G30G 9G 4G25G 6G 1G 5G 2G14
  -5173274.67348  -3948602.27547  20151260.7144   20151263.6544
     -1510.0624
  42766021.93544  33429025.48045  24879314.5974   24879319.2074
     -6125.1974
   7597907.04046   5960599.87146  23234784.7514   23234788.0264
     -3406.4714
  -1519202.78846  -1110542.43446  23805597.3624   23805601.4554
       908.3994
  -5006771.37046  -3800551.32646  22317570.5724   22317575.1684
       923.9434
    954473.94446   2201856.29346  22930709.9464   22930714.6774
     -1937.3744
   7425448.54448   5895047.97747  20903783.2154   20903786.8544
     -3848.1414
  -2679178.67847  -2022188.68046  22407527.2664   22407528.4754
      -947.7564
  13586110.14245  10676564.67746  23181703.6274   23181707.5544
     -4604.5224
 06  5  8  0  7  0.0000000  0  9G30G 9G 4G25G 6G 1G 5G 2G14
  -5150560.08448  -3930902.59747  20155583.1694   20155585.8654
     -1518.5004
  42857908.15044  33500625.15445  24896799.9624   24896805.8754
     -6126.2434
   7649077.99146   6000473.33846  23244522.2464   23244525.5754
     -3416.2444
  -1532794.98546  -1121133.75546  23803010.8534   23803015.1274
       903.9574
  -5020590.85646  -3811319.74646  22314940.8064   22314944.9904
       918.7004
    983613.01746   2224562.05846  22936254.9334   22936259.4574
     -1947.7844
   7483222.84148   5940066.90947  20914777.2944   20914780.9684
     -3855.0534
  -2664884.26647  -2011050.16746  22410247.3964   22410248.8624
      -958.1254
  13655231.69245  10730425.61246  23194857.0444   23194860.7294
     -4611.6364
 06  5  8  0  7 15.0000000  0  9G30G 9G 4G25G 6G 1G 5G 2G14
  -5127722.00748  -3913106.69147  20159929.1244   20159931.6624
     -1526.6284
  42949806.93444  33572234.58645  24914287.7254   24914292.9554
     -6126.9784
   7700392.88346   6040458.94346  23254287.1394   23254290.6904
     -3425.7594
  -1546323.38746  -1131675.36246  23800436.4744   23800440.8054
       899.7964
  -5034334.51846  -3822029.07946  22312325.4484   22312329.1974
       913.7424
   1012905.25046   2247387.17346  22941829.0714   22941833.3874
     -1957.8924
   7541098.02148   5985164.45147  20925790.5654   20925794.1534
     -3861.6744
  -2650437.14847  -1999792.65946  22412996.5754   22412998.2514
      -968.2074
  13724457.08545  10784367.48846  23208030.2194   23208033.9344
     -4618.4514
 06  5  8  0  7 30.0000000  0  9G30G 9G 4G25G 6G 1G 5G 2G14
  -5104759.96348  -3895214.18447  20164298.6594   20164301.4044
     -1534.9574
  43041718.01645  33643853.57945  24931777.8424   24931782.5424
     -6127.8334
   7751851.76846   6080556.76746  23264079.4604   23264083.9654
     -3435.4094
  -1559787.58746  -1142166.93146  23797874.3154   23797878.2034
       895.4594
  -5048001.90746  -3832678.98346  22309724.6204   22309728.7074
       908.5914
   1042350.87946   2270331.83046  22947432.3724   22947437.0404
     -1968.1894
   7599074.14948   6030340.66147  20936823.0314   20936826.6494
     -3868.4504
  -2635836.84947  -1988415.79346  22415774.8914   22415776.8774
      -978.4924
  13793786.27445  10838390.21446  23221223.1514   23221226.5564
     -4625.4244
 06  5  8  0  7 45.0000000  0  9G30G 9G 4G25G 6G 1G 5G 2G14
  -5081673.56948  -3877224.78747  20168691.8644   20168694.9574
     -1543.0834
  43133641.58045  33715482.30545  24949270.3644   24949275.5084
     -6128.5044
   7803454.99546   6120767.05946  23273899.2684   23273904.1024
     -3444.8564
  -1573186.69346  -1152607.78446  23795324.5544   23795328.2154
       891.2444
  -5061592.27646  -3843268.86946  22307138.4434   22307141.9894
       903.6084
   1071950.46746   2293396.45246  22953064.9814   22953069.9324
     -1978.2924
   7657151.60948   6075595.81247  20947874.7864   20947878.8944
     -3875.0494
  -2621082.66447  -1976919.00946  22418582.4934   22418584.2974
      -988.5874
  13863219.43145  10892493.95746  23234435.8574   23234438.9814
     -4632.1734
 06  5  8  0  8  0.0000000  0  9G30G 9G 4G25G 6G 1G 5G 2G14
  -5058464.38048  -3859139.70547  20173108.4314   20173111.7794
     -1551.4674
  43225575.70244  33787119.29145  24966764.8794   24966769.5884
     -6129.3954
   7855200.49346   6161088.20546  23283746.1644   23283750.6484
     -3454.5454
  -1586522.24046  -1162999.11646  23792786.8874   23792790.5414
       886.8014
  -5075107.15646  -3853799.93346  22304566.6394   22304570.5534
       898.3744
   1101702.27946   2316579.69046  22958726.5664   22958731.0264
     -1988.6314
   7715328.49648   6120928.44847  20958945.4694   20958949.6194
     -3881.8804
  -2606176.25947  -1965303.61646  22421419.0904   22421420.5134
      -998.9444
  13932754.43145  10946677.06946  23247667.9364   23247671.7654
     -4639.1414
 06  5  8  0  8 15.0000000  0  9G30G 9G 4G25G 6G 1G 5G 2G14
  -5035130.06548  -3840957.12147  20177548.8124   20177552.2664
     -1559.7374
  43317522.65844  33858766.26345  24984261.7894   24984268.7724
     -6130.1554
   7907090.72646   6201522.15346  23293620.5804   23293625.1934
     -3464.0824
  -1599791.38946  -1173338.73146  23790261.8624   23790265.3454
       882.4574
  -5088543.89546  -3864270.10646  22302009.7134   22302014.0144
       893.2234
   1131608.80746   2339883.46646  22964417.6064   22964422.5924
     -1998.8614
   7773607.19548   6166340.41847  20970035.5324   20970039.8154
     -3888.5734
  -2591114.90647  -1953567.49746  22424285.1844   22424286.2194
     -1009.2084
  14002393.32245  11000941.11346  23260919.8104   23260922.2354
     -4645.9834
 06  5  8  0  8 30.0000000  0  9G30G 9G 4G25G 6G 1G 5G 2G14
  -5011672.64548  -3822678.61347  20182012.6214   20182016.0404
     -1568.0144
  43409479.89844  33930421.18645  25001760.6844   25001766.5584
     -6130.8684
   7959123.08846   6242066.85146  23303522.0424   23303525.9474
     -3473.6464
  -1612996.29346  -1183628.24046  23787749.0724   23787752.4064
       878.1204
  -5101904.54546  -3874680.99046  22299467.2594   22299471.5024
       888.0934
   1161667.63446   2363305.93246  22970137.6214   22970142.5594
     -2009.0794
   7831985.20148   6211829.76447  20981144.4954   20981148.9154
     -3895.2464
  -2575900.74447  -1941712.30546  22427180.3564   22427181.2334
     -1019.4534
  14072133.49445  11055284.09846  23274190.9624   23274193.8204
     -4652.7894
 06  5  8  0  8 45.0000000  0  9G30G 9G 4G25G 6G 1G 5G 2G14
  -4988091.51348  -3804303.69747  20186499.9594   20186503.0574
     -1576.0744
  43501447.71745  34002084.40845  25019261.5984   25019265.3264
     -6131.3984
   8011297.99546   6282722.60746  23313450.6214   23313454.5404
     -3482.9294
  -1626136.11646  -1193867.06546  23785248.6654   23785251.6304
       873.9274
  -5115188.43746  -3885032.06346  22296939.4134   22296943.5504
       883.1684
   1191879.37746   2386847.55346  22975886.7354   22975891.6044
     -2019.0904
   7890462.93348   6257396.82647  20992272.4444   20992276.8714
     -3901.7074
  -2560533.09547  -1929737.50546  22430104.7414   22430105.7254
     -1029.4984
  14141975.18945  11109706.19546  23287481.4064   23287484.5094
     -4659.3614
 06  5  8  0  9  0.0000000  0  9G30G 9G 4G25G 6G 1G 5G 2G14
  -4964388.40548  -3785833.74647  20191010.5134   20191013.5774
     -1584.4254
  43593424.22745  34073754.42945  25036764.1324   25036767.7834
     -6132.2314
   8063613.66046   6323488.05546  23323405.9784   23323409.3164
     -3492.5564
  -1639212.10646  -1204056.15446  23782760.3604   23782763.6694
       869.4434
  -5128396.91046  -3895324.36746  22294425.9124   22294430.5844
       877.8804
   1222242.44246   2410507.08046  22981664.6424   22981669.5774
     -2029.4154
   7949038.65148   6303040.23647  21003419.0454   21003423.4324
     -3908.4824
  -2545013.27847  -1917644.13546  22433058.0484   22433059.1254
     -1039.8984
  14211916.49745  11164205.88445  23300790.8074   23300795.2004
     -4666.2284
 06  5  8  0  9 15.0000000  0  9G30G 9G 4G25G 6G 1G 5G 2G14
  -4940560.73448  -3767266.72647  20195544.7664   20195547.7374
     -1592.5974
  43685411.66045  34145432.90945  25054268.8074   25054273.1134
     -6132.7764
   8116072.35646   6364364.97446  23333388.5374   23333392.2534
     -3501.9394
  -1652221.51546  -1214193.32146  23780284.7314   23780288.8344
       865.1424
  -5141527.24346  -3905555.78546  22291927.2714   22291932.2364
       872.8314
   1252759.31446   2434286.46546  22987471.8164   22987476.2574
     -2039.5044
   8007714.74348   6348761.86447  21014584.7454   21014588.9054
     -3914.9984
  -2529338.70647  -1905430.17046  22436040.7924   22436042.0144
     -1050.0514
  14281959.47945  11218784.81845  23314119.5414   23314122.2904
     -4672.8374
 06  5  8  0  9 30.0000000  0  9G30G 9G 4G25G 6G 1G 5G 2G14
  -4916610.67948  -3748604.34347  20200102.3114   20200105.0614
     -1600.6384
  43777407.55145  34217118.03145  25071775.0634   25071781.2794
     -6133.2354
   8168671.84346   6405351.58246  23343397.8644   23343401.8634
     -3511.1974
  -1665166.26846  -1224280.13746  23777821.4204   23777824.7614
       860.9254
  -5154581.45946  -3915727.89246  22289443.1234   22289447.6714
       867.8594
   1283427.82346   2458184.00646  22993307.8454   22993311.7754
     -2049.5104
   8066488.87748   6394559.89047  21025769.0944   21025772.9754
     -3921.4264
  -2513511.38947  -1893097.19146  22439052.5874   22439054.3574
     -1060.1504
  14352101.46645  11273440.89945  23327467.1404   23327470.4764
     -4679.3194
 06  5  8  0  9 45.0000000  0  9G30G 9G 4G25G 6G 1G 5G 2G14
  -4892536.17848  -3729844.99647  20204683.5354   20204686.6904
     -1608.9424
  43869413.61945  34288811.05945  25089283.2404   25089288.0284
     -6133.8694
   8221413.58746   6446449.02246  23353434.2734   23353439.0264
     -3520.6904
  -1678044.28546  -1234314.96146  23775370.8314   23775373.8674
       856.4824
  -5167557.56846  -3925839.13446  22286973.8324   22286978.0494
       862.6304
   1314249.69946   2482201.05546  22999173.0584   22999176.7444
     -2059.7234
   8125362.68948   6440435.58247  21036972.4214   21036976.4364
     -3928.0674
  -2497529.38847  -1880643.66846  22442093.8194   22442095.5224
     -1070.4534
  14422344.03045  11328175.34345  23340833.8764   23340836.4134
     -4686.0084
 06  5  8  0 10  0.0000000  0  9G30G 9G 4G25G 6G 1G 5G 2G14
  -4868338.88348  -3710989.96347  20209288.1304   20209291.2724
     -1617.2794
  43961427.73244  34360510.34545  25106792.9044   25106796.6794
     -6134.5764
   8274295.53346   6487655.73146  23363497.3454   23363501.1574
     -3530.2144
  -1690857.02246  -1244298.91646  23772932.6834   23772936.7044
       851.9624
  -5180457.08546  -3935890.70046  22284519.1304   22284523.4644
       857.3754
   1345223.22846   2506336.27446  23005067.1314   23005070.8634
     -2069.9944
   8184334.27448   6486387.46547  21048194.3474   21048198.2924
     -3934.7304
  -2481394.37547  -1868070.92546  22445164.1834   22445165.9534
     -1080.8094
  14492685.13145  11382986.59145  23354219.3104   23354222.7644
     -4692.7264
 06  5  8  0 10 15.0000000  0  9G30G 9G 4G25G 6G 1G 5G 2G14
  -4844016.33348  -3692037.32547  20213916.5744   20213919.9944
     -1625.6044
  44053452.35545  34432217.79045  25124304.6054   25124308.5234
     -6135.2324
   8327320.33446   6528973.77546  23373587.5964   23373592.2914
     -3539.6554
  -1703601.56946  -1254229.69646  23770507.4884   23770511.0964
       847.4234
  -5193277.10246  -3945880.31246  22282079.5574   22282083.8554
       852.0894
   1376351.03546   2530591.70846  23010990.5594   23010994.3134
     -2080.2554
   8243406.24248   6532417.57147  21059435.3644   21059439.5704
     -3941.4004
  -2465103.42447  -1855376.66046  22448264.2234   22448265.8014
     -1091.1984
  14563127.05545  11437876.39245  23367623.9794   23367627.7314
     -4699.4014
 06  5  8  0 10 30.0000000  0  9G30G 9G 4G25G 6G 1G 5G 2G14
  -4819569.34348  -3672987.72547  20218568.6954   20218571.5084
     -1633.8224
  44145486.17445  34503932.45445  25141818.0704   25141822.8354
     -6135.7774
   8380486.79146   6570402.13546  23383704.8254   23383709.4434
     -3549.0374
  -1716278.58446  -1264107.90646  23768095.1174   23768098.5794
       842.9914
  -5206018.39646  -3955808.58046  22279654.9724   22279659.1344
       846.8914
   1407632.11346   2554966.57746  23016943.1554   23016947.0144
     -2090.4044
   8302577.43748   6578524.99147  21070695.2584   21070699.6374
     -3947.9374
  -2448657.31347  -1842561.50446  22451393.7914   22451395.2184
     -1101.4674
  14633668.48345  11492843.72545  23381047.5834   23381051.6674
     -4705.9604
 06  5  8  0 10 45.0000000  0  9G30G 9G 4G25G 6G 1G 5G 2G14
  -4795000.13948  -3653842.89147  20223244.0714   20223246.7594
     -1642.0824
  44237526.83745  34575652.43245  25159332.8654   25159336.8304
     -6136.3094
   8433792.53246   6611939.07146  23393848.5594   23393852.5004
     -3558.4114
  -1728889.97346  -1273934.94346  23765695.2484   23765699.0314
       838.5054
  -5218683.05546  -3965677.14046  22277244.9694   22277249.4274
       841.6874
   1439064.28346   2579459.17846  23022924.5164   23022928.5504
     -2100.5654
   8361845.56448   6624707.93847  21081973.6084   21081977.9704
     -3954.4984
  -2432058.11947  -1829627.05046  22454552.5004   22454554.0384
     -1111.7854
  14704306.90545  11547886.65545  23394489.6264   23394492.6014
     -4712.5254
 06  5  8  0 11  0.0000000  0  9G30G 9G 4G25G 6G 1G 5G 2G14
  -4770305.89247  -3634600.61547  20227943.2464   20227946.0054
     -1650.5444
  44329576.77245  34647379.65845  25176849.4334   25176851.7624
     -6137.0484
   8487240.11146   6653586.49246  23404019.2834   23404023.2774
     -3567.9554
  -1741432.77846  -1283708.56846  23763308.4294   23763311.6564
       833.8174
  -5231268.01646  -3975483.59646  22274850.1244   22274854.5744
       836.2454
   1470650.23946   2604071.63246  23028935.1074   23028938.9584
     -2110.9464
   8421213.19648   6670968.42047  21093270.9004   21093275.3214
     -3961.2304
  -2415302.92547  -1816571.04846  22457740.9044   22457742.3994
     -1122.3014
  14775044.68645  11603007.00945  23407950.5864   23407954.2964
     -4719.2554
 06  5  8  0 11 15.0000000  0  9G30G 9G 4G25G 6G 1G 5G 2G14
  -4745488.28748  -3615262.21747  20232665.8824   20232668.7934
     -1658.5934
  44421633.92244  34719112.49245  25194367.3634   25194373.1684
     -6137.3534
   8540827.48446   6695342.87546  23414216.6264   23414220.5954
     -3577.1304
  -1753908.45546  -1293429.86846  23760934.3754   23760938.0054
       829.4894
  -5243774.88746  -3985229.20146  22272470.1324   22272474.8364
       831.2134
   1502388.23746   2628802.52946  23034974.6484   23034978.5654
     -2120.8994
   8480678.35448   6717304.89947  21104586.7594   21104590.8124
     -3967.5664
  -2398393.34347  -1803394.75446  22460958.6954   22460959.5684
     -1132.4244
  14845879.70845  11658203.10645  23421430.0594   23421433.2574
     -4725.5414
 06  5  8  0 11 30.0000000  0  9G30G 9G 4G25G 6G 1G 5G 2G14
  -4720546.92448  -3595827.39047  20237412.0684   20237415.2974
     -1666.9944
  44513698.33743  34790850.95845  25211886.6174   25211893.0674
     -6137.9684
   8594554.58546   6737208.12746  23424440.5594   23424445.3574
     -3586.5884
  -1766316.51346  -1303098.44746  23758573.1704   23758574.9884
       824.8494
  -5256203.19646  -3994913.58046  22270105.0954   22270109.4864
       825.8094
   1534278.46246   2653652.04546  23041043.1494   23041046.5774
     -2131.1994
   8540241.19048   6763717.50147  21115921.2084   21115925.2804
     -3974.2164
  -2381328.96147  -1790097.82746  22464205.9324   22464207.0374
     -1142.8874
  14916811.79345  11713474.85845  23434927.9924   23434930.4414
     -4732.1394
 06  5  8  0 11 45.0000000  0  9G30G 9G 4G25G 6G 1G 5G 2G14
  -4695479.74048  -3576294.51347  20242182.1964   20242185.6504
     -1675.3734
  44605771.97644  34862596.63445  25229407.6634   25229412.2274
     -6138.5524
   8648423.51346   6779183.93246  23434691.4774   23434695.5694
     -3596.0064
  -1778654.50646                  23756225.2934
       820.1794
  -5268550.70246  -4004535.01346  22267755.4344   22267760.4034
       820.4504
   1566323.06246   2678621.86746  23047141.0324   23047144.7224
     -2141.4724
   8599903.72648   6810207.79047  21127274.6234   21127278.4934
     -3980.8484
  -2364107.51947  -1776678.51346  22467483.0454   22467484.1594
     -1153.3664
  14987842.76145  11768823.64345  23448444.7574   23448448.1364
     -4738.7084
 06  5  8  0 12  0.0000000  0  9G30G 9G 4G25G 6G 1G 5G 2G14
  -4670288.00248  -3556664.58347  20246976.0164   20246979.7374
     -1683.5234
  44697853.27144  34934348.28445  25246930.1774   25246937.4764
     -6138.9294
   8702432.74946   6821269.06046  23444969.1074   23444974.4594
     -3605.2254
  -1790923.43846                  23753890.5564
       815.6994
  -5280818.30046  -4014094.12846  22265420.9744   22265425.3404
       815.2524
   1598520.69946   2703710.93646  23053268.0594   23053272.1614
     -2151.5324
   8659664.50048   6856774.62347  21138646.7254   21138650.7904
     -3987.2514
  -2346730.14547  -1763137.69546  22470789.8294   22470791.3524
     -1163.6254
  15058970.91845  11824248.18145  23461980.0444   23461983.1314
     -4745.0334
 06  5  8  0 12 15.0010000  0  9G30G 9G 4G25G 6G 1G 5G 2G14
  -4644971.42248  -3536937.38347  20251793.5944   20251797.2924
     -1691.7894
  44789946.63344  35006109.32345  25264455.0174   25264458.8354
     -6139.3274
   8756584.29846   6863465.04846  23455273.8184   23455279.1504
     -3614.5124
  -1803125.30346                  23751568.5774
       811.1374
  -5293008.20046  -4023592.79146  22263101.3054   22263105.5004
       809.9674
   1630872.07446   2728919.81446  23059424.3434   23059428.2254
     -2161.6834
   8719525.99548   6903419.94447  21150037.9914   21150042.1694
     -3993.7384
  -2329196.97247  -1749475.47146  22474126.2654   22474127.9134
     -1173.9674
  15130199.34345  11879750.83345  23475534.3874   23475538.2244
     -4751.4304
 06  5  8  0 12 30.0010000  0  9G30G 9G 4G25G 6G 1G 5G 2G14
  -4619532.02148  -3517114.47047  20256634.5424   20256638.0174
     -1700.1894
  44882040.38744  35077870.68445  25281979.9124   25281982.0164
     -6139.8804
   8810871.71546   6905766.92646  23465604.3854   23465609.2324
     -3623.9094
  -1815257.09546                  23749259.9434
       806.3964
  -5305117.47146  -4033028.55846  22260796.9864   22260801.1894
       804.5404
   1663373.91746   2754245.93346  23065609.2264   23065613.3094
     -2171.9554
   8779481.08548   6950138.18747  21161447.0774   21161451.3794
     -4000.3434
  -2311509.13547  -1735692.73446  22477492.1254   22477493.4954
     -1184.4634
  15201519.08645  11935324.64545  23489106.0964   23489108.8724
     -4757.9114
 06  5  8  0 12 45.0010000  0  9G30G 9G 4G25G 6G 1G 5G 2G14
  -4593967.30748  -3497193.91647  20261499.3404   20261502.6704
     -1708.5094
  44974141.51943  35149637.78245  25299506.1864   25299510.9234
     -6140.3504
   8865299.26546   6948177.99346  23475961.6204   23475965.6114
     -3633.2064
  -1827318.54846                  23746964.6984
       801.7044
  -5317145.87746  -4042401.33746  22258508.0624   22258512.6914
       799.1504
   1696029.22546   2779691.63546  23071823.3164   23071826.4914
     -2182.1514
   8839534.53648   6996933.08247  21172874.8784   21172879.4074
     -4006.8734
  -2293664.47747  -1721787.79946  22480887.8354   22480889.3744
     -1194.9044
  15272935.45145  11990973.74545  23502696.1864   23502699.0784
     -4764.3314
 06  5  8  0 13  0.0010000  0  9G30G 9G 4G25G 6G 1G 5G 2G14
  -4568277.54148  -3477175.90747  20266387.9324   20266390.9314
     -1716.8054
  45066249.85543  35221410.49045  25317033.8204   25317037.9624
     -6140.7554
   8919866.68846   6990698.05746  23486345.4764   23486350.0004
     -3642.4794
  -1839309.35646                  23744682.9044
       797.0574
  -5329093.13646  -4051710.87546  22256234.5694   22256238.7954
       793.8104
   1728837.84946   2805256.78946  23078066.5914   23078069.8724
     -2192.3304
   8899686.11948   7043804.44847  21184321.3464   21184325.9144
     -4013.3394
  -2275662.80947  -1707760.51446  22484313.4204   22484315.0534
     -1205.3114
  15344447.96945  12046697.79145  23516304.5904   23516307.9654
     -4770.6714
 06  5  8  0 13 15.0010000  0  9G30G 9G 4G25G 6G 1G 5G 2G14
  -4542464.27448  -3457061.67547  20271300.0264   20271302.9974
     -1725.0814
  45158363.21943  35293187.11645  25334562.3854   25334567.5944
     -6141.1394
   8974572.09646   7033325.62446  23496755.5864   23496760.2234
     -3651.6844
  -1851231.08446     -1235.59046  23742414.2884   23742418.8054
       792.3974
  -5340960.91746  -4060958.47746  22253976.2054   22253980.2774
       788.4704
   1761798.00046   2830940.01746  23084338.7134   23084342.3894
     -2202.4784
   8959933.89248   7090750.75747  21195786.1214   21195790.6524
     -4019.8054
  -2257505.82747  -1693612.19446  22487768.5484   22487770.5114
     -1215.7194
  15416054.72245  12102495.23445  23529930.9234   23529934.0424
     -4777.0004
 06  5  8  0 13 30.0010000  0  9G30G 9G 4G25G 6G 1G 5G 2G14
  -4516526.44448  -3436850.38147  20276235.8424   20276238.6364
     -1733.2484
  45250482.27143  35364968.21845  25352091.9904   25352094.0964
     -6141.3584
   9029416.05046   7076061.16746  23507192.0524   23507195.9704
     -3660.7774
  -1863082.49746    -10470.44646  23740159.0764   23740163.4534
       787.8414
  -5352748.08546  -4070143.27246  22251733.1774   22251737.3044
       783.2054
   1794910.59646   2856742.04946  23090639.8314   23090643.7414
     -2212.4964
   9020278.71848   7137772.69447  21207269.3754   21207273.8194
     -4026.1314
  -2239192.49347  -1679342.06246  22491253.4474   22491255.2694
     -1226.0174
  15487756.22045  12158366.50845  23543575.2724   23543578.4894
     -4783.1684
 06  5  8  0 13 45.0010000  0  9G30G 9G 4G25G 6G 1G 5G 2G14
  -4490463.50848  -3416541.59447  20281195.4674   20281198.2464
     -1741.7324
  45342607.53843  35436754.09645  25369622.8034   25369627.7064
     -6141.9154
   9084399.08846   7118905.07946  23517655.0034   23517659.4844
     -3670.2124
  -1874862.71946    -19649.83146  23737917.4014   23737921.7464
       782.9254
  -5364453.92046  -4079264.70346  22249505.6274   22249509.6324
       777.6114
   1828176.19846   2882663.31046  23096970.0544   23096974.5544
     -2222.8394
   9080720.98248   7184870.56147  21218771.1744   21218774.9134
     -4032.7734
  -2220721.98647  -1664949.44846  22494768.2644   22494769.3124
     -1236.6494
  15559552.54145  12214311.68045  23557237.6514   23557240.6184
     -4789.6174
 06  5  8  0 14  0.0010000  0  9G30G 9G 4G25G 6G 1G 5G 2G14
  -4464274.90648  -3396134.89447  20286179.0004   20286181.6474
     -1749.9344
  45434739.10143  35508544.90945  25387154.8344   25387162.5524
     -6142.1344
   9139521.52146   7161857.61146  23528144.4574   23528149.7834
     -3679.3014
  -1886570.85446    -28773.05446  23735689.4394   23735693.5584
       778.2944
  -5376077.43546  -4088321.97546  22247293.7384   22247297.5254
       772.3194
   1861595.37746   2908704.21746  23103329.4974   23103334.4944
     -2232.8824
   9141261.15748   7232044.72447  21230291.6074   21230295.2404
     -4039.1004
  -2202093.51247  -1650433.75646  22498313.1594   22498314.5444
     -1246.9874
  15631444.08745  12270331.08245  23570918.1484   23570921.6354
     -4795.7674
 06  5  8  0 14 15.0010000  0  9G30G 9G 4G25G 6G 1G 5G 2G14
  -4437962.70448  -3375631.87347  20291186.0524   20291188.6354
     -1758.3034
  45526874.47043  35580338.70945  25404687.5724   25404692.4564
     -6142.5464
   9194780.91646   7204916.88246  23538659.9614   23538665.0904
     -3688.5584
  -1898209.03946    -37841.74946  23733474.7674   23733478.5384
       773.4724
  -5387621.02546  -4097316.97246  22245097.0664   22245101.1964
       766.8354
   1895165.75546   2934862.96446  23109717.7044   23109722.6174
     -2243.1354
   9201896.81848   7279293.29147  21241830.2134   21241833.7674
     -4045.6184
  -2183309.45947  -1635796.82946  22501887.6634   22501889.1094
     -1257.5264
  15703428.11645  12326422.49045  23584616.2524   23584621.4604
     -4802.0714
 06  5  8  0 14 30.0010000  0  9G30G 9G 4G25G 6G 1G 5G 2G14
  -4411526.95448  -3355032.58547  20296216.6024   20296219.2994
     -1766.5004
  45619013.94143  35652135.70145  25422221.1304   25422227.7524
     -6142.7884
   9250177.11846   7248082.73746  23549201.5054   23549206.2514
     -3697.6764
  -1909776.62846    -46855.46546  23731273.5354   23731277.3114
       768.8124
  -5399083.98746  -4106249.14946  22242915.7474   22242920.1064
       761.4974
   1928887.57946   2961139.70246  23116134.7494   23116139.6854
     -2253.1834
   9262628.00748   7326616.29447  21253386.9904   21253390.5464
     -4051.9394
  -2164369.33847  -1621038.27946  22505491.8534   22505493.1284
     -1267.9024
  15775504.45145  12382585.87945  23598331.9214   23598334.9944
     -4808.1764
 06  5  8  0 14 45.0010000  0  9G30G 9G 4G25G 6G 1G 5G 2G14
  -4384967.48148  -3334336.88847  20301270.6974   20301273.2644
     -1774.7494
  45711156.93743  35723935.37545  25439755.3994   25439762.7754
     -6142.9814
   9305709.90846   7291355.03346  23559769.0654   23559773.8864
     -3706.7274
  -1921273.53546    -55814.06746  23729085.7534   23729090.6554
       764.1094
  -5410466.34246  -4115118.50146  22240749.7524   22240754.2934
       756.1554
   1962760.68046   2987534.34146  23122580.5814   23122585.5654
     -2263.2334
   9323454.49148   7374013.55247  21264961.8964   21264965.6874
     -4058.2524
  -2145273.07647  -1606158.06546  22509125.7534   22509127.0574
     -1278.2754
  15847672.73745  12438820.91045  23612065.0734   23612068.2594
     -4814.2704
 06  5  8  0 15  0.0010000  0  9G30G 9G 4G25G 6G 1G 5G 2G14
  -4358283.40848  -3313544.10547  20306348.4884   20306351.4044
     -1783.0544
  45803303.98544  35795738.27545  25457290.4354   25457297.1084
     -6143.2164
   9361379.76146   7334734.14246  23570362.6984   23570366.7734
     -3715.8744
  -1932698.59346    -64716.71246  23726911.6534   23726916.0124
       759.2984
  -5421767.17846  -4123924.34346  22238599.2684   22238603.6734
       750.6834
   1996785.84846   3014047.45246  23129055.3574   23129059.6504
     -2273.3934
   9384376.98648   7421485.62847  21276555.0694   21276558.6794
     -4064.6704
  -2126019.67447  -1591155.41046  22512789.5544   22512790.7924
     -1288.7784
  15919933.30045  12495127.82345  23625815.8074   23625820.8214
     -4820.4164
 06  5  8  0 15 15.0010000  0  8G30G 4G25G 6G 1G 5G 2G14
  -4331475.01648  -3292654.44947  20311449.9514   20311453.2244
     -1791.3064
   9417186.36646   7378219.79846  23580982.3684   23580986.8714
     -3724.9284
  -1944051.88646    -73563.43646  23724751.2044   23724754.9154
       754.5564
  -5432986.41846  -4132666.58846  22236464.3054   22236468.7494
       745.2814
   2030962.69246   3040678.75946  23135559.0124   23135563.4844
     -2283.4394
   9445395.00948   7469032.13747  21288166.4204   21288170.1454
     -4070.9774
  -2106609.34947  -1576030.47046  22516483.2204   22516484.6944
     -1299.1784
  15992285.55245  12551506.19145  23639583.9654   23639587.0714
     -4826.4624
 06  5  8  0 15 30.0010000  0  8G30G 4G25G 6G 1G 5G 2G14
  -4304543.40548  -3271668.77647  20316574.8554   20316578.1564
     -1799.5324
   9473128.07746   7421810.72546  23591627.7464   23591632.3914
     -3733.9424
  -1955334.34646    -82354.95346  23722604.2234   23722608.2384
       749.8164
  -5444125.16446  -4141346.12146  22234344.6584   22234349.3574
       739.9024
   2065289.95146   3067427.26546  23142091.2904   23142095.9424
     -2293.4834
   9506507.15248   7516651.98947  21299795.6704   21299799.2944
     -4077.2624
  -2087043.33447  -1560784.22446  22520206.5064   22520207.9144
     -1309.5884
  16064727.92845  12607954.76945  23653369.2884   23653373.7334
     -4832.4624
 06  5  8  0 15 45.0010000  0  8G30G 4G25G 6G 1G 5G 2G14
  -4277487.61848  -3250586.34847  20321723.3994   20321726.8484
     -1807.9484
   9529205.98446   7465507.79446  23602299.0274   23602302.6504
     -3743.1414
  -1966544.45746    -91090.09046  23720471.0144   23720475.5534
       744.8404
  -5455181.96346  -4149961.79546  22232240.6034   22232245.0074
       734.3124
   2099768.78946   3094293.89146  23148652.4024   23148657.4564
     -2303.7214
   9567714.56148   7564346.06547  21311443.0474   21311446.8524
     -4083.7504
  -2067320.20547  -1545415.54546  22523959.6784   22523961.4554
     -1320.1954
  16137261.14145  12664474.13445  23667171.9224   23667175.8994
     -4838.6544
 06  5  8  0 16  0.0010000  0  8G30G 4G25G 6G 1G 5G 2G14
  -4250306.76848  -3229406.46347  20326895.7404   20326899.0724
     -1816.1794
   9585420.64946   7509311.43546  23612996.3314   23613000.4574
     -3752.1534
  -1977681.26146    -99768.10846  23718351.7494   23718356.1964
       740.0594
  -5466155.89646  -4158512.89846  22230152.3144   22230156.6484
       728.8894
   2134399.83846   3121279.13646  23155242.4844   23155247.1104
     -2313.7574
   9629017.77248   7612114.79647  21323108.6604   21323112.6214
     -4090.0234
  -2047439.09147  -1529923.76146  22527742.9014   22527744.7314
     -1330.6294
  16209885.71445  12721064.68945  23680991.9334   23680995.2714
     -4844.6184
 06  5  8  0 16 15.0010000  0  8G30G 4G25G 6G 1G 5G 2G14
  -4223001.55648  -3208129.67747  20332091.7454   20332094.8184
     -1824.5424
   9641770.83546   7553220.64946  23623719.4234   23623723.3624
     -3761.2584
  -1988745.35246   -108389.47646  23716246.3394   23716249.9994
       735.1374
  -5477047.71146  -4167000.02146  22228079.6424   22228083.8314
       723.3354
   2169182.25246   3148382.30746  23161861.3524   23161865.4534
     -2323.9244
   9690415.76748   7659957.37947  21334792.3114   21334796.0304
     -4096.4154
  -2027400.79647  -1514309.50546  22531556.0424   22531557.7334
     -1341.1774
  16282600.35145  12777725.44245  23694829.0794   23694832.2274
     -4850.6804
 06  5  8  0 16 30.0010000  0  8G30G 4G25G 6G 1G 5G 2G14
  -4195571.91148  -3186755.92547  20337311.4354   20337314.4134
     -1832.8554
   9698256.54746   7597235.49846  23634468.3244   23634472.1334
     -3770.2784
  -1999736.21546   -116953.76946  23714154.8604   23714158.4984
       730.2234
  -5487857.07147  -4175422.88646  22226022.6794   22226026.5994
       717.8114
   2204116.10146   3175603.50646  23168509.0394   23168512.9864
     -2334.0394
   9751908.57948   7707873.85447  21346494.0074   21346497.6224
     -4102.7314
  -2007204.97747  -1498572.50846  22535399.1744   22535400.7314
     -1351.7044
  16355404.91745  12834456.26145  23708683.3414   23708686.0144
     -4856.6784
 06  5  8  0 16 45.0010000  0  8G30G 4G25G 6G 1G 5G 2G14
  -4168017.11248  -3165284.65047  20342554.9404   20342558.1764
     -1841.1644
   9754878.33346   7641356.35246  23645243.0934   23645246.9314
     -3779.3174
  -2010652.92746   -125460.28346  23712077.4964   23712081.8034
       725.3074
  -5498583.01046  -4183780.75746  22223981.5954   22223985.9194
       712.2814
   2239202.03546   3202943.19046  23175185.6654   23175189.3774
     -2344.1264
   9813496.74348   7755864.62947  21358213.8434   21358217.3434
     -4109.0484
  -1986850.79047  -1482712.10046  22539272.4464   22539273.7384
     -1362.2214
  16428299.75845  12891257.42045  23722554.7844   23722558.8314
     -4862.6474
 06  5  8  0 17  0.0010000  0  8G30G 4G25G 6G 1G 5G 2G14
  -4140337.92548  -3143716.45147  20347822.1174   20347825.1354
     -1849.3564
   9811634.85246   7685582.20146  23656043.5214   23656047.7394
     -3788.2174
  -2021496.18646   -133909.55946  23710014.1134   23710018.5404
       720.4964
  -5509226.29646  -4192074.22146  22221956.2384   22221960.4394
       706.8474
   2274439.01346   3230400.57946  23181891.0484   23181894.7834
     -2354.1034
   9875179.12348   7803928.82247  21369951.6024   21369955.1184
     -4115.2364
  -1966339.14347  -1466728.98446  22543175.6724   22543176.9754
     -1372.6374
  16501283.27845  12948127.71145  23736443.1164   23736446.0294
     -4868.4624
 06  5  8  0 17 15.0010000  0  8G30G 4G25G 6G 1G 5G 2G14
  -4112534.80848  -3122051.68347  20353112.8734   20353115.7714
     -1857.6694
   9868525.58146   7729912.64146  23666869.4884   23666873.7214
     -3797.1744
  -2032266.01746   -142301.64046  23707964.6874   23707968.3624
       715.5564
  -5519787.03446  -4200303.35546  22219946.5884   22219950.7934
       701.2934
   2309826.69846   3257975.40146  23188625.0984   23188629.2834
     -2364.1814
   9936955.27248   7852066.08047  21381707.1994   21381710.9854
     -4121.5174
  -1945670.22647  -1450623.33346  22547108.8264   22547110.6994
     -1383.1724
  16574354.90445  13005066.63145  23750348.2114   23750352.6504
     -4874.3474
 06  5  8  0 17 30.0010000  0  8G30G 4G25G 6G 1G 5G 2G14
  -4084607.20248  -3100289.90447  20358427.3124   20358430.0134
     -1866.0074
   9925550.88246   7774347.93146  23677721.0724   23677724.8824
     -3806.2114
  -2042961.81746   -150636.02046  23705929.3604   23705933.2454
       710.5464
  -5530264.71646  -4208467.77646  22217952.7394   22217957.1644
       695.7234
   2345365.36846   3285667.87246  23195387.8674   23195391.4054
     -2374.3134
   9998825.46448   7900276.62047  21393480.6904   21393484.8064
     -4127.8314
  -1924843.48147  -1434394.69246  22551072.0064   22551073.6144
     -1393.7404
  16647514.77645  13062074.30445  23764270.0834   23764273.0674
     -4880.2684
 06  5  8  0 17 45.0010000  0  8G30G 4G25G 6G 1G 5G 2G14
  -4056555.48948  -3078431.43147  20363765.3684   20363768.1674
     -1874.2134
   9982709.94046   7818887.44246  23688598.0824   23688602.3384
     -3815.0244
  -2053583.56746   -158912.69846  23703908.1154   23703912.0784
       705.6914
  -5540659.35047  -4216567.48646  22215974.7004   22215978.8884
       690.2514
   2381054.79946   3313477.82846  23202179.3104   23202183.1844
     -2384.2694
  10060789.25948   7948560.09047  21405271.9984   21405276.2704
     -4133.9874
  -1903859.12047  -1418043.23546  22555065.1894   22555066.8194
     -1404.1704
  16720762.26445  13119150.27345  23778208.6424   23778212.5244
     -4886.0234
 06  5  8  0 18  0.0010000  0  8G30G 4G25G 6G 1G 5G 2G14
  -4028378.52848  -3056475.35947  20369127.2574   20369130.0964
     -1882.5854
  10040003.73746   7863531.96146  23699500.7024   23699505.1794
     -3824.0054
  -2064129.90846   -167130.61546  23701901.2014   23701905.4054
       700.6334
  -5550969.82847  -4224601.61446  22214012.6674   22214016.5884
       684.6174
   2416895.85846   3341405.92146  23208999.6304   23209004.2504
     -2394.3984
  10122847.48948   7996917.14347  21417081.2714   21417085.2604
     -4140.3044
  -1882716.10647  -1401568.15946  22559088.5654   22559090.2464
     -1414.7684
  16794097.90945  13176294.90845  23792163.9404   23792167.1444
     -4891.9104
 06  5  8  0 18 15.0010000  0  8G30G 4G25G 6G 1G 5G 2G14
  -4000077.35848  -3034422.49847  20374512.7864   20374515.6454
     -1890.9174
  10097430.81446   7908280.30546  23710428.7184   23710432.8704
     -3832.9834
  -2074601.70746   -175290.45246  23699908.4684   23699912.0224
       695.5664
  -5561196.97347  -4232570.80646  22212066.4974   22212070.6234
       678.9544
   2452887.41146   3369451.29146  23215848.6024   23215852.8254
     -2404.5074
  10184998.90148   8045346.81447  21428908.2774   21428912.2844
     -4146.5944
  -1861415.23247  -1384970.07846  22563141.9804   22563143.4034
     -1425.3814
  16867520.25945  13233507.10045  23806135.7994   23806139.8594
     -4897.7644
 06  5  8  0 18 30.0010000  0  8G30G 4G25G 6G 1G 5G 2G14
  -3971652.96148  -3012273.61847  20379921.7644   20379924.6424
     -1899.1064
  10154990.32746   7953131.85045  23721381.9184   23721386.3774
     -3841.7334
  -2084999.37246   -183392.52546  23697929.8554   23697934.6414
       690.6714
  -5571341.35147  -4240475.50346  22210136.0794   22210140.2544
       673.5014
   2489028.62846   3397613.28046  23222726.0594   23222730.2714
     -2414.4334
  10247242.67948   8093848.44847  21440752.8644   21440756.8164
     -4152.6854
  -1839957.22447  -1368249.54946  22567225.2864   22567226.7674
     -1435.8084
  16941028.33845  13290786.13045  23820123.9464   23820127.2934
     -4903.4324
 06  5  8  0 18 45.0010000  0  8G30G 4G25G 6G 1G 5G 2G14
  -3943102.81948  -2990026.75047  20385354.6744   20385357.7434
     -1907.4294
  10212684.29946   7998088.18945  23732360.7094   23732366.2524
     -3850.6274
  -2095320.52846   -191434.97346  23695965.7964   23695969.6194
       685.6304
  -5581400.56647  -4248313.84246  22208221.8534   22208225.8094
       667.8854
   2525321.59646   3425893.52046  23229632.3794   23229636.4124
     -2424.4754
  10309580.76948   8142423.57847  21452615.4094   21452619.5154
     -4158.9014
  -1818339.61747  -1351404.65946  22571338.9694   22571341.4294
     -1446.3814
  17014623.78345  13348133.22445  23834128.6834   23834131.6284
     -4909.1374
 06  5  8  0 19  0.0010000  0  8G30G 4G25G 6G 1G 5G 2G14
  -3914427.84348  -2967682.61747  20390811.3354   20390814.3394
     -1915.7694
  10270511.45445   8043148.31345  23743364.8344   23743370.2924
     -3859.5474
  -2105565.67046   -199418.20146  23694016.1854   23694019.9084
       680.5124
  -5591375.27147  -4256086.33946  22206323.7144   22206327.9574
       662.2084
   2561765.49046   3454291.36246  23236567.4284   23236571.8764
     -2434.5644
  10372012.30848   8191071.51547  21464495.7394   21464499.6764
     -4165.1654
  -1796563.34047  -1334436.13346  22575482.8534   22575485.2944
     -1456.9974
  17088305.52945  13405547.54945  23848149.8384   23848154.0174
     -4914.9234
 06  5  8  0 19 15.0010000  0  8G30G 4G25G 6G 1G 5G 2G14
  -3885630.36948  -2945243.02247  20396291.3044   20396294.1814
     -1923.9894
  10328469.27045   8088310.25345  23754393.8364   23754399.2084
     -3868.2714
  -2115736.82846   -207343.76846  23692080.6664   23692084.4024
       675.5504
  -5601267.53646  -4263794.58946  22204441.2694   22204445.4264
       656.6664
   2598357.89146   3482804.92046  23243530.7224   23243534.8054
     -2444.5104
  10434534.76848   8239790.31247  21476393.3754   21476397.0584
     -4171.2634
  -1774630.65947  -1317345.72646  22579656.5144   22579658.4674
     -1467.4594
  17162070.79345  13463026.96945  23862186.8734   23862190.5634
     -4920.5224
 06  5  8  0 19 30.0010000  0  8G30G 4G25G 6G 1G 5G 2G14
  -3856708.76748  -2922706.71047  20401794.8884   20401797.8374
     -1932.1444
  10386558.98145   8133574.96245  23765447.9114   23765453.7334
     -3876.9314
  -2125832.29846   -215210.36446  23690159.5354   23690163.7824
       670.6064
  -5611075.76446  -4271437.35146  22202574.8214   22202579.1264
       651.1564
   2635100.24946   3511435.33046  23250522.5524   23250526.2674
     -2454.3944
  10497149.50748   8288581.02747  21488308.5684   21488312.2834
     -4177.2954
  -1752540.01247  -1300132.22646  22583860.2454   22583861.8764
     -1477.8884
  17235920.74645  13520572.37245  23876240.0804   23876243.7924
     -4926.0454
 06  5  8  0 19 45.0010000  0  8G30G 4G25G 6G 1G 5G 2G14
  -3827663.97948  -2900074.40447  20407321.9184   20407324.7704
     -1940.4294
  10444779.61745   8178941.65245  23776526.9284   23776532.2924
     -3885.7684
  -2135852.67746   -223018.43746  23688252.6894   23688256.9914
       665.5044
  -5620800.68546  -4279015.19646  22200724.2064   22200728.7484
       645.5574
   2671991.54046   3540181.79646  23257542.7274   23257546.9574
     -2464.3864
  10559855.42248   8337442.77647  21500241.1054   21500245.0494
     -4183.4344
  -1730292.09347  -1282796.17646  22588093.9344   22588095.4144
     -1488.4384
  17309854.08845  13578182.77745  23890309.1284   23890312.1864
     -4931.6634
 06  5  8  0 20  0.0010000  0  8G30G 4G25G 6G 1G 5G 2G14
  -3798496.14648  -2877346.22147  20412872.3714   20412875.4844
     -1948.6324
  10503130.68146   8224410.01646  23787630.7634   23787636.1214
     -3894.3904
  -2145797.83546   -230767.91246  23686360.1734   23686364.3264
       660.4834
  -5630442.26446  -4286528.10246  22198889.4574   22198893.5554
       639.9834
   2709031.49446   3569044.09646  23264591.1884   23264595.5394
     -2474.2824
  10622652.21048   8386375.33547  21512190.9314   21512194.8804
     -4189.4784
  -1707886.97247  -1265337.64146  22592357.5124   22592358.8494
     -1498.9274
  17383870.30245  13635857.75745  23904393.9374   23904397.3704
     -4937.1704
 06  5  8  0 20 15.0010000  0  8G30G 4G25G 6G 1G 5G 2G14
  -3769204.87348  -2854521.85147  20418446.3054   20418449.7844
     -1956.8954
  10561612.24646   8269980.05546  23798759.4454   23798764.0094
     -3903.1264
  -2155667.12846   -238458.25246  23684482.0864   23684486.0884
       655.3934
  -5639999.90647  -4293975.60046  22197070.6844   22197074.5404
       634.3654
   2746220.56846   3598022.60846  23271668.0254   23271672.2224
     -2484.2604
  10685540.18648   8435378.94847  21524158.1204   21524162.3444
     -4195.5864
  -1685323.99447  -1247756.09346  22596651.1184   22596652.4474
     -1509.4864
  17457969.50445  13693597.35645  23918494.5534   23918496.8654
     -4942.7414
 06  5  8  0 20 30.0010000  0  8G30G 4G25G 6G 1G 5G 2G14
  -3739789.01748  -2831600.40247  20424043.9504   20424047.4854
     -1965.1684
  10620225.13546   8315652.43946  23809913.1014   23809917.5564
     -3911.8474
  -2165459.29046   -246088.50446  23682618.6954   23682622.4184
       650.2844
  -5649472.36447  -4301356.71746  22195268.1194   22195272.4554
       628.7034
   2783559.59746   3627117.94246  23278773.4104   23278778.6664
     -2494.2134
  10748520.11248   8484454.21447  21536142.8044   21536147.0674
     -4201.6824
  -1662602.20047  -1230050.79346  22600974.9364   22600976.2874
     -1520.0344
  17532152.17145  13751402.02145  23932611.0134   23932613.5024
     -4948.2434
 06  5  8  0 20 45.0010000  0  8G30G 4G25G 6G 1G 5G 2G14
  -3710249.97748  -2808582.96747  20429665.0314   20429668.2624
     -1973.3744
  10678967.82346   8361425.95046  23821091.4984   23821096.0154
     -3920.4804
  -2175175.27646   -253659.40646  23680769.8094   23680774.1694
       645.1994
  -5658860.81947  -4308672.38746  22193481.5484   22193485.5784
       623.0994
   2821047.19746   3656329.06246  23285907.0554   23285911.4274
     -2504.1234
  10811590.60648   8533600.04947  21548144.7194   21548148.8054
     -4207.7104
  -1639722.78847  -1212222.67846  22605328.7324   22605329.9214
     -1530.5464
  17606416.72745  13809270.49245  23946743.0994   23946746.5214
     -4953.6924
 06  5  8  0 21  0.0010000  0  8G30G 4G25G 6G 1G 5G 2G14
  -3680588.62548  -2785470.22547  20435309.3944   20435312.4984
     -1981.4664
  10737839.14146   8407299.70446  23832294.3544   23832298.6114
     -3929.0014
  -2184815.73246   -261171.45046  23678935.2934   23678939.1184
       640.2134
  -5668165.94147  -4315923.11746  22191710.8254   22191714.2684
       617.6034
   2858682.39146   3685655.19046  23293068.7814   23293072.3894
     -2513.8934
  10874750.52848   8582815.56647  21560163.6474   21560167.8444
     -4213.5974
  -1616686.60047  -1194272.38946  22609712.3464   22609714.2014
     -1540.9344
  17680761.81245  13867201.73045  23960890.5214   23960893.4944
     -4958.9624
 06  5  8  0 21 15.0010000  0  8G30G 4G25G 6G 1G 5G 2G14
  -3650803.93948  -2762261.37747  20440977.2294   20440980.1504
     -1989.7174
  10796839.70646   8453274.17046  23843521.8024   23843526.6984
     -3937.6384
  -2194379.51246   -268623.73346  23677115.3474   23677118.9834
       635.0554
  -5677386.41147  -4323107.89146  22189956.2134   22189959.7034
       611.9164
   2896465.98746   3715096.96246  23300258.7644   23300263.5054
     -2523.8164
  10938000.69448   8632101.40447  21572199.7624   21572203.9104
     -4219.6274
  -1593492.65747  -1176199.19146  22614125.9874   22614127.6244
     -1551.4774
  17755187.95345  13925196.12645  23975053.3434   23975057.5564
     -4964.3884
 06  5  8  0 21 30.0010000  0  8G30G 4G25G 6G 1G 5G 2G14
  -3620895.79848  -2738956.33247  20446668.5604   20446671.6344
     -1997.9564
  10855969.53046   8499349.32946  23854773.8504   23854779.0244
     -3946.2474
  -2203866.09246   -276015.86646  23675310.0804   23675314.2894
       629.8744
  -5686522.34447  -4330226.79146  22188217.6954   22188221.2304
       606.2424
   2934398.11946   3744654.45346  23307477.0164   23307481.4304
     -2533.7334
  11001341.13548   8681457.58947  21584253.0404   21584256.6654
     -4225.6844
  -1570140.69547  -1158002.84946  22618569.6904   22618571.4734
     -1562.0544
  17829694.99945  13983253.55145  23989231.5624   23989235.6644
     -4969.8084
 06  5  8  0 21 45.0010000  0  8G30G 4G25G 6G 1G 5G 2G14
  -3590863.64848  -2715554.66147  20452383.4944   20452386.7074
     -2006.2644
  10915228.99246   8545525.55146  23866050.5394   23866054.9834
     -3954.8924
  -2213274.66946   -283347.21146  23673519.6514   23673523.8134
       624.6684
  -5695572.61047  -4337278.94046  22186495.4724   22186499.4774
       600.5564
   2972479.29146   3774328.10946  23314723.6324   23314727.4984
     -2543.6834
  11064772.28848   8730884.45447  21596323.5924   21596327.3954
     -4231.7334
  -1546629.97647  -1139682.81146  22623043.6094   22623045.5364
     -1572.6394
  17904283.14045  14041374.15745  24003425.2234   24003428.8184
     -4975.1864
 06  5  8  0 22  0.0010000  0  8G30G 4G25G 6G 1G 5G 2G14
  -3560708.31348  -2692056.99647  20458121.8644   20458125.0114
     -2014.4854
  10974616.74146   8591801.67946  23877351.6404   23877355.7334
     -3963.4714
  -2222605.97846   -290618.34346  23671743.9334   23671747.5604
       619.4834
  -5704538.20347  -4344265.10246  22184789.3674   22184793.3804
       594.8334
   3010708.33546   3804116.97746  23321998.3984   23322002.1764
     -2553.5484
  11128293.01348   8780381.11447  21608411.1784   21608415.1274
     -4237.7114
  -1522961.50347  -1121239.84246  22627547.5664   22627549.1494
     -1583.1764
  17978951.05445  14099556.96845  24017634.0324   24017638.0754
     -4980.5274
 06  5  8  0 22 15.0010000  0  8G30G 4G25G 6G 1G 5G 2G14
  -3530429.62848  -2668463.20747  20463883.7014   20463886.9334
     -2022.7174
  11034132.69946   8638177.74546  23888677.1454   23888681.5674
     -3971.9934
  -2231859.47746   -297828.87346  23669983.0294   23669986.4964
       614.2714
  -5713418.58547  -4351184.87146  22183099.4814   22183102.8714
       589.1784
   3049085.44046   3834021.22146  23329301.3374   23329304.6464
     -2563.4244
  11191903.40748   8829947.65547  21620515.8234   21620520.0904
     -4243.6944
  -1499134.83047  -1102673.60546  22632081.6254   22632083.0924
     -1593.7374
  18053698.55445  14157801.75345  24031858.0424   24031862.3764
     -4985.8334
 06  5  8  0 22 30.0010000  0  8G30G 4G25G 6G 1G 5G 2G14
  -3500027.27648  -2644773.06947  20469669.0724   20469672.4534
     -2030.9904
  11093777.05646   8684653.84846  23900027.1014   23900031.3074
     -3980.6014
  -2241034.64246   -304978.33746  23668237.0404   23668240.6804
       609.0264
  -5722213.36447  -4358037.93546  22181425.8924   22181429.6624
       583.4364
   3087610.77146   3864040.96246  23336632.4844   23336635.8374
     -2573.3314
  11255603.53548   8879584.11647  21632637.5534   21632641.6304
     -4249.7124
  -1475149.62847  -1083983.83446  22636645.8624   22636647.0834
     -1604.3414
  18128525.67345  14216108.57645  24046097.1904   24046102.6304
     -4991.1504
 06  5  8  0 22 45.0010000  0  8G30G 4G25G 6G 1G 5G 2G14
  -3469501.43448  -2620986.69347  20475477.9354   20475481.4624
     -2039.1224
  11153549.34846   8731229.64845  23911401.3814   23911406.6834
     -3989.0404
  -2250131.32046   -312066.64246  23666505.9934   23666509.6804
       603.8514
  -5730922.56547  -4364824.31346  22179768.5854   22179772.4624
       577.7804
   3126284.05146   3894175.98746  23343991.7704   23343995.9324
     -2583.1224
  11319393.12148   8929290.28047  21644776.3084   21644779.9614
     -4255.5934
  -1451005.97047  -1065170.58946  22641240.2634   22641241.6634
     -1614.8334
  18203431.89245  14274477.04645  24060351.3794   24060355.2464
     -4996.3354
 06  5  8  0 23  0.0010000  0  8G30G 4G25G 6G 1G 5G 2G14
  -3438853.20948  -2597104.96447  20481310.0924   20481313.7974
     -2047.3534
  11213448.26645   8777904.10845  23922799.7764   23922805.0334
     -3997.5254
  -2259150.23946   -319094.36946  23664789.7354   23664793.4024
       598.6164
  -5739546.92447  -4371544.58846  22178127.4214   22178131.4294
       572.0694
   3165104.21946   3924425.46346  23351379.0124   23351382.9764
     -2592.9554
  11383270.95148   8979065.21147  21656931.8564   21656935.6804
     -4261.4994
  -1426704.79447  -1046234.60946  22645864.6364   22645865.6264
     -1625.3844
  18278415.62045  14332905.93945  24074620.3424   24074625.0704
     -5001.5274
 06  5  8  0 23 15.0010000  0  8G30G 4G25G 6G 1G 5G 2G14
  -3408081.40548  -2573126.93947  20487165.7684   20487169.1344
     -2055.5674
  11273474.63446   8824677.90146  23934222.4514   23934227.3154
     -4006.0144
  -2268090.15546   -326060.52946  23663088.5024   23663092.3134
       593.3644
  -5748085.28147  -4378197.83646  22176502.6294   22176506.7954
       566.3734
   3204072.18146   3954790.13346  23358794.3474   23358798.1704
     -2602.7734
  11447237.89448   9028909.57647  21669104.3644   21669108.1054
     -4267.4164
  -1402245.02947  -1027175.04446  22650519.1774   22650520.5094
     -1635.9294
  18353477.48945  14391395.67045  24088904.1454   24088908.6824
     -5006.7084
 06  5  8  0 23 30.0010000  0  8G30G 4G25G 6G 1G 5G 2G14
  -3377187.15048  -2549053.48747  20493044.7424   20493047.8334
     -2063.6764
  11333626.95546   8871549.82846  23945669.0914   23945673.3054
     -4014.3354
  -2276952.02846   -332965.86746  23661402.1214   23661406.1694
       588.2094
  -5756538.60447  -4384784.83746  22174894.0154   22174898.2744
       560.7434
   3243186.71446   3985268.98546  23366237.5674   23366242.5704
     -2612.4844
  11511292.65648   9078822.37347  21681293.5874   21681297.3934
     -4273.2074
  -1377627.74747  -1007992.75346  22655203.7084   22655205.1614
     -1646.3664
  18428616.05245  14449945.19445  24103202.5584   24103205.8164
     -5011.7514
 06  5  8  0 23 45.0010000  0  8G30G 4G25G 6G 1G 5G 2G14
  -3346170.65748  -2524884.79547  20498946.9844   20498949.9294
     -2071.9164
  11393904.91046   8918519.66846  23957139.6074   23957144.0524
     -4022.8024
  -2285735.62246   -339810.21046  23659730.6264   23659734.1624
       582.8864
  -5764906.91247  -4391305.58746  22173301.5664   22173305.7964
       554.9634
   3282447.55946   4015861.84046  23373708.6364   23373712.3794
     -2622.3434
  11575434.95648   9128803.38547  21693499.4674   21693503.0854
     -4279.1454
  -1352853.08147   -988687.81746  22659918.1904   22659919.9894
     -1656.9694
  18503830.81645  14508554.07445  24117515.5134   24117519.6554
     -5016.9314
 06  5  8  0 24  0.0010000  0  8G30G 4G25G 6G 1G 5G 2G14
  -3315030.46948  -2500619.70547  20504872.7694   20504875.5694
     -2080.1214
  11454309.63146   8965588.26546  23968634.2544   23968639.0324
     -4031.1884
  -2294439.20346   -346592.21746  23658074.3774   23658078.3694
       577.5704
  -5773188.39847  -4397758.67946  22171725.6474   22171730.2434
       549.2234
   3321856.07646   4046569.78446  23381207.7684   23381212.0634
     -2632.1434
  11639666.10848   9178853.62747  21705722.2664   21705726.0904
     -4285.0104
  -1327919.36247   -969258.94546  22664662.9424   22664664.3654
     -1667.5334
  18579122.92545  14567223.25645  24131843.1264   24131845.7434
     -5022.0304
 06  5  8  0 24 15.0010000  0  8G30G 4G25G 6G 1G 5G 2G14
  -3283766.13948  -2476257.88947  20510822.1734   20510824.9834
     -2088.3334
  11514841.15346   9012755.67145  23980153.0384   23980158.5504
     -4039.5974
  -2303062.15846   -353311.40846  23656433.4874   23656437.8024
       572.2444
  -5781382.65247  -4404143.79546  22170166.3234   22170170.2664
       543.4454
   3361412.42446   4077392.91046  23388735.0594   23388739.7034
     -2641.9564
  11703986.18348   9228973.16747  21717961.9804   21717965.6704
     -4290.8994
  -1302826.39647   -949705.97946  22669437.9934   22669439.3974
     -1678.1054
  18654492.16145  14625952.51745  24146185.4384   24146188.2954
     -5027.0944
 06  5  8  0 24 30.0010000  0  8G30G 4G25G 6G 1G 5G 2G14
  -3252379.69048  -2451800.92047  20516794.8234   20516797.8974
     -2096.4854
  11575497.53846   9060020.41245  23991695.5684   23991700.7364
     -4047.8974
  -2311606.19446   -359969.10046  23654807.6134   23654811.2614
       566.9844
  -5789491.45447  -4410462.33846  22168623.2514   22168627.3284
       537.7684
   3401114.74446   4108329.76746  23396290.1484   23396295.0544
     -2651.6654
  11768393.32748   9279160.54547  21730218.2574   21730221.6334
     -4296.6944
  -1277575.80547   -930030.18746  22674243.0274   22674244.7884
     -1688.6014
  18729936.48945  14684740.30445  24160542.0324   24160545.7314
     -5032.0934
 06  5  8  0 24 45.0010000  0  8G30G 4G25G 6G 1G 5G 2G14
  -3220870.13948  -2427248.01847  20522790.8904   20522794.1054
     -2104.8484
  11636279.14046   9107382.67845  24003261.9174   24003267.5404
     -4056.3904
  -2320070.04746   -366564.30046  23653197.0024   23653200.5444
       561.4804
  -5797513.75047  -4416713.47846  22167096.6494   22167100.8624
       531.8134
   3440963.68946   4139380.89446  23403873.1514   23403878.7424
     -2661.5874
  11832888.11548   9329416.22547  21742491.2164   21742494.7894
     -4302.6834
  -1252166.77847   -910230.93946  22679078.1924   22679079.9124
     -1699.3264
  18805456.17745  14743586.76345  24174912.9484   24174917.3064
     -5037.2454
 06  5  8  0 25  0.0010000  0  8G30G 4G25G 6G 1G 5G 2G14
  -3189237.33848  -2402599.08347  20528810.4174   20528813.8104
     -2112.9004
  11697186.04446   9154842.59346  24014852.1594   24014856.3314
     -4064.5754
  -2328453.39446   -373096.76646  23651601.7084   23651605.5154
       556.2754
  -5805449.10247  -4422896.85046  22165586.5824   22165590.7644
       526.1904
   3480959.33846   4170546.33546  23411484.0894   23411488.7724
     -2671.1944
  11897470.56448   9379740.21047  21754780.8574   21754784.4534
     -4308.3404
  -1226599.02447   -890308.01546  22683943.5524   22683944.7444
     -1709.7434
  18881050.95445  14802491.81345  24189298.1714   24189302.1174
     -5042.0814
 06  5  8  0 25 15.0020000  0  8G30G 4G25G 6G 1G 5G 2G14
  -3157479.22348  -2377852.49547  20534853.7824   20534856.9884
     -2121.2044
  11758221.72746   9202402.87246  24026466.9064   24026470.9354
     -4072.9834
  -2336756.60846   -379566.79446  23650021.6794   23650025.3484
       550.7754
  -5813298.04047  -4429012.89146  22164092.9684   22164097.3844
       520.2694
   3521104.09346   4201827.95946  23419123.4074   23419127.1624
     -2681.0604
  11962144.65148   9430135.60147  21767087.9324   21767091.2284
     -4314.2764
  -1200870.96447   -870260.16646  22688839.4064   22688840.5204
     -1720.4194
  18956725.48545  14861458.93845  24203698.5894   24203702.1684
     -5047.1514
 06  5  8  0 25 30.0020000  0  8G30G 4G25G 6G 1G 5G 2G14
  -3125599.64948  -2353011.26747  20540920.2504   20540923.1034
     -2129.4004
  11819378.66046   9250057.61345  24038104.7034   24038109.4054
     -4081.2414
  -2344977.60446   -385972.76046  23648457.2714   23648461.2654
       545.3844
  -5821058.65647  -4435060.10746  22162616.1664   22162620.4664
       514.4744
   3561393.19646   4233222.07346  23426790.2014   23426795.0504
     -2690.7944
  12026902.37348   9480596.16347  21779410.9174   21779414.2934
     -4320.0724
  -1174985.12747   -850089.39546  22693765.2964   22693766.6824
     -1731.0104
  19032469.95645  14920480.58245  24218112.2964   24218115.6134
     -5052.0874
 06  5  8  0 25 45.0020000  0  8G30G 4G25G 6G 1G 5G 2G14
  -3093596.21848  -2328073.53647  20547010.3014   20547013.0594
     -2137.7254
  11880660.43946   9297809.64846  24049766.2434   24049771.5704
     -4089.6504
  -2353116.86146   -392315.03446  23646908.4174   23646912.0404
       539.8624
  -5828731.38247  -4441038.85646  22161156.0924   22161160.5334
       508.5714
   3601829.09246   4264730.57146  23434484.9284   23434489.6004
     -2700.6524
  12091747.67248   9531124.96947  21791750.5644   21791754.0944
     -4325.9684
  -1148939.98447   -829794.48346  22698721.5214   22698723.2494
     -1741.6864
  19108288.93645  14979560.31545  24232540.1824   24232543.9534
     -5057.0744
 06  5  8  0 26  0.0020000  0  8G30G 4G25G 6G 1G 5G 2G14
  -3061468.70048  -2303039.10547  20553123.9624   20553126.9904
     -2145.8834
  11942067.14246   9345659.01046  24061451.5574   24061456.5724
     -4097.8374
  -2361173.66346   -398593.04646  23645375.2504   23645379.2794
       534.4624
  -5836315.68247  -4446948.70346  22159712.8414   22159717.7954
       502.7664
   3642412.09346   4296353.69346  23442207.6464   23442211.7184
     -2710.3404
  12156680.77048   9581722.18247  21804106.9314   21804110.6594
     -4331.7104
  -1122735.14547   -809375.12746  22703708.1474   22703709.4824
     -1752.2334
  19184182.31245  15038697.98345  24246982.2434   24246983.6794
     -5061.9524
 06  5  8  0 26 15.0020000  0  8G30G 4G25G 6G 1G 5G 2G14
  -3029219.26848  -2277909.67647  20559260.8264   20559264.3834
     -2154.0924
  12003596.60646   9393604.04645  24073160.2594   24073164.1274
     -4106.1154
  -2369149.72946   -404808.14746  23643857.4434   23643860.6094
       528.9834
  -5843813.40147  -4452791.07246  22158286.0774   22158290.8534
       496.8884
   3683140.14246   4328089.83346  23449957.9594   23449961.8324
     -2720.0864
  12221699.67048   9632386.25647  21816479.6284   21816483.4484
     -4337.4954
  -1096372.44347   -788832.74846  22708724.8124   22708726.2044
     -1762.8274
  19260147.94145  15097891.98045  24261438.0414   24261442.2524
     -5066.8294
 06  5  8  0 26 30.0020000  0  8G30G 4G25G 6G 1G 5G 2G14
  -2996845.97348  -2252683.73147  20565421.2544   20565424.7014
     -2162.3414
  12065250.29746   9441645.85646  24084892.5894   24084896.0204
     -4114.3864
  -2377042.96646   -410958.72846  23642355.4064   23642358.6104
       523.4774
  -5851222.52147  -4458564.40746  22156876.1654   22156880.9494
       491.0054
   3724014.81846   4359940.23946  23457736.1704   23457740.0794
     -2729.8474
  12286805.86648   9683118.35147  21828868.9374   21828872.8224
     -4343.3044
  -1069850.27347   -768166.12046  22713771.8204   22713773.3924
     -1773.4514
  19336187.08745  15157143.24445  24275907.7964   24275909.6044
     -5071.7024
 06  5  8  0 26 45.0020000  0  8G30G 4G25G 6G 1G 5G 2G14
  -2964348.87648  -2227361.31247  20571605.2434   20571608.6014
     -2170.6114
  12127027.60546   9489784.02245  24096648.4344   24096652.6064
     -4122.6144
  -2384853.48546   -417044.83746  23640869.1164   23640873.2834
       517.9314
  -5858543.28947  -4464268.89146  22155483.0574   22155487.3844
       485.0864
   3765035.71246   4391904.57346  23465542.2104   23465545.4824
     -2739.6074
  12351998.92248   9733918.13147  21841274.7744   21841278.7524
     -4349.1024
  -1043168.68447   -747375.26746  22718849.1734   22718850.3674
     -1784.0944
  19412299.09945  15216451.27645  24290391.4464   24290394.3664
     -5076.5524
 06  5  8  0 27  0.0020000  0  8G30G 4G25G 6G 1G 5G 2G14
  -2931728.93048  -2201943.17847  20577812.6184   20577815.4524
     -2178.7194
  12188927.40546   9538017.61545  24108427.5694   24108431.8894
     -4130.7434
  -2392581.95146   -423067.00746  23639398.4534   23639401.9914
       512.5164
  -5865776.38447  -4469905.04746  22154106.6294   22154110.7054
       479.2884
   3806201.72146   4423981.98646  23473375.8444   23473379.5274
     -2749.2194
  12417277.78648   9784784.77647  21853696.9394   21853701.0754
     -4354.7624
  -1016328.57047   -726460.89746  22723956.6824   22723957.9634
     -1794.6164
  19488482.53145  15275814.98445  24304888.6764   24304890.2744
     -5081.2654
 06  5  8  0 27 15.0020000  0  8G30G 4G25G 6G 1G 5G 2G14
  -2898986.34648  -2176429.48247  20584043.3294   20584046.2794
     -2186.9644
  12250949.49046   9586346.49246  24120229.9934   24120234.7714
     -4138.9054
  -2400227.78946   -429024.80646  23637943.5154   23637946.8354
       506.9334
  -5872921.33547  -4475472.52546  22152746.9804   22152751.0454
       473.3664
   3847512.93646   4456172.54246  23481237.0944   23481240.2694
     -2758.9484
  12482642.41948   9835718.25947  21866135.4184   21866139.3574
     -4360.5254
   -989329.68747   -705422.81046  22729094.3994   22729095.6764
     -1805.2524
  19564737.19845  15335234.16145  24319399.4654   24319402.6024
     -5086.0514
 06  5  8  0 27 30.0020000  0  8G30G 4G25G 6G 1G 5G 2G14
  -2866119.91048  -2150819.26847  20590297.6094   20590300.7374
     -2195.1624
  12313094.70846   9634771.34246  24132055.8484   24132059.7614
     -4147.0634
  -2407789.79946   -434917.27546  23636504.5144   23636508.1594
       501.3754
  -5879977.06547  -4480970.48746  22151404.3074   22151408.4654
       467.4444
   3888970.36146   4488477.03746  23489126.1664   23489129.4494
     -2768.6514
  12548093.82148   9886719.34847  21878590.4104   21878594.2804
     -4366.2564
   -962170.86247   -684260.08046  22734262.5424   22734264.2074
     -1815.8694
  19641063.86244  15394709.50745  24333923.9354   24333926.9634
     -5090.8004
 06  5  8  0 27 45.0020000  0  8G30G 4G25G 6G 1G 5G 2G14
  -2833129.68248  -2125112.58547  20596575.4354   20596578.7434
     -2203.4744
  12375362.82446   9683291.92546  24143905.0814   24143909.5544
     -4155.2944
  -2415267.76146   -440744.25546  23635081.5104   23635085.0854
       495.7174
  -5886943.49947  -4486398.86946  22150078.6364   22150082.6314
       461.4374
   3930573.70146   4520895.22046  23497042.9694   23497046.4624
     -2778.4154
  12613631.59548   9937787.73247  21891061.8344   21891065.8374
     -4372.0674
   -934852.24547   -662972.85246  22739461.0964   22739462.5314
     -1826.5734
  19717462.11544  15454240.58345  24348462.0394   24348465.1144
     -5095.6144
 06  5  8  0 28  0.0020000  0  8G30G 4G25G 6G 1G 5G 2G14
  -2800016.00448  -2099309.72047  20602876.7534   20602879.9994
     -2211.7294
  12437752.98046   9731907.63045  24155777.5484   24155783.7464
     -4163.4524
  -2422661.89946   -446505.91646  23633674.4674   23633678.1274
       490.1084
  -5893820.84847  -4491757.83046  22148769.9254   22148774.1084
       455.4654
   3972322.42446   4553426.69546  23504987.4504   23504991.7594
     -2788.1334
  12679255.14348   9988922.96747  21903549.5774   21903553.5334
     -4377.7994
   -907374.24147   -641561.41946  22744689.9774   22744691.0474
     -1837.2174
  19793931.13144  15513826.79545  24363013.5824   24363016.9834
     -5100.3294
 06  5  8  0 28 15.0020000  0  8G30G 4G25G 6G 1G 5G 2G14
  -2766779.41248  -2073411.07447  20609201.4674   20609204.3704
     -2219.9344
  12500264.66846   9780618.02146  24167673.1494   24167678.0104
     -4171.5334
  -2429972.24646   -452202.28046  23632283.3734   23632286.9524
       484.5004
  -5900609.31247  -4497047.52946  22147478.1314   22147481.8804
       449.5544
   4014216.04246   4586071.07146  23512959.4954   23512964.4354
     -2797.7864
  12744964.03648  10040124.69347  21916053.5664   21916057.5424
     -4383.4834
   -879737.15547   -620026.01846  22749949.1424   22749950.2724
     -1847.8284
  19870470.03945  15573467.49945  24377578.4894   24377582.9404
     -5104.9754
 06  5  8  0 28 30.0020000  0  8G30G 4G25G 6G 1G 5G 2G14
  -2733420.22448  -2047416.91347  20615549.5094   20615552.6204
     -2228.1064
  12562896.71946   9829422.20946  24179591.6244   24179596.3744
     -4179.5614
  -2437199.13246   -457833.61846  23630908.1684   23630911.5684
       478.9174
  -5907309.34547  -4502268.32446  22146203.1634   22146206.8194
       443.6364
   4056253.85546   4618827.80546  23520959.0014   23520964.0734
     -2807.4194
  12810757.47348  10091392.30147  21928573.6374   21928577.4634
     -4389.1344
   -851941.57447   -598367.12646  22755238.4614   22755239.9114
     -1858.4094
  19947077.89345  15633161.90645  24392156.4864   24392159.7084
     -5109.5574
 06  5  8  0 28 45.0020000  0  8G30G 4G25G 6G 1G 5G 2G14
  -2699936.56148  -2021325.74347  20621921.2474   20621924.9004
     -2236.3604
  12625651.36946   9878321.94246  24191533.4504   24191538.7544
     -4187.6834
  -2444339.99746   -463397.93646  23629549.3244   23629552.7704
       473.2354
  -5913918.44847  -4507418.26946  22144945.4904   22144949.1634
       437.6204
   4098437.94046   4651698.52846  23528986.3594   23528991.2254
     -2817.0974
  12876637.56248  10142727.42847  21941110.1984   21941114.4724
     -4394.8444
   -823985.20947   -576582.93946  22760558.3854   22760560.1254
     -1869.0674
  20023756.61845  15692911.56745  24406747.9744   24406750.8524
     -5114.2214
 06  5  8  0 29  0.0020000  0  8G30G 4G25G 6G 1G 5G 2G14
  -2666329.68348  -1995138.55947  20628316.4284   20628319.8664
     -2244.4164
  12688526.82646   9927315.79746  24203498.2504   24203502.1804
     -4195.5474
  -2451396.13146   -468896.21046  23628206.6004   23628210.4084
       467.7454
  -5920438.12047  -4512498.52846  22143704.8394   22143708.9794
       431.8114
   4140766.72046   4684681.98046  23537041.2744   23537046.3144
     -2826.5914
  12942602.64948  10194128.79347  21953662.9334   21953667.0644
     -4400.3514
   -795869.42647   -554674.53446  22765908.6504   22765910.1644
     -1879.5534
  20100504.26145  15752714.88545  24421352.5854   24421355.9484
     -5118.6454
 06  5  8  0 29 15.0020000  0  8G30G 4G25G 6G 1G 5G 2G14
  -2632601.35248  -1968856.73647  20634734.7144   20634737.7054
     -2252.5954
  12751521.06846   9976402.20846  24215485.6704   24215490.0844
     -4203.5564
  -2458368.99346   -474329.60046  23626879.7224   23626883.7174
       462.0834
  -5926869.63647  -4517510.09846  22142480.9674   22142484.8734
       425.8404
   4183238.40846   4717776.79546  23545123.3744   23545128.2124
     -2836.1934
  13008650.91948  10245594.97747  21966231.5034   21966235.6144
     -4405.9804
   -767595.85147   -532643.17246  22771288.9504   22771289.8574
     -1890.1444
  20177318.89444  15812570.43845  24435969.9124   24435974.5234
     -5123.2014
 06  5  8  0 29 30.0020000  0  8G30G 4G25G 6G 1G 5G 2G14
  -2598749.19148  -1942478.44147  20641176.5654   20641179.0404
     -2260.9144
  12814636.19446  10025582.83946  24227496.0834   24227500.9894
     -4211.6344
  -2465255.84946   -479695.97246  23625569.1954   23625572.9104
       456.2784
  -5933210.70347  -4522451.17846  22141274.3004   22141278.3774
       419.7424
   4225855.03746   4750984.56046  23553233.0854   23553237.5234
     -2845.9094
  13074784.41348  10297127.56447  21978816.2864   21978820.2284
     -4411.6984
   -739162.23347   -510487.09946  22776699.7014   22776700.9584
     -1900.8774
  20254202.32644  15872479.57045  24450600.3574   24450603.6094
     -5127.8204
 06  5  8  0 29 45.0020000  0  8G30G 4G25G 6G 1G 5G 2G14
  -2564773.01347  -1916003.50547  20647642.0244   20647644.6894
     -2269.2274
  12877872.11646  10074857.56346  24239529.4754   24239533.6044
     -4219.7434
  -2472056.29946   -484995.02746  23624275.1094   23624278.5324
       450.4684
  -5939460.81147  -4527321.38546  22140084.9444   22140089.0454
       413.6374
   4268616.79246   4784305.41546  23561370.3924   23561374.7364
     -2855.6274
  13141003.30148  10348726.68747  21991417.3064   21991421.3164
     -4417.4524
   -710568.39247   -488206.19246  22782140.9394   22782142.4814
     -1911.6074
  20331154.41645  15932442.23945  24465243.8864   24465246.8474
     -5132.4344
 06  5  8  0 30  0.0020000  0  8G30G 4G25G 6G 1G 5G 2G14
  -2530672.93248  -1889432.01447  20654131.0614   20654134.3164
     -2277.4004
  12941228.45846  10124226.12346  24251585.7994   24251590.1054
     -4227.6784
  -2478770.17646   -490226.62146  23622997.5104   23623001.3994
       444.7664
  -5945619.92147  -4532120.68146  22138912.9084   22138916.7664
       407.6234
   4311523.41246   4817739.14346  23569535.2624   23569539.3634
     -2865.1974
  13207307.31848  10400392.14547  22004034.5324   22004038.5204
     -4423.0234
   -681814.28447   -465800.39346  22787612.6584   22787614.7244
     -1922.2144
  20408174.62944  15992457.96745  24479900.3314   24479900.0774
     -5136.8644
 06  5  8  0 30 15.0020000  0  8G30G 4G25G 6G 1G 5G 2G14
  -2496450.08448  -1862764.86247  20660643.4674   20660647.4264
     -2285.7274
  13004703.85846  10173687.47246  24263664.7764   24263668.9214
     -4235.7454
  -2485398.28746   -495391.36846  23621736.2024   23621740.0584
       438.9074
  -5951689.02647  -4536849.84846  22137758.0004   22137762.0364
       401.4994
   4354573.67946   4851284.81246  23577727.4674   23577731.8264
     -2874.9064
  13273695.18647  10452122.94447  22016667.7204   22016672.1154
     -4428.7654
   -652900.88947   -443270.47046  22793114.6844   22793116.9454
     -1932.9744
  20485261.61644  16052525.73045  24494569.5244   24494571.6794
     -5141.4404
 06  5  8  0 30 30.0020000  0  8G30G 4G25G 6G 1G 5G 2G14
  -2462102.87048  -1836000.78347  20667179.5254   20667183.1514
     -2293.9794
  13068299.48546  10223242.49546  24275766.6114   24275771.9464
     -4243.7394
  -2491938.91446   -500487.94046  23620491.5614   23620495.1444
       433.1044
  -5957666.35047  -4541507.49946  22136620.5644   22136624.2274
       395.4254
   4397768.86946   4884943.40246  23585947.2484   23585950.7884
     -2884.5234
  13340168.21947  10503920.11047  22029317.1144   22029321.3614
     -4434.3754
   -623826.78047   -420615.32146  22798647.2964   22798649.4274
     -1943.6464
  20562416.35644  16112646.30645  24509251.5774   24509255.4144
     -5145.9204
 06  5  8  0 30 45.0020000  0  8G30G 4G25G 6G 1G 5G 2G14
  -2427631.67948  -1809140.12047  20673739.1724   20673742.1734
     -2302.1794
  13132014.59746  10272890.62646  24287891.2184   24287895.8694
     -4251.6464
  -2498392.10046   -505516.40646  23619263.5584   23619267.4124
       427.3094
  -5963552.23547  -4546093.89546  22135500.5074   22135504.2844
       389.3484
   4441108.53646   4918714.56946  23594194.4904   23594198.4014
     -2894.1154
  13406725.90048  10555783.22847  22041982.6244   22041987.1444
     -4439.9874
   -594592.26947   -397835.18646  22804210.4384   22804212.4444
     -1954.3094
  20639638.14144  16172819.08145  24523946.4314   24523949.8654
     -5150.3164
 06  5  8  0 31  0.0020000  0  8G30G 4G25G 6G 1G 5G 2G14
  -2393037.35348  -1782183.50847  20680322.2484   20680324.4414
     -2310.4284
  13195848.33246  10322631.17045  24300038.3884   24300042.6474
     -4259.5694
  -2504758.25046   -510477.02446  23618052.1274   23618055.6284
       421.4664
  -5969347.02447  -4550609.31246  22134397.7894   22134401.9374
       383.2454
   4484591.86846   4952597.69046  23602469.0814   23602473.4884
     -2903.7064
  13473367.41848  10607711.68747  22054664.0804   22054668.3224
     -4445.5894
   -565197.98847   -374930.54446  22809803.9884   22809805.2544
     -1964.9784
  20716925.90144  16233043.28245  24538653.8294   24538658.4954
     -5154.7444
 06  5  8  0 31 15.0020000  0  8G30G 4G25G 6G 1G 5G 2G14
  -2358319.21148  -1755130.42047  20686928.9014   20686931.6824
     -2318.6004
  13259801.05046  10372464.46446  24312208.1854   24312212.9624
     -4267.3844
  -2511036.59446   -515369.24346  23616857.3984   23616861.2684
       415.6944
  -5975050.08647  -4555053.24646  22133312.5204   22133316.7784
       377.2124
   4528219.28146   4986593.08246  23610771.0714   23610774.6604
     -2913.2284
  13540093.15748  10659705.77547  22067361.5664   22067365.8644
     -4451.1104
   -535643.44347   -351901.03346  22815428.0364   22815429.2894
     -1975.5734
  20794279.85944  16293319.08145  24553373.8004   24553379.4304
     -5159.0404
 06  5  8  0 31 30.0020000  0  8G30G 4G25G 6G 1G 5G 2G14
  -2323477.61148  -1727981.12047  20693559.0454   20693562.1984
     -2326.9594
  13323872.16546  10422389.98345  24324400.5264   24324405.4094
     -4275.3754
  -2517227.08546   -520192.99146  23615679.3874   23615683.1414
       409.7104
  -5980661.50747  -4559425.77046  22132244.6904   22132248.6104
       370.9744
   4571990.35246   5020700.40146  23619100.4064   23619104.3394
     -2922.9144
  13606902.69148  10711765.15047  22080074.9934   22080079.0284
     -4456.8194
   -505928.86847   -328746.81746  22821082.5344   22821083.9804
     -1986.3734
  20871699.31944  16353645.93745  24568106.2444   24568110.8324
     -5163.5314
 06  5  8  0 31 45.0020000  0  8G30G 4G25G 6G 1G 5G 2G14
  -2288511.19948  -1700734.55447  20700212.9314   20700216.3664
     -2335.2394
  13388062.55946  10472408.48145  24336615.5684   24336619.3044
     -4283.3254
  -2523328.27946   -524947.15946  23614518.3674   23614522.5164
       403.7694
  -5986179.92247  -4563725.83646  22131194.5684   22131198.9864
       364.7894
   4615906.02046   5054920.40346  23627457.2764   23627460.4254
     -2932.5234
  13673796.96748  10763890.55447  22092804.5454   22092808.8304
     -4462.4274
   -476053.10547   -305467.00546  22826767.7104   22826769.6244
     -1997.0864
  20949185.29644  16414024.63545  24582851.4044   24582852.5944
     -5167.9324
 06  5  8  0 32  0.0020000  0  8G30G 4G25G 6G 1G 5G 2G14
  -2253421.11548  -1673391.62447  20706890.3464   20706893.6324
     -2343.4114
  13452370.98746  10522518.94045  24348853.0844   24348857.2624
     -4291.1174
  -2529340.84146   -529632.26946  23613374.2044   23613378.1204
       397.9284
  -5991606.21247  -4567954.09546  22130161.9744   22130166.3434
       358.7264
   4659965.31546   5089252.33246  23635841.4594   23635845.3544
     -2942.0284
  13740774.99748  10816081.21647  22105550.0354   22105554.3954
     -4467.9384
   -446016.89547   -282062.16146  22832483.4094   22832485.0384
     -2007.7114
  21026736.21744  16474453.90845  24597608.8514   24597613.0604
     -5172.1564
 06  5  8  0 32 15.0020000  0  8G30G 4G25G 6G 1G 5G 2G14
  -2218207.09648  -1645952.13647  20713591.3504   20713594.1014
     -2351.7384
  13516797.41046  10572721.32945  24361113.0464   24361117.0694
     -4299.0534
  -2535264.41446   -534248.03146  23612246.9564   23612251.0374
       391.9114
  -5996940.00047  -4572110.29846  22129146.9714   22129150.9334
       352.4834
   4704168.17546   5123696.10446  23644252.9794   23644257.2314
     -2951.6604
  13807836.64748  10868337.04147  22118311.4394   22118315.3334
     -4473.5684
   -415820.19547   -258532.26846  22838229.6484   22838231.5584
     -2018.4764
  21104351.83443  16534933.58145  24612378.5754   24612380.2134
     -5176.5224
 06  5  8  0 32 30.0020000  0  8G30G 4G25G 6G 1G 5G 2G14
  -2182869.25548  -1618416.16047  20720315.9294   20720318.5264
     -2359.9844
  13581341.40146  10623015.35445  24373395.3714   24373400.0184
     -4306.8494
  -2541098.59546   -538794.13646  23611136.7234   23611140.8794
       385.9724
  -6002181.03347  -4576194.21646  22128149.6154   22128153.6104
       346.2984
   4748514.56646   5158251.74546  23652691.8214   23652696.0214
     -2961.1944
  13874981.88947  10920658.00347  22131088.7524   22131093.4624
     -4479.1284
   -385462.96347   -234877.28546  22844006.4424   22844008.1924
     -2029.1584
  21182031.76144  16595463.36645  24627160.5694   24627164.1964
     -5180.8034
 06  5  8  0 32 45.0020000  0  8G30G 4G25G 6G 1G 5G 2G14
  -2147408.38748  -1590784.31347  20727063.9194   20727066.6674
     -2368.2334
  13646001.87946  10673400.13145  24385699.8644   24385703.3814
     -4314.6514
  -2546844.05146   -543271.10546  23610043.3664   23610047.3294
       379.9944
  -6007329.99747  -4580206.38846  22127169.7814   22127173.6814
       340.1274
   4793003.41746   5192918.38746  23661157.7634   23661161.7714
     -2970.7434
  13942209.63948  10973043.25147  22143881.7704   22143886.0534
     -4484.6624
   -354946.00447   -211097.83946  22849813.6274   22849815.0424
     -2039.8604
  21259774.89944  16656042.44345  24641954.6084   24641959.6674
     -5185.0594
 06  5  8  0 33  0.0020000  0  8G30G 4G25G 6G 1G 5G 2G14
  -2111823.40648  -1563055.75947  20733835.5264   20733838.5564
     -2376.3924
  13710779.63746  10723876.29445  24398026.6884   24398031.1314
     -4322.3524
  -2552499.45846   -547677.92146  23608967.1584   23608971.2654
       374.0944
  -6012385.75047  -4584145.93046  22126207.6904   22126211.5954
       334.0024
   4837635.70846   5227696.79146  23669651.0404   23669655.5244
     -2980.1934
  14009520.84948  11025493.53647  22156690.6854   22156695.0454
     -4490.1144
   -324268.27047   -187193.10446  22855651.4114   22855652.6714
     -2050.4624
  21337581.93945  16716671.27345  24656760.8364   24656763.9904
     -5189.1904
 06  5  8  0 33 15.0020000  0  8G30G 4G25G 6G 1G 5G 2G14
  -2076115.85548  -1535231.68647  20740630.4534   20740633.9324
     -2384.6514
  13775672.92046  10774442.48445  24410375.4844   24410379.7564
     -4330.1194
  -2558066.07746   -552015.52946  23607907.8624   23607911.9574
       368.0844
  -6017349.65647  -4588013.89746  22125263.0644   22125267.1254
       327.8104
   4882409.63046   5262585.55746  23678171.2784   23678175.2984
     -2989.7084
  14076913.68648  11078007.42647  22169515.1364   22169519.2434
     -4495.6304
   -293431.41547   -163164.39546  22861519.4844   22861520.9714
     -2061.1544
  21415450.81044  16777348.31445  24671578.8014   24671582.1414
     -5193.3774
 06  5  8  0 33 30.0020000  0  8G30G 4G25G 6G 1G 5G 2G14
  -2040284.37248  -1507311.04947  20747448.9524   20747452.5314
     -2392.8834
  13840682.92046  10825099.62045  24422746.5154   24422751.0004
     -4337.8734
  -2563542.14846   -556282.60046  23606865.7794   23606869.3094
       362.0534
  -6022219.97347  -4591808.94646  22124336.2484   22124340.3504
       321.5614
   4927326.62146   5297585.81946  23686718.7354   23686723.5394
     -2999.2164
  14144389.61548  11130586.06547  22182355.4004   22182359.4274
     -4501.1444
   -262433.84547   -139010.43646  22867418.1324   22867419.6224
     -2071.8604
  21493382.72945  16838074.46345  24686408.8254   24686411.8534
     -5197.5474
 06  5  8  0 33 45.0020000  0  8G30G 4G25G 6G 1G 5G 2G14
  -2004329.15148  -1479293.99047  20754290.9944   20754294.1004
     -2401.0724
  13905808.91646  10875847.13145  24435139.6024   24435143.3424
     -4345.5534
  -2568927.61346   -560479.04846  23605840.9504   23605845.2394
       356.0634
  -6026996.88047  -4595531.19746  22123427.2234   22123431.8594
       315.4124
   4972386.26146   5332697.23346  23695293.3294   23695297.3464
     -3008.6614
  14211948.29747  11183229.19647  22195211.4024   22195215.4004
     -4506.5964
   -231275.63947   -114731.31546  22873347.3514   22873349.1964
     -2082.4944
  21571377.04644  16898849.24345  24701250.6714   24701253.9454
     -5201.6264
 06  5  8  0 34  0.0020000  0  8G30G 4G25G 6G 1G 5G 2G14
  -1968251.33148  -1451181.40347  20761156.3754   20761159.2374
     -2409.2814
  13971049.57645  10926684.02745  24447554.4534   24447559.2624
     -4353.2044
  -2574223.44146   -564605.65646  23604833.1644   23604837.4024
       350.0574
  -6031681.35947  -4599181.44246  22122535.7934   22122540.2394
       309.2044
   5017587.12846   5367918.67746  23703894.7744   23703898.4724
     -3018.1074
  14279588.13147  11235935.55347  22208082.8454   22208086.9764
     -4512.0374
   -199958.18747    -90328.11046  22879306.8744   22879308.9634
     -2093.1514
  21649432.12444  16959671.34245  24716104.0564   24716107.5794
     -5205.6944
 06  5  8  0 34 15.0020000  0  8G30G 4G25G 6G 1G 5G 2G14
  -1932050.77248  -1422973.18147  20768045.1164   20768048.1604
     -2417.4574
  14036404.81446  10977610.16745  24459991.0994   24459996.8254
     -4360.8674
  -2579429.09246   -568662.00546  23603842.5534   23603846.4984
       344.0104
  -6036273.05547  -4602759.38146  22121662.0134   22121666.6984
       303.0054
   5062929.39246   5403250.32146  23712523.1084   23712527.1694
     -3027.5414
  14347309.39847  11288705.37047  22220969.7644   22220974.2824
     -4517.4714
   -168481.17847    -65800.57246  22885296.7474   22885298.9124
     -2103.8014
  21727547.93944  17020540.81445  24730969.0374   24730971.1224
     -5209.7454
 06  5  8  0 34 30.0020000  0  8G30G 4G25G 6G 1G 5G 2G14
  -1895726.20848  -1394668.32447  20774957.4534   20774960.3404
     -2425.7804
  14101875.72646  11028626.45045  24472449.7794   24472453.9004
     -4368.5934
  -2584542.92046   -572646.80346  23602869.4134   23602873.4264
       337.8544
  -6040770.33047  -4606263.74746  22120806.1954   22120810.8634
       296.6774
   5108414.27846   5438693.10046  23721178.5804   23721182.5404
     -3037.0754
  14415113.26647  11341539.53847  22233872.4124   22233876.9954
     -4523.0104
   -136843.24247    -41147.62746  22891317.2364   22891318.7854
     -2114.5554
  21805725.41044  17081458.32145  24745845.7374   24745849.8604
     -5213.8904
 06  5  8  0 34 45.0020000  0  8G30G 4G25G 6G 1G 5G 2G14
  -1859276.55148  -1366265.99347  20781893.5894   20781896.6124
     -2434.1514
  14167462.83546  11079733.27245  24484930.5824   24484935.0254
     -4376.3334
  -2589563.87946   -576559.23846  23601913.9514   23601918.1474
       331.6304
  -6045172.29047  -4609693.83446  22119968.5204   22119972.9614
       290.2914
   5154042.40246   5474247.47046  23729861.3054   23729865.3814
     -3046.6464
  14483000.34348  11394438.54947  22246790.9044   22246795.3894
     -4528.5704
   -105043.49447    -16368.60646  22897368.4954   22897370.1654
     -2125.3854
  21883965.01344  17142424.21745  24760734.2394   24760738.1524
     -5218.0464
 06  5  8  0 35  0.0020000  0  8G30G 4G25G 6G 1G 5G 2G14
  -1822703.52848  -1337767.53047  20788853.1944   20788856.2474
     -2442.2634
  14233164.24146  11130929.16045  24497433.1464   24497437.1084
     -4383.8454
  -2594493.23646   -580400.27646  23600975.9094   23600980.0754
       325.6144
  -6049480.33047  -4613050.74746  22119148.7194   22119153.1114
       284.1124
   5199811.99946   5509912.07246  23738570.9424   23738575.5754
     -3055.9784
  14550968.94148  11447401.08647  22259724.9034   22259728.9804
     -4533.9084
    -73083.44047      8535.32546  22903450.2644   22903451.3044
     -2135.9654
  21962264.66844  17203436.93845  24775634.1624   24775635.7604
     -5221.9204
 06  5  8  0 35 15.0020000  0  8G30G 4G25G 6G 1G 5G 2G14
  -1786007.85948  -1309173.50547  20795836.1474   20795838.9494
     -2450.5344
  14298979.16346  11182213.49345  24509957.3174   24509960.8444
     -4391.4994
  -2599331.38746   -584170.25546  23600055.2354   23600059.0014
       319.4394
  -6053694.84347  -4616334.77846  22118346.7224   22118350.8734
       277.7914
   5245722.29646   5545686.33946  23747307.3624   23747311.7194
     -3065.4384
  14619018.34548  11500426.58747  22272674.2854   22272678.4734
     -4539.3814
    -40963.78747     33563.61746  22909562.4214   22909563.8504
     -2146.6914
  22040623.44843  17264495.73945  24790545.3224   24790546.5944
     -5225.9394
 06  5  8  0 35 30.0020000  0  8G30G 4G25G 6G 1G 5G 2G14
  -1749186.81048  -1280481.79047  20802842.9684   20802846.0534
     -2459.0044
  14364909.95845  11233588.14345  24522503.5264   24522507.5434
     -4399.3394
  -2604075.38746   -587866.88846  23599152.4844   23599155.8824
       313.0364
  -6057813.04347  -4619543.77046  22117563.0624   22117567.0644
       271.2604
   5291775.82646   5581572.19146  23756071.0224   23756075.9994
     -3075.0954
  14687150.94148  11553516.90947  22285639.4964   22285643.6614
     -4545.0324
     -8681.93447     58718.31146  22915705.4484   22915706.9514
     -2157.6214
  22119043.69643  17325602.40645  24805468.1594   24805471.1664
     -5230.1564
 06  5  8  0 35 45.0020000  0  8G30G 4G25G 6G 1G 5G 2G14
  -1712241.18248  -1251692.98847  20809873.4904   20809876.6044
     -2467.0974
  14430955.41145  11285052.12645  24535071.5394   24535077.2944
     -4406.7654
  -2608725.75746   -591490.55146  23598267.5584   23598271.2174
       306.9894
  -6061835.65847  -4622678.27746  22116797.5874   22116801.6004
       265.0824
   5337971.58246   5617568.88046  23764861.7884   23764866.6984
     -3084.3654
  14755365.79247  11606671.33347  22298620.3554   22298624.6774
     -4550.3064
     23761.19547     83998.66146  22921879.1764   22921880.6154
     -2168.1664
  22197523.97143  17386755.85645  24820402.4574   24820407.5034
     -5233.9114
 06  5  8  0 36  0.0020000  0  8G30G 4G25G 6G 1G 5G 2G14
  -1675172.80548  -1222808.53147  20816927.3724   20816930.8074
     -2475.4714
  14497113.56445  11336603.92245  24547660.9964   24547666.8244
     -4414.4434
  -2613283.95046   -595042.38646  23597400.1694   23597403.9924
       300.6434
  -6065764.26747  -4625739.52546  22116049.9944   22116053.7084
       258.5974
   5384307.68046   5653674.93646  23773679.2734   23773683.7644
     -3093.9114
  14823661.03947  11659888.39947  22311616.5184   22311621.0704
     -4555.8544
     56364.12847    109403.55546  22928083.3224   22928085.1754
     -2179.0154
  22276062.40444  17447954.55945  24835347.8834   24835351.6224
     -5237.9684
 06  5  8  0 36 15.0020000  0  8G30G 4G25G 6G 1G 5G 2G14
  -1637980.87448  -1193827.80647  20824004.7584   20824008.3874
     -2483.5804
  14563385.06045  11388244.01745  24560272.0474   24560276.8444
     -4421.8744
  -2617748.77846   -598521.45846  23596550.5324   23596554.6924
       294.5324
  -6069597.55547  -4628726.50446  22115320.5464   22115324.4654
       252.3524
   5430784.86646   5689890.91146  23782523.5984   23782527.6154
     -3103.1774
  14892037.36047  11713168.63646  22324628.1104   22324632.2304
     -4561.1354
     89127.69147    134933.59846  22934318.0274   22934319.7394
     -2189.6004
  22354659.52744  17509199.09445  24850304.4464   24850308.6774
     -5241.7694
 06  5  8  0 36 30.0020000  0  8G30G 4G25G 6G 1G 5G 2G14
  -1600665.37348  -1164750.79647  20831105.6664   20831109.2324
     -2491.8684
  14629769.40745  11439972.08245  24572904.5684   24572908.7214
     -4429.4434
  -2622120.11546   -601927.70046  23595718.6844   23595722.9114
       288.2374
  -6073335.71747  -4631639.34146  22114609.2134   22114612.8054
       245.9824
   5477402.76946   5726216.56546  23791394.7134   23791399.3174
     -3112.6084
  14960494.49947  11766511.85247  22337655.0864   22337659.1414
     -4566.5594
    122051.65847    160588.64146  22940583.2544   22940585.3694
     -2200.3364
  22433314.89643  17570488.97245  24865272.0534   24865277.3784
     -5245.6764
 06  5  8  0 36 45.0020000  0  8G30G 4G25G 6G 1G 5G 2G14
  -1563226.26448  -1135577.46747  20838230.0974   20838233.2694
     -2500.1694
  14696266.36145  11491787.88445  24585558.5104   24585561.3564
     -4436.9974
  -2626397.76546   -605260.91846  23594904.6604   23594908.8854
       281.9324
  -6076978.55447  -4634477.91246  22113916.0034   22113919.7504
       239.5534
   5524161.27846   5762651.78246  23800292.5894   23800296.2394
     -3122.0254
  15029032.33848  11819917.96047  22350697.4234   22350700.9904
     -4571.9924
    155136.08647    186368.71046  22946879.0144   22946880.8124
     -2211.0944
  22512028.02043  17631823.82045  24880250.6644   24880256.2644
     -5249.5704
 06  5  8  0 37  0.0020000  0  8G30G 4G25G 6G 1G 5G 2G14
  -1525663.52048  -1106307.78747  20845378.0474   20845380.8954
     -2508.2614
  14762875.81145  11543691.32745  24598233.8294   24598238.0894
     -4444.3274
  -2630581.17546   -608520.70946  23594108.5744   23594112.7094
       275.7864
  -6080525.66147  -4637241.88746  22113241.0084   22113244.8744
       233.3194
   5571060.42246   5799196.57046  23809217.2264   23809221.3784
     -3131.2474
  15097650.88748  11873386.94547  22363755.1254   22363759.0334
     -4577.2074
    188381.17547    212273.97646  22953205.3354   22953206.4964
     -2221.6484
  22590798.79443  17693203.64445  24895240.2414   24895244.2534
     -5253.2504
 06  5  8  0 37 15.0020000  0  8G30G 4G25G 6G 1G 5G 2G14
  -1487976.92048  -1076941.60547  20852549.5684   20852552.2064
     -2516.6494
  14829597.67645  11595682.37145  24610930.5774   24610934.9744
     -4451.9394
  -2634669.84146   -611706.68946  23593330.5244   23593334.6114
       269.3484
  -6083976.68847  -4639930.99246  22112584.3034   22112588.2094
       226.8154
   5618100.23846   5835850.97046  23818168.6414   23818171.9664
     -3140.7384
  15166350.17248  11926918.84147  22376828.1904   22376831.9314
     -4582.7104
    221787.08147    238304.55246  22959562.2624   22959563.6384
     -2232.4944
  22669626.85943  17754628.12145  24910240.7604   24910244.7764
     -5257.1694
 06  5  8  0 37 30.0020000  0  8G30G 4G25G 6G 1G 5G 2G14
  -1450165.62148  -1047478.25547  20859744.8134   20859747.6924
     -2524.8204
  14896432.50545  11647761.46845  24623648.8314   24623652.2724
     -4459.3214
  -2638662.81446   -614818.09046  23592570.6744   23592574.6354
       263.0874
  -6087330.79547  -4642544.56846  22111946.0344   22111949.7844
       220.4434
   5665281.31246   5872615.45246  23827146.9284   23827149.8724
     -3150.0294
  15235130.79148  11980514.13047  22389916.7114   22389920.1204
     -4588.0074
    255354.71347    264461.14446  22965949.9644   22965951.2834
     -2243.1514
  22748512.66343  17816097.56945  24925252.2504   24925256.5764
     -5260.9064
 06  5  8  0 37 45.0020000  0  8G30G 4G25G 6G 1G 5G 2G14
  -1412231.28448  -1017919.04047  20866963.4864   20866966.4274
     -2533.0614
  14963378.16745  11699926.89445  24636388.1484   24636391.4304
     -4466.7544
  -2642561.41546   -617855.94446  23591828.7894   23591832.3004
       256.7584
  -6090589.34447  -4645083.69146  22111325.9464   22111329.7664
       214.0424
   5712601.85446   5909488.59146  23836151.7304   23836155.3574
     -3159.3454
  15303991.04548  12034171.46146  22403020.3804   22403024.1384
     -4593.3294
    289082.30847    290742.38446  22972368.1134   22972369.9914
     -2253.8424
  22827454.21543  17877610.45545  24940274.3174   24940276.7424
     -5264.6294
 06  5  8  0 38  0.0020000  0  8G30G 4G25G 6G 1G 5G 2G14
  -1374174.89648   -988264.70447  20874205.3854   20874208.6274
     -2541.1674
  15030433.72645  11752177.96945  24649148.4084   24649153.9624
     -4474.0094
  -2646366.24646   -620820.74346  23591104.7514   23591108.3244
       250.5084
  -6093753.03747  -4647548.89946  22110723.9104   22110727.8894
       207.7424
   5760060.85746   5946469.62746  23845182.8834   23845185.9444
     -3168.5524
  15372929.85648  12087890.00246  22416138.9954   22416142.6814
     -4598.5474
    322968.92847    317147.53546  22978816.5194   22978818.2944
     -2264.4114
  22906450.39043  17939165.88045  24955306.7974   24955308.5174
     -5268.1794
 06  5  8  0 38 15.0020000  0  8G30G 4G25G 6G 1G 5G 2G14
  -1335995.92648   -958514.85747  20881470.6024   20881473.5644
     -2549.4444
  15097599.28445  11804514.75545  24661929.5934   24661935.6424
     -4481.4544
  -2650076.46847   -623711.81546  23590398.7234   23590402.0324
       244.0834
  -6096821.16647  -4649939.64546  22110140.0644   22110143.9094
       201.2394
   5807658.66846   5983558.84346  23854240.4294   23854244.6874
     -3177.9084
  15441947.61548  12141670.06546  22429272.6474   22429276.4274
     -4603.9124
    357015.00147    343676.94146  22985295.2764   22985297.2694
     -2275.1594
  22985501.31544  18000763.97745  24970349.6914   24970350.4974
     -5271.9424
 06  5  8  0 38 30.0030000  0  8G30G 4G25G 6G 1G 5G 2G14
  -1297689.73948   -928665.88147  20888760.0244   20888762.8284
     -2557.7274
  15164881.08345  11856942.10545  24674732.8674   24674736.9064
     -4488.8774
  -2653690.14747   -626527.67346  23589711.0594   23589714.8704
       237.6724
  -6099791.95447  -4652254.53746  22109574.7374   22109578.4994
       194.7944
   5855400.20746   6020760.03646  23863325.3094   23863330.1324
     -3187.2284
  15511050.68147  12195516.59546  22442422.5284   22442426.6154
     -4609.2454
    391224.90247    370334.00446  22991805.2094   22991807.0784
     -2285.8944
  23064613.86643  18062410.11145  24985404.2814   24985407.7154
     -5275.6884
 06  5  8  0 38 45.0030000  0  8G30G 4G25G 6G 1G 5G 2G14
  -1259261.23948   -898721.60547  20896072.7154   20896075.5724
     -2565.9594
  15232270.08945  11909452.97245  24687556.5944   24687560.7834
     -4496.2134
  -2657206.19747   -629267.44246  23589041.9914   23589045.4574
       231.2654
  -6102664.34247  -4654492.75346  22109028.1334   22109031.9844
       188.3314
   5903279.30546   6058068.41046  23872436.3704   23872440.8014
     -3196.5204
  15580230.02247  12249422.56846  22455586.9144   22455590.7154
     -4614.5324
    425594.50247    397115.50546  22998345.5284   22998347.1014
     -2296.5904
  23143777.39643  18124095.94345  25000468.5874   25000473.1424
     -5279.3254
 06  5  8  0 39  0.0030000  0  8G30G 4G25G 6G 1G 5G 2G14
  -1220711.51048   -868682.85147  20903408.4904   20903411.5854
     -2574.0514
  15299767.09445  11962048.09345  24700400.8624   24700403.9734
     -4503.4334
  -2660628.18747   -631933.93546  23588390.8174   23588394.7954
       224.9484
  -6105441.99647  -4656657.15446  22108499.5564   22108503.5694
       181.9774
   5951295.32846   6095483.49146  23881573.4764   23881576.6664
     -3205.6754
  15649486.52547  12303388.66646  22468765.9814   22468770.2934
     -4619.7044
    460122.31847    424020.30246  23004915.9674   23004917.2544
     -2307.1704
  23222992.95343  18185822.34745  25015542.7974   25015547.1564
     -5282.8004
 06  5  8  0 39 15.0030000  0  8G30G 4G25G 6G 1G 5G 2G14
  -1182038.68848   -838548.18347  20910767.6864   20910771.0344
     -2582.2684
  15367373.44345  12014728.34045  24713265.9574   24713270.9044
     -4510.7264
  -2663953.96447   -634525.43446  23587757.9464   23587761.8334
       218.5094
  -6108122.97847  -4658746.22846  22107989.3724   22107993.4534
       175.5044
   5999449.96646   6133006.57446  23890736.9384   23890740.9934
     -3214.9214
  15718821.89547  12357416.20946  22481960.0644   22481964.5364
     -4624.9814
    494810.18447    451049.81246  23011516.8574   23011518.1434
     -2317.8554
  23302262.22043  18247590.63145  25030627.2124   25030632.1764
     -5286.4104
 06  5  8  0 39 30.0030000  0  8G30G 4G25G 6G 1G 5G 2G14
  -1143241.60648   -808316.68847  20918150.5214   20918153.7784
     -2590.4604
  15435090.07045  12067494.54845  24726152.0184   24726156.2644
     -4517.9404
  -2667182.16347   -637040.91546  23587143.6454   23587147.3284
       212.1164
  -6110705.94647  -4660758.92146  22107497.8304   22107502.1994
       169.0834
   6047744.20646   6170638.44546  23899926.9984   23899931.5124
     -3224.1164
  15788237.05947  12411505.94646  22495169.3364   22495173.9044
     -4630.1764
    529659.13947    478204.83146  23018148.3994   23018149.7564
     -2328.4834
  23381585.93643  18309401.29445  25045722.0384   25045726.3774
     -5289.8964
 06  5  8  0 39 45.0030000  0  8G30G 4G25G 6G 1G 5G 2G14
  -1104322.24448   -777989.90947  20925556.6204   20925559.9004
     -2598.6794
  15502914.82845  12120345.01245  24739058.6204   24739064.1754
     -4525.2264
  -2670314.30947   -639481.54646  23586547.6314   23586551.5494
       205.6424
  -6113192.62747  -4662696.59546  22107024.6294   22107028.8514
       162.5914
   6096176.07646   6208377.54746  23909143.2694   23909147.2894
     -3233.3454
  15857730.10547  12465656.35746  22508393.4314   22508397.9564
     -4635.4264
    564667.57147    505484.13046  23024810.2864   23024811.8704
     -2339.1744
  23460961.96144  18371252.70845  25060826.8574   25060832.9534
     -5293.4454
 06  5  8  0 40  0.0030000  0  8G30G 4G25G 6G 1G 5G 2G14
  -1065281.38648   -747568.45747  20932985.8424   20932988.8994
     -2606.7814
  15570846.55245  12173278.81345  24751985.5834   24751991.1184
     -4532.3404
  -2673351.13247   -641847.89546  23585969.7504   23585973.4824
       199.2574
  -6115583.71147  -4664559.76246  22106569.6164   22106573.9734
       156.2004
   6144744.40446   6246222.98946  23918385.5414   23918390.0124
     -3242.4424
  15927299.87847  12519866.56546  22521632.1344   22521636.3804
     -4640.5544
    599834.34147    532886.80346  23031502.2994   23031503.9364
     -2349.7354
  23540388.93744  18433143.86745  25075941.3524   25075944.3954
     -5296.8504
 06  5  8  0 40 15.0030000  0  8G30G 4G25G 6G 1G 5G 2G14
  -1026118.33648   -717051.79847  20940438.3164   20940441.3724
     -2614.9584
  15638885.75945  12226296.32745  24764933.0084   24764936.0764
     -4539.5624
  -2676291.33647   -644138.96746  23585410.2484   23585413.9224
       192.7724
  -6117878.15547  -4666347.63446  22106132.9924   22106137.2154
       149.7144
   6193449.91046   6284175.32746  23927653.9274   23927657.3964
     -3251.6204
  15996947.20747  12574137.20246  22534885.5924   22534889.6244
     -4645.7564
    635160.38147    560413.58746  23038224.6294   23038225.7774
     -2360.3954
  23619867.29743  18495075.07045  25091065.5894   25091071.8534
     -5300.2784
 06  5  8  0 40 30.0030000  0  8G30G 4G25G 6G 1G 5G 2G14
   -986833.14548   -686439.96347  20947914.0404   20947917.2074
     -2623.1164
  15707032.12845  12279397.41445  24777900.8484   24777905.6904
     -4546.6954
  -2679134.80347   -646354.65446  23584869.1594   23584872.5754
       186.3084
  -6120075.92447  -4668060.17646  22105714.7634   22105718.8894
       143.2574
   6242292.27446   6322234.31746  23936948.3724   23936952.4594
     -3260.7394
  16066671.75347  12628468.01646  22548153.7324   22548157.8874
     -4650.9004
    670645.52047    588064.34046  23044977.2314   23044978.1064
     -2371.0204
  23699396.67943  18557045.97945  25106199.5404   25106202.0954
     -5303.6644
 06  5  8  0 40 45.0030000  0  8G30G 4G25G 6G 1G 5G 2G14
   -947425.82948   -655732.95947  20955413.0024   20955416.2544
     -2631.3514
  15775285.14845  12332581.57745  24790888.9754   24790892.9614
     -4553.8894
  -2681881.41947   -648494.86746  23584346.5024   23584350.2764
       179.7214
  -6122177.01747  -4669697.38546  22105314.9304   22105319.4214
       136.7114
   6291271.14046   6360399.67946  23946268.7674   23946272.8454
     -3269.9554
  16136473.16647  12682858.71946  22561436.4944   22561440.8994
     -4656.1424
    706289.57547    615838.92246  23051760.0904   23051760.7134
     -2381.7194
  23778976.56643  18619056.24145  25121343.0754   25121344.8914
     -5307.1584
 06  5  8  0 41  0.0030000  0  8G30G 4G25G 6G 1G 5G 2G14
   -907894.54348   -624929.36647  20962935.5544   20962938.6004
     -2639.4974
  15843646.63645  12385850.25445  24803897.7724   24803902.6134
     -4560.9884
  -2684528.92847   -650557.85646  23583842.6844   23583846.7364
       173.2454
  -6124179.26947  -4671257.57446  22104933.9054   22104938.6244
       130.2354
   6340388.43746   6398672.89146  23955615.5204   23955619.6004
     -3279.0494
  16206353.36747  12737310.80946  22574734.2544   22574738.6824
     -4661.2574
    742094.58147    643738.92146  23058573.5704   23058574.3094
     -2392.3144
  23858608.62043  18681107.26545  25136496.5774   25136502.9634
     -5310.4734
 06  5  8  0 41 15.0030000  0  8G30G 4G25G 6G 1G 5G 2G14
   -868240.79948   -594030.34247  20970481.4084   20970484.4904
     -2647.6814
  15912114.65645  12439201.95345  24816926.8474   24816931.7364
     -4568.0874
  -2687078.61646   -652544.62646  23583357.4894   23583361.1214
       166.6914
  -6126084.05447  -4672741.81646  22104571.4274   22104575.8694
       123.7114
   6389642.39946   6437052.62846  23964988.2754   23964991.4884
     -3288.1714
  16276310.72347  12791823.02446  22588046.6994   22588051.1094
     -4666.3974
    778058.97447    671763.13146  23065417.3744   23065418.4184
     -2402.9514
  23938290.91543  18743197.34245  25151659.6824   25151664.7094
     -5313.8464
 06  5  8  0 41 30.0030000  0  8G30G 4G25G 6G 1G 5G 2G14
   -828461.56148   -563033.53947  20978051.1394   20978054.2624
     -2655.9754
  15980691.97045  12492638.80345  24829976.6824   24829981.2404
     -4575.3274
  -2689527.02347   -654452.46446  23582891.5674   23582895.5574
       159.9834
  -6127888.01747  -4674147.49446  22104228.1494   22104232.7574
       117.0584
   6439035.95446   6475541.11046  23974387.5974   23974391.9084
     -3297.4174
  16346348.08147  12846397.58446  22601374.3684   22601378.2774
     -4671.6824
    814185.74347    699913.84646  23072292.0674   23072293.2474
     -2413.7324
  24018026.12243  18805328.61545  25166832.7994   25166839.5274
     -5317.2944
 06  5  8  0 41 45.0030000  0  8G30G 4G25G 6G 1G 5G 2G14
   -788560.23148   -531941.59447  20985644.1044   20985647.5144
     -2664.1054
  16049374.95845  12546158.01245  24843046.6294   24843052.3744
     -4582.3474
  -2691877.34647   -656283.87446  23582444.2944   23582448.1724
       153.4594
  -6129594.48947  -4675477.20246  22103903.4284   22103907.5624
       110.5924
   6488565.53546   6514135.57946  23983812.7814   23983816.5384
     -3306.4494
  16416461.94747  12901031.75046  22614716.5974   22614720.5634
     -4676.7514
    850471.64747    728188.57546  23079197.0474   23079198.9384
     -2424.3074
  24097810.49443  18867498.21645  25182015.2644   25182015.6124
     -5320.5554
 06  5  8  0 42  0.0030000  0  8G30G 4G25G 6G 1G 5G 2G14
   -748537.11348   -500754.74447  20993260.2414   20993263.5384
     -2672.3004
  16118163.11945  12599759.15045  24856136.5904   24856140.9874
     -4589.4114
  -2694129.56147   -658038.84046  23582015.6944   23582019.3864
       146.8464
  -6131203.59547  -4676731.04546  22103597.2294   22103601.4594
       104.0054
   6538230.66146   6552835.68246  23993263.7064   23993267.5614
     -3315.5484
  16486651.94747  12955725.24446  22628073.3064   22628077.2974
     -4681.8984
    886916.32747    756587.02546  23086132.2294   23086133.7604
     -2434.9704
  24177643.50943  18929705.81045  25197206.9574   25197214.0554
     -5323.8464
 06  5  8  0 42 15.0030000  0  8G30G 4G25G 6G 1G 5G 2G14
   -708391.73048   -469472.63047  21000899.6414   21000902.8274
     -2680.5744
  16187056.60245  12653442.39645  24869246.6204   24869252.1544
     -4596.5254
  -2696282.88847   -659716.75646  23581605.9214   23581609.4754
       140.1194
  -6132714.53547  -4677908.39746  22103309.7044   22103313.7364
        97.3314
   6588031.64446   6591641.64246  24002740.4864   24002744.0314
     -3324.7144
  16556918.43147  13010478.32946  22641444.5814   22641449.1554
     -4687.0944
    923520.22547    785109.54746  23093097.7164   23093099.6394
     -2445.6894
  24257525.20943  18991951.22745  25212407.9194   25212408.5894
     -5327.1644
 06  5  8  0 42 30.0030000  0  8G30G 4G25G 6G 1G 5G 2G14
   -668122.81348   -438094.25847  21008562.5654   21008565.7234
     -2688.7414
  16256056.31845  12707208.40645  24882376.8354   24882381.4034
     -4603.5604
  -2698335.92347   -661316.51846  23581215.2444   23581218.6824
       133.4774
  -6134126.12347  -4679008.33246  22103041.0944   22103044.8984
        90.7594
   6637969.43146   6630554.19446  24012243.2924   24012248.3824
     -3333.7754
  16627262.26947  13065291.70146  22654830.5784   22654834.7964
     -4692.1974
    960284.39347    813756.94546  23100093.7054   23100095.8584
     -2456.3244
  24337456.32543  19054235.19345  25227618.3114   25227619.1074
     -5330.4134
 06  5  8  0 42 45.0030000  0  8G30G 4G25G 6G 1G 5G 2G14
   -627732.08448   -406620.96847  21016248.6774   21016251.6654
     -2696.9594
  16325160.46845  12761055.77845  24895526.9004   24895529.3744
     -4610.5884
  -2700289.85147   -662839.05546  23580843.4124   23580846.7754
       126.7684
  -6135439.65247  -4680031.85446  22102791.1394   22102794.8614
        84.1124
   6688042.41046   6669572.09846  24021771.8074   24021776.3444
     -3342.8914
  16697681.92047  13120164.14746  22668231.0114   22668235.4144
     -4697.3454
    997207.30047    842528.04946  23107119.8934   23107121.8734
     -2467.0024
  24417435.02343  19116556.24645  25242837.7434   25242842.0914
     -5333.6674
 06  5  8  0 43  0.0030000  0  8G30G 4G25G 6G 1G 5G 2G14
   -587217.69248   -375051.31147  21023958.3194   21023961.5144
     -2704.9774
  16394370.52945  12814985.71345  24908697.1504   24908703.3534
     -4617.4174
  -2702142.66347   -664282.80746  23580490.8264   23580493.8584
       120.2384
  -6136653.32247  -4680977.56246  22102560.1944   22102564.3904
        77.6624
   6738252.06746   6708696.48446  24031326.3474   24031330.6844
     -3351.7664
  16768178.93847  13175096.88046  22681646.1624   22681650.6574
     -4702.2814
   1034290.59747    871424.12146  23114176.6184   23114178.5714
     -2477.4764
  24497462.66843  19178915.44145  25258066.4374   25258068.7894
     -5336.7104
 06  5  8  0 43 15.0030000  0  8G30G 4G25G 6G 1G 5G 2G14
   -546583.19048   -343388.05947  21031690.8204   21031694.0924
     -2713.0444
  16463682.71945  12868995.17545  24921886.8444   24921891.2544
     -4624.2634
  -2703897.57847   -665650.27546  23580156.8834   23580160.5704
       113.6554
  -6137770.31947  -4681847.94746  22102347.6374   22102351.5864
        71.1744
   6788594.80646   6747924.60346  24040906.2184   24040910.4364
     -3360.6774
  16838749.72247  13230087.09446  22695075.3524   22695079.7514
     -4707.2354
   1071530.92347    900442.55346  23121263.2184   23121264.8534
     -2487.9834
  24577535.51643  19241309.85645  25273303.7954   25273305.2314
     -5339.7604
 06  5  8  0 43 30.0030000  0  8G30G 4G25G 6G 1G 5G 2G14
   -505824.97948   -311628.41547  21039446.8494   21039450.0274
     -2721.3354
  16533100.10145  12923086.63745  24935096.5814   24935099.6664
     -4631.3514
  -2705550.86147   -666938.53846  23579842.2614   23579845.8064
       106.8244
  -6138786.98247  -4682640.14746  22102154.1744   22102158.0644
        64.4224
   6839073.88346   6787258.92346  24050512.0524   24050516.5644
     -3369.8054
  16909397.54647  13285137.33746  22708519.2134   22708523.5634
     -4712.4224
   1108931.62447    929585.95246  23128380.3334   23128382.3304
     -2498.7294
  24657656.52543  19303741.82045  25288550.3684   25288553.5904
     -5342.9754
 06  5  8  0 43 45.0030000  0  8G30G 4G25G 6G 1G 5G 2G14
   -464945.82148   -279774.53147  21047225.8994   21047229.0714
     -2729.3204
  16602620.04445  12977257.99845  24948325.7644   24948329.2064
     -4638.0944
  -2707104.71947   -668149.33746  23579546.5554   23579550.5074
       100.2474
  -6139705.67247  -4683356.00247  22101979.3614   22101983.3154
        57.9604
   6889686.56646   6826697.36146  24060143.3464   24060148.4164
     -3378.6574
  16980119.87147  13340245.63346  22721977.2554   22721981.4124
     -4717.3294
   1146490.19347    958852.36646  23135527.4854   23135529.0924
     -2509.1934
  24737822.82043  19366209.02345  25303805.5384   25303807.4634
     -5345.9464
 06  5  8  0 44  0.0030000  0  8G30G 4G25G 6G 1G 5G 2G14
   -423945.48948   -247826.22647  21055028.0074   21055031.0254
     -2737.4684
  16672242.35145  13031509.14645  24961574.4424   24961579.2124
     -4644.9564
  -2708558.67047   -669282.28046  23579269.8684   23579273.5694
        93.5294
  -6140526.05447  -4683995.25846  22101823.2544   22101826.6984
        51.3534
   6940432.86746   6866239.94246  24069800.0814   24069805.2624
     -3387.6004
  17050916.65347  13395411.95346  22735449.4584   22735453.5074
     -4722.3314
   1184206.81547    988241.92946  23142704.7294   23142706.0584
     -2519.7714
  24818034.40243  19428711.54445  25319069.2894   25319074.1774
     -5349.0054
 06  5  8  0 44 15.0030000  0  8G30G 4G25G 6G 1G 5G 2G14
   -382821.40648   -215781.48247  21062853.6714   21062856.9724
     -2745.8214
  16741969.43545  13085841.89845  24974843.0684   24974848.1174
     -4652.0284
  -2709909.80347   -670335.10946  23579012.7444   23579016.4534
        86.5614
  -6141245.44747  -4684555.81346  22101686.3484   22101689.6464
        44.4984
   6991315.21646   6905888.53046  24079482.7064   24079486.5694
     -3396.7664
  17121790.37247  13450638.22546  22748936.3024   22748940.4074
     -4727.5594
   1222083.98547   1017756.61046  23149912.5344   23149913.6214
     -2530.5704
  24898293.46743  19491251.07145  25334342.0844   25334348.4384
     -5352.2604
 06  5  8  0 44 30.0030000  0  8G30G 4G25G 6G 1G 5G 2G14
   -341573.81048   -183640.49447  21070702.8324   21070706.1464
     -2753.8134
  16811800.45745  13140255.67945  24988131.5004   24988138.8164
     -4658.7434
  -2711158.30047   -671307.95446  23578775.1434   23578779.4564
        79.9344
  -6141863.91947  -4685037.73746  22101568.6524   22101572.3424
        38.0034
   7042333.07246   6945642.70446  24089191.1214   24089195.1154
     -3405.5694
  17192740.52247  13505924.05146  22762437.6904   22762441.9194
     -4732.4154
   1260121.38747   1047396.13946  23157150.8194   23157152.1384
     -2541.0324
  24978599.25343  19553827.00445  25349623.7704   25349630.1764
     -5355.1194
 06  5  8  0 44 45.0030000  0  8G30G 4G25G 6G 1G 5G 2G14
   -300205.02148   -151405.07447  21078575.0534   21078578.2394
     -2762.0034
  16881733.00245  13194748.55945  25001439.2594   25001443.7754
     -4665.5734
  -2712306.04047   -672202.29446  23578556.7244   23578560.9944
        73.1044
  -6142383.74147  -4685442.79046  22101469.7384   22101473.5974
        31.3304
   7093483.93646   6985500.54146  24098924.8214   24098929.2384
     -3414.5214
  17263764.67848  13561267.53746  22775953.1654   22775957.1214
     -4737.4484
   1298316.61747   1077158.65446  23164419.1434   23164420.1414
     -2551.6554
  25058949.17343  19616437.29545  25364913.8444   25364916.6244
     -5358.1634
 06  5  8  0 45  0.0030000  0  8G30G 4G25G 6G 1G 5G 2G14
   -258712.75748   -119073.44447  21086470.7564   21086473.6904
     -2770.2444
  16951768.94945  13249322.01045  25014766.6984   25014772.0324
     -4672.4904
  -2713350.70547   -673016.31146  23578357.9044   23578362.0874
        66.2194
  -6142802.39047  -4685768.99446  22101390.0704   22101393.8894
        24.5394
   7144769.82146   7025463.54946  24108684.1954   24108688.6274
     -3423.5454
  17334864.89947  13616670.30246  22789483.0944   22789486.8874
     -4742.5374
   1336671.89447   1107045.87046  23171717.9204   23171719.1474
     -2562.3424
  25139345.01843  19679083.38745  25380212.6764   25380218.4874
     -5361.2364
 06  5  8  0 45 15.0030000  0  8G30G 4G25G 6G 1G 5G 2G14
   -217099.15648    -86647.26547  21094389.5514   21094392.8324
     -2778.3694
  17021906.11845  13303974.33045  25028113.3784   25028118.1694
     -4679.2494
  -2714293.79647   -673751.18946  23578178.4244   23578182.3144
        59.4144
  -6143121.59547  -4686017.72246  22101329.3314   22101333.1974
        17.8994
   7196188.74246   7065530.25146  24118468.8804   24118472.5664
     -3432.4274
  17406039.19747  13672130.78746  22803027.1034   22803030.9144
     -4747.4864
   1375185.34947   1137056.35146  23179046.8014   23179048.1864
     -2572.9004
  25219784.58943  19741763.57545  25395519.8264   25395525.3544
     -5364.1624
 06  5  8  0 45 30.0030000  0  8G30G 4G25G 6G 1G 5G 2G14
   -175363.57948    -54126.03747  21102331.5674   21102334.9584
     -2786.4574
  17092144.68745  13358705.67745  25041479.3074   25041483.7004
     -4685.9804
  -2715134.54947   -674406.32046  23578018.4264   23578022.3044
        52.6004
  -6143340.77547  -4686188.51346  22101287.6274   22101291.2054
        11.2444
   7247740.83746   7105700.71046  24128278.9094   24128282.5864
     -3441.2744
  17477287.84847  13727649.19746  22816585.2634   22816589.1634
     -4752.4234
   1413857.32247   1167190.35346  23186405.8374   23186406.9394
     -2583.4584
  25300267.84943  19804477.78545  25410835.3074   25410839.8604
     -5367.0584
 06  5  8  0 45 45.0030000  0  8G30G 4G25G 6G 1G 5G 2G14
   -133505.81048    -21509.59047  21110296.8274   21110299.9884
     -2794.5844
  17162484.83745  13413516.14745  25054864.6334   25054868.5154
     -4692.7124
  -2715872.27546   -674981.17446  23577878.0324   23577881.7484
        45.7524
  -6143459.32847  -4686280.88547  22101265.0634   22101268.7004
         4.5674
   7299426.48146   7145975.24946  24138114.3324   24138117.7524
     -3450.1314
  17548611.21447  13783225.83746  22830157.6474   22830162.0494
     -4757.3514
   1452688.23347   1197448.19446  23193795.1124   23193796.2594
     -2594.0004
  25380795.03543  19867226.16245  25426159.1284   25426161.9654
     -5369.9054
 06  5  8  0 46  0.0030000  0  8G30G 4G25G 6G 1G 5G 2G14
    -91526.00748     11201.94947  21118285.3044   21118288.3324
     -2802.7394
  17232926.07145  13468405.40245  25068269.1664   25068272.1794
     -4699.4764
  -2716506.98347   -675475.74446  23577757.2684   23577761.1934
        38.8584
  -6143477.32647  -4686294.90646  22101261.6354   22101265.5174
        -2.1754
   7351245.16246   7186353.42646  24147975.0704   24147978.7884
     -3459.0334
  17620008.79747  13838860.30146  22843744.1564   22843748.4124
     -4762.3214
   1491677.71547   1227829.61546  23201214.5604   23201215.5324
     -2604.6024
  25461365.49543  19930008.32445  25441491.2344   25441496.7144
     -5372.8244
 06  5  8  0 46 15.0030000  0  8G30G 4G25G 6G 1G 5G 2G14
    -49421.30348     44010.79847  21126297.5584   21126300.4564
     -2811.1204
  17303470.76745  13523375.28945  25081693.4554   25081697.4264
     -4706.4004
  -2717035.59646   -675887.65046  23577656.6934   23577660.9854
        31.7284
  -6143391.94447  -4686228.36546  22101277.8684   22101281.6774
        -9.1404
   7403199.47646   7226837.28746  24157861.6644   24157865.1114
     -3468.1164
  17691483.29247  13894554.70946  22857345.3194   22857349.4754
     -4767.5054
   1530828.58647   1258336.78346  23208664.7134   23208665.7844
     -2615.4164
  25541981.65143  19992826.11645  25456832.0134   25456833.6494
     -5375.9024
 06  5  8  0 46 30.0030000  0  8G30G 4G25G 6G 1G 5G 2G14
     -7195.46048     76914.05847  21134332.8634   21134336.2944
     -2819.0524
  17374115.02645  13578422.72545  25095136.6304   25095141.3624
     -4712.8944
  -2717461.39447   -676219.44046  23577575.6594   23577579.9324
        24.9844
  -6143206.43847  -4686083.80646  22101313.1604   22101316.8194
       -15.6774
   7455285.60246   7267423.89246  24167773.3294   24167777.6304
     -3476.7664
  17763030.88147  13950306.05946  22870960.3854   22870964.7184
     -4772.2504
   1570137.20747   1288966.88046  23216144.8844   23216146.3564
     -2625.7994
  25622639.42943  20055676.34145  25472180.6664   25472186.3744
     -5378.5434
 06  5  8  0 46 45.0030000  0  8G30G 4G25G 6G 1G 5G 2G14
     35150.80148    109911.14847  21142391.0914   21142394.6034
     -2827.1124
  17444857.92245  13633547.07245  25108598.5544   25108602.2854
     -4719.4824
  -2717784.80946   -676471.44946  23577514.1134   23577518.3694
        18.1294
  -6142921.36647  -4685861.66346  22101367.3924   22101371.0604
       -22.3614
   7507502.69746   7308112.52246  24177709.9334   24177714.2194
     -3485.5274
  17834650.86847  14006113.83446  22884589.2194   22884593.6884
     -4777.1034
   1609602.83747   1319719.31046  23223654.9334   23223656.8584
     -2636.3024
  25703337.96443  20118558.33545  25487537.1144   25487542.3654
     -5381.2664
 06  5  8  0 47  0.0030000  0  8G30G 4G25G 6G 1G 5G 2G14
     77619.99548    143004.01747  21150472.7084   21150476.0454
     -2835.6574
  17515701.54345  13688749.87345  25122079.6904   25122082.7634
     -4726.5274
  -2718003.23846   -676641.64346  23577472.5404   23577476.5434
        10.7824
  -6142534.27047  -4685560.02446  22101441.0354   22101444.8904
       -29.4924
   7559852.95846   7348904.92746  24187671.8904   24187676.4944
     -3494.7304
  17906345.44947  14061979.72646  22898232.2614   22898236.7714
     -4782.4024
   1649227.81347   1350595.90846  23231195.3064   23231197.5394
     -2647.2524
  25784079.14943  20181473.47845  25502901.6574   25502904.2364
     -5384.4404
 06  5  8  0 47 15.0030000  0  8G30G 4G25G 6G 1G 5G 2G14
    120211.44648    176192.15547  21158577.5874   21158580.6824
     -2843.4044
  17586645.26445  13744030.69345  25135579.8544   25135585.2664
     -4732.8024
  -2718116.76146   -676730.09846  23577450.9264   23577455.4244
         4.1714
  -6142045.28447  -4685178.99646  22101534.0674   22101538.1554
       -35.8934
   7612335.69746   7389800.55846  24197659.0474   24197663.8374
     -3503.1524
  17978114.02247  14117903.28346  22911889.3724   22911893.1884
     -4786.9404
   1689011.54247   1381596.22046  23238765.8914   23238768.2464
     -2657.4384
  25864862.22043  20244421.29545  25518274.1544   25518277.6474
     -5386.8234
 06  5  8  0 47 30.0030000  0  8G30G 4G25G 6G 1G 5G 2G14
    162924.84948    209475.32547  21166705.6844   21166708.6984
     -2851.6624
  17657688.17745  13799388.78745  25149098.9004   25149103.4614
     -4739.5224
  -2718125.60147   -676736.97946  23577449.2144   23577453.0414
        -2.9434
  -6141454.86147  -4684718.91746  22101646.4094   22101650.4644
       -42.7824
   7664950.27246   7430798.92346  24207671.2874   24207676.0114
     -3512.0654
  18049955.94347  14173883.98946  22925560.4344   22925564.2534
     -4791.9494
   1728953.50247   1412719.81746  23246366.5974   23246368.7414
     -2668.1094
  25945686.38043  20307401.20145  25533654.4904   25533655.7144
     -5389.6524
 06  5  8  0 47 45.0030000  0  8G30G 4G25G 6G 1G 5G 2G14
    205759.22048    242852.75547  21174856.8034   21174859.8894
     -2859.6144
  17728829.16145  13854823.29245  25162636.6104   25162641.9624
     -4745.9684
  -2718030.38047   -676662.77546  23577467.3174   23577471.0394
        -9.7834
  -6140763.69647  -4684180.34047  22101777.9194   22101781.4374
       -49.4014
   7717695.63146   7471899.20946  24217708.4334   24217712.9464
     -3520.6664
  18121870.31647  14229921.15446  22939245.2724   22939249.3384
     -4796.6584
   1769052.86347   1443966.07446  23253997.2564   23253998.9764
     -2678.4984
  26026550.48843  20370412.17545  25549042.4074   25549045.0664
     -5392.1974
 06  5  8  0 48  0.0030000  0  8G30G 4G25G 6G 1G 5G 2G14
    248715.83448    276325.44447  21183031.1784   21183034.1824
     -2867.8594
  17800069.24045  13910335.04645  25176193.1554   25176195.9904
     -4752.6214
  -2717829.55547   -676506.29046  23577505.5184   23577509.3594
       -16.9184
  -6139970.35547  -4683562.13946  22101928.8684   22101932.7034
       -56.2984
   7770572.77346   7513102.17046  24227770.6294   24227774.4624
     -3529.5444
  18193858.18747  14286015.59446  22952944.1084   22952948.0914
     -4801.6414
   1809310.74147   1475335.85046  23261658.0734   23261659.6124
     -2689.1504
  26107455.43743  20433454.94945  25564438.1414   25564444.4494
     -5395.0094
 06  5  8  0 48 15.0030000  0  8G30G 4G25G 6G 1G 5G 2G14
    291795.04548    309893.66547  21191228.8784   21191231.9294
     -2875.9824
  17871408.56745  13965924.11145  25189768.6024   25189773.5694
     -4759.2274
  -2717522.28647   -676266.85446  23577563.9964   23577567.6144
       -23.9764
  -6139074.12047  -4682863.77447  22102099.4004   22102103.4894
       -63.1244
   7823582.02146   7554408.06446  24237857.9654   24237861.8654
     -3538.2884
  18265919.90047  14342167.56846  22966656.9774   22966661.0534
     -4806.5274
   1849727.77147   1506829.63246  23269349.1774   23269350.6194
     -2699.7114
  26188401.10743  20496529.47345  25579841.5774   25579842.4484
     -5397.6764
 06  5  8  0 48 30.0030000  0  8G30G 4G25G 6G 1G 5G 2G14
    334995.48748    343556.34847  21199449.6374   21199452.7564
     -2884.0474
  17942845.50045  14021589.24045  25203362.6184   25203367.5574
     -4765.6634
  -2717109.78047   -675945.43046  23577642.5024   23577645.5934
       -30.9884
  -6138076.35847  -4682086.29546  22102289.2514   22102293.1694
       -69.8934
   7876721.72446   7595815.62646  24247970.1194   24247973.2244
     -3546.9664
  18338053.92947  14398375.89446  22980383.6114   22980387.9564
     -4811.3184
   1890302.34947   1538446.17446  23277070.2614   23277071.7064
     -2710.1954
  26269385.90843  20559634.54045  25595252.4624   25595254.5484
     -5400.2744
 06  5  8  0 48 45.0030000  0  8G30G 4G25G 6G 1G 5G 2G14
    378317.17048    377313.50047  21207693.4694   21207696.8094
     -2892.1944
  18014379.75445  14077330.20945  25216975.1674   25216980.2224
     -4772.2284
  -2716591.83447   -675541.82646  23577741.0664   23577744.7434
       -38.0974
  -6136976.79647  -4681229.49547  22102498.4864   22102502.3534
       -76.7454
   7929991.66646   7637324.67946  24258107.0344   24258110.3004
     -3555.7154
  18410260.08347  14454640.42646  22994123.9824   22994127.9244
     -4816.1804
   1931034.39847   1570185.43346  23284821.3134   23284822.7154
     -2720.7644
  26350409.54843  20622769.78245  25610670.7144   25610676.6104
     -5402.8894
 06  5  8  0 49  0.0030000  0  8G30G 4G25G 6G 1G 5G 2G14
    421759.44048    411164.61447  21215960.2444   21215963.4434
     -2900.2714
  18086010.24245  14133146.16145  25230606.0214   25230610.1884
     -4778.6764
  -2715968.71647   -675056.27746  23577859.6434   23577863.3404
       -45.1434
  -6135776.01647  -4680293.80947  22102726.9834   22102730.8164
       -83.5434
   7983390.96146   7678934.49546  24268268.5384   24268272.4274
     -3564.3584
  18482537.56847  14510960.53846  23007877.9214   23007882.3794
     -4820.9694
   1971923.25747   1602046.87646  23292602.2104   23292603.6424
     -2731.2484
  26431470.87043  20685934.46945  25626096.1844   25626097.7804
     -5405.4364
 06  5  8  0 49 15.0030000  0  8G30G 4G25G 6G 1G 5G 2G14
    465323.80648    445110.87347  21224250.2544   21224253.5884
     -2908.3434
  18157738.35645  14189038.18245  25244255.4534   25244261.2184
     -4785.1034
  -2715238.62647   -674487.37746  23577998.5864   23578002.2864
       -52.2324
  -6134472.19947  -4679277.84047  22102975.0834   22102978.7794
       -90.3284
   8036921.04546   7720646.23746  24278454.9954   24278458.2144
     -3573.0114
  18554887.84147  14567337.35846  23021645.7274   23021650.3724
     -4825.7644
   2012970.37047   1634031.64246  23300413.2114   23300414.5834
     -2741.7384
  26512571.29943  20749129.55945  25641529.1094   25641532.7114
     -5407.9644
 06  5  8  0 49 30.0030000  0  8G30G 4G25G 6G 1G 5G 2G14
    509010.43848    479152.40347  21232563.5334   21232567.1834
     -2916.4284
  18229563.85145  14245006.10245  25257923.3814   25257928.5824
     -4791.4904
  -2714401.14547   -673834.79946  23578157.9564   23578161.5724
       -59.3014
  -6133065.16047  -4678181.43647  22103242.8344   22103246.9444
       -97.1474
   8090581.83646   7762459.84446  24288666.3144   24288669.8674
     -3581.6414
  18627310.89247  14623770.90346  23035427.3774   23035431.6934
     -4830.5274
   2054175.82447   1666139.78446  23308254.3424   23308255.9724
     -2752.2004
  26593710.49943  20812354.90845  25656969.4244   25656974.2524
     -5410.4754
 06  5  8  0 49 45.0030000  0  8G30G 4G25G 6G 1G 5G 2G14
    552817.99248    513288.16147  21240899.8184   21240903.2904
     -2924.5264
  18301485.30145  14301048.72845  25271609.5654   25271614.3914
     -4797.9534
  -2713457.27747   -673099.30646  23578337.5644   23578341.6434
       -66.4734
  -6131555.93347  -4677005.41147  22103530.0174   22103533.9934
      -104.0144
   8144371.84546   7804374.12746  24298902.2114   24298906.2454
     -3590.3054
  18699805.29747  14680260.03546  23049222.6004   23049226.8554
     -4835.3324
   2095538.18747   1698370.19846  23316125.3424   23316127.1124
     -2762.7234
  26674886.81643  20875609.10745  25672416.8244   25672417.7284
     -5412.9874
 06  5  8  0 50  0.0030000  0  8G30G 4G25G 6G 1G 5G 2G14
    596746.93448    547518.50347  21249259.2044   21249262.6684
     -2932.6184
  18373502.94445  14357166.36845  25285314.0514   25285318.4314
     -4804.3284
  -2712406.11447   -672280.19646  23578537.5874   23578541.5194
       -73.6314
  -6129943.75447  -4675749.15647  22103836.7964   22103841.0924
      -110.8854
   8198291.48146   7846389.44146  24309162.7984   24309165.9954
     -3598.9234
  18772371.51747  14736805.13146  23063031.4994   23063036.1594
     -4840.0924
   2137057.98847   1730723.28346  23324026.2984   23324028.2664
     -2773.1944
  26756100.52143  20938892.50945  25687871.3394   25687877.1804
     -5415.4564
 06  5  8  0 50 15.0030000  0  8G30G 4G25G 6G 1G 5G 2G14
    640796.73948    581843.01747  21257641.5964   21257645.2964
     -2940.5794
  18445615.81345  14413358.20045  25299036.6654   25299040.7704
     -4810.5974
  -2711248.04847   -671377.82446  23578757.9514   23578762.0394
       -80.6714
  -6128229.11447  -4674413.07947  22104163.0764   22104167.1104
      -117.6314
   8252339.96546   7888505.14446  24319447.8784   24319452.0064
     -3607.4194
  18845008.84947  14793405.64346  23076853.9354   23076858.2984
     -4844.7444
   2178734.69547   1763198.63546  23331957.1244   23331959.5304
     -2783.5754
  26837350.65443  21002204.30845  25703332.7834   25703336.7574
     -5417.7844
 06  5  8  0 50 30.0030000  0  8G30G 4G25G 6G 1G 5G 2G14
    684966.89948    616261.31947  21266046.8984   21266050.6484
     -2948.7694
  18517823.23945  14469623.67445  25312777.2884   25312780.7454
     -4817.0534
  -2709983.29047   -670392.28946  23578998.6244   23579002.5754
       -87.9544
  -6126412.38747  -4672997.43947  22104508.7744   22104512.8504
      -124.5984
   8306516.45246   7930720.58146  24329757.3324   24329761.1494
     -3616.1124
  18917716.55247  14850061.00446  23090689.7604   23090694.0184
     -4849.6114
   2220567.74947   1795795.81446  23339917.6994   23339919.8004
     -2794.1504
  26918636.29442  21065543.71245  25718800.8654   25718800.3554
     -5420.2914
 06  5  8  0 50 45.0030000  0  8G30G 4G25G 6G 1G 5G 2G14
    729257.19648    650773.23947  21274475.0674   21274478.4734
     -2956.7464
  18590124.75145  14525962.51545  25326535.8144   25326539.1464
     -4823.2964
  -2708611.67347   -669323.49846  23579259.6374   23579263.4874
       -95.0584
  -6124493.43147  -4671502.14247  22104873.9334   22104878.0814
      -131.3874
   8360820.72446   7973035.59646  24340091.1194   24340094.3754
     -3624.5874
  18990494.48647  14906771.07546  23104538.9394   23104543.6374
     -4854.2504
   2262556.88747   1828514.61946  23347907.9914   23347910.0184
     -2804.5304
  26999957.09542  21128910.57545  25734275.6534   25734278.4004
     -5422.6264
 06  5  8  0 51  0.0030000  0  8G30G 4G25G 6G 1G 5G 2G14
    773670.38648    685380.91447  21282926.6264   21282929.9994
     -2964.9694
  18662522.88745  14582376.62545  25340312.7374   25340317.6414
     -4829.7434
  -2707130.06247   -668168.99946  23579541.5914   23579545.4814
      -102.4314
  -6122469.32247  -4669924.90747  22105259.0994   22105263.2954
      -138.4384
   8415255.38846   8015452.20646  24350449.7484   24350453.2334
     -3633.3124
  19063345.32547  14963537.95046  23118401.9954   23118406.2324
     -4859.1404
   2304704.88747   1861357.21146  23355928.5084   23355930.0004
     -2815.1554
  27081315.57642  21192306.76445  25749757.6044   25749765.7454
     -5425.1264
 06  5  8  0 51 15.0030000  0  8G30G 4G25G 6G 1G 5G 2G14
    818205.09148    720083.27747  21291401.3134   21291404.2234
     -2973.0194
  18735015.99145  14638864.73845  25354107.7094   25354113.4134
     -4836.0334
  -2705539.62647   -666929.69046  23579844.2534   23579848.3754
      -109.6454
  -6120341.25347  -4668266.65847  22105664.0454   22105668.3344
      -145.3034
   8469818.78346   8057969.14846  24360832.8694   24360836.5804
     -3641.8314
  19136267.42947  15020360.36346  23132278.6034   23132282.7734
     -4863.8314
   2347010.32847   1894322.49046  23363978.9774   23363980.3254
     -2825.5884
  27162709.79943  21255730.84745  25765246.4414   25765250.2424
     -5427.4644
 06  5  8  0 51 30.0030000  0  8G30G 4G25G 6G 1G 5G 2G14
    862859.61248    754879.00647  21299898.8014   21299901.5484
     -2980.9064
  18807602.08045  14695425.30445  25367920.3744   25367925.6504
     -4842.1074
  -2703841.88647   -665606.77546  23580167.3354   23580171.4204
      -116.7234
  -6118110.81947  -4666528.64947  22106088.4664   22106092.7434
      -152.0594
   8524508.99646   8100584.90846  24371240.0684   24371243.8774
     -3650.1954
  19209259.00047  15077236.89946  23146168.4454   23146172.6464
     -4868.3724
   2389471.40047   1927409.03246  23372059.0494   23372060.5394
     -2835.8804
  27244137.81542  21319181.20645  25780741.6954   25780748.0464
     -5429.6064
 06  5  8  0 51 45.0040000  0  8G30G 4G25G 6G 1G 5G 2G14
    907638.62448    789771.74047  21308419.9874   21308423.0644
     -2989.0934
  18880287.22745  14752063.07345  25381751.9074   25381757.1064
     -4848.4634
  -2702034.64447   -664198.53746  23580511.2584   23580515.4014
      -124.0944
  -6115776.11947  -4664709.39847  22106532.7414   22106536.9064
      -159.0864
   8579331.16346   8143303.46146  24381672.3734   24381676.3844
     -3658.8074
  19282326.49947  15134172.61446  23160072.7354   23160076.8134
     -4873.1774
   2432092.55447   1960620.31546  23380169.5714   23380170.9344
     -2846.4234
  27325606.33842  21382663.13045  25796244.6344   25796252.2714
     -5432.0104
 06  5  8  0 52  0.0040000  0  8G30G 4G25G 6G 1G 5G 2G14
    952535.28048    824756.15447  21316963.5434   21316966.3484
     -2997.0284
  18953060.68345  14808769.65845  25395600.2274   25395606.3424
     -4854.5504
  -2700118.85747   -662705.71146  23580875.8364   23580879.6704
      -131.2434
  -6113338.09047  -4662809.61847  22106996.6724   22107001.0124
      -165.8784
   8634276.79846   8186118.24846  24392128.1744   24392132.3514
     -3667.1774
  19355459.04047  15191159.00146  23173989.4004   23173993.4274
     -4877.7214
   2474866.97347   1993951.03246  23388309.2524   23388310.5954
     -2856.7364
  27407103.33642  21446167.25045  25811752.9904   25811758.4824
     -5434.1484
 06  5  8  0 52 15.0040000  0  8G30G 4G25G 6G 1G 5G 2G14
    997550.56548    859832.99647  21325529.6724   21325532.4284
     -3004.9994
  19025925.29745  14865547.26745  25409465.9074   25409470.9144
     -4860.6544
  -2698095.71847   -661129.24446  23581260.8424   23581264.5444
      -138.4724
  -6110798.14947  -4660830.44447  22107479.9934   22107484.1894
      -172.7504
   8689347.75146   8229030.65646  24402607.8034   24402611.9874
     -3675.5894
  19428659.71947  15248198.48246  23187919.0344   23187922.9194
     -4882.3304
   2517795.82847   2027402.07346  23396478.3414   23396480.2464
     -2867.0884
  27488632.16442  21509696.23545  25827267.4314   25827271.2264
     -5436.3264
 06  5  8  0 52 30.0040000  0  8G30G 4G25G 6G 1G 5G 2G14
   1042686.05948    895003.51047  21334118.6784   21334121.4174
     -3013.0834
  19098882.10245  14922396.72745  25423349.1494   25423356.0664
     -4866.8994
  -2695963.70847   -659467.93746  23581666.5554   23581670.5154
      -145.8154
  -6108154.85947  -4658770.72947  22107982.9934   22107987.4974
      -179.7214
   8744545.02046   8272041.52146  24413111.4764   24413115.6134
     -3684.0714
  19501929.74047  15305291.99246  23201861.8624   23201866.0384
     -4887.0284
   2560880.22847   2060974.33146  23404677.0434   23404678.6584
     -2877.5354
  27570193.84142  21573250.68945  25842788.1514   25842791.0954
     -5438.5934
 06  5  8  0 52 45.0040000  0  8G30G 4G25G 6G 1G 5G 2G14
   1087942.21748    930268.04847  21342730.6394   21342733.3804
     -3021.0084
  19171931.42045  14979318.21845  25437250.0114   25437254.9944
     -4872.9634
  -2693721.97147   -657721.12246  23582093.1554   23582097.2224
      -153.0594
  -6105407.48147  -4656629.90447  22108505.7884   22108509.7734
      -186.5564
   8799869.02046   8315151.11646  24423639.2534   24423643.6574
     -3692.4234
  19575269.57147  15362439.90246  23215817.9634   23215821.8044
     -4891.5834
   2604121.00347   2094668.43546  23412905.5024   23412907.3484
     -2887.8714
  27651788.53343  21636830.95945  25858315.1444   25858320.5684
     -5440.6544
 06  5  8  0 53  0.0040000  0  8G30G 4G25G 6G 1G 5G 2G14
   1133318.53148    965626.21547  21351365.4684   21351368.5974
     -3029.0544
  19245072.58745  15036311.34545  25451168.2984   25451172.3674
     -4879.0994
  -2691370.55447   -655888.84746  23582540.6134   23582544.6344
      -160.3794
  -6102556.15747  -4654408.09747  22109048.3724   22109052.4834
      -193.5134
   8855319.22546   8358359.06846  24434191.0284   24434194.9624
     -3700.8384
  19648678.74347  15419641.84446  23229787.2594   23229791.4924
     -4896.1954
   2647517.60947   2128483.97146  23421163.6264   23421165.1954
     -2898.2554
  27733415.50943  21700436.38245  25873848.3694   25873852.7914
     -5442.8144
 06  5  8  0 53 15.0040000  0  8G30G 4G25G 6G 1G 5G 2G14
   1178815.46748   1001078.37047  21360023.2564   21360026.7044
     -3037.0874
  19318305.52545  15093375.95045  25465104.0434   25465108.7614
     -4885.2284
  -2688908.94047   -653970.70446  23583009.0404   23583012.6874
      -167.7484
  -6099600.43447  -4652104.93447  22109610.8304   22109614.9944
      -200.4834
   8910895.62946   8401665.34646  24444766.8414   24444770.0044
     -3709.2464
  19722157.30547  15476897.86546  23243769.7734   23243774.0814
     -4900.8284
   2691070.22147   2162421.07146  23429451.4264   23429452.7904
     -2908.6464
  27815074.64843  21764066.83545  25889387.6634   25889393.2694
     -5444.9524
 06  5  8  0 53 30.0040000  0  8G30G 4G25G 6G 1G 5G 2G14
   1224431.69648   1036623.48447  21368703.7294   21368707.0904
     -3045.0444
  19391628.86045  15150511.00045  25479056.9924   25479062.2964
     -4891.2004
  -2686337.95447   -651967.34546  23583498.2884   23583501.8334
      -175.0364
  -6096541.31847  -4649721.19247  22110192.9604   22110196.9744
      -207.3834
   8966596.92946   8445068.95846  24455366.4394   24455369.2364
     -3717.5584
  19795704.02947  15534206.99646  23257765.2674   23257769.1834
     -4905.3694
   2734777.54547   2196478.72246  23437768.6644   23437770.0304
     -2918.9684
  27896764.66142  21827721.36845  25904932.7264   25904936.4764
     -5446.9964
 06  5  8  0 53 45.0040000  0  8G30G 4G25G 6G 1G 5G 2G14
   1270168.56548   1072262.59647  21377407.1714   21377410.5334
     -3053.1204
  19465043.50145  15207717.14345  25493027.3434   25493031.6274
     -4897.3304
  -2683656.09247   -649877.57246  23584008.6304   23584012.6774
      -182.4614
  -6093377.32747  -4647255.74247  22110795.0544   22110799.0414
      -214.3924
   9022424.16546   8488570.69846  24465989.9984   24465993.8634
     -3725.9904
  19869320.07547  15591570.13646  23271773.9584   23271777.9104
     -4910.0184
   2778640.81647   2230657.88946  23446115.5784   23446117.3644
     -2929.3904
  27978486.45642  21891400.66845  25920483.8734   25920489.5804
     -5449.1354
 06  5  8  0 54  0.0040000  0  8G30G 4G25G 6G 1G 5G 2G14
   1316025.94548   1107995.61547  21386133.5514   21386136.9614
     -3061.1854
  19538549.17645  15264994.26445  25507014.9874   25507018.7884
     -4903.4164
  -2680863.19147   -647701.28946  23584540.1054   23584543.5674
      -189.9224
  -6090108.51447  -4644708.60947  22111417.0954   22111420.8574
      -221.4404
   9078377.01246   8532170.31646  24476637.4834   24476642.1194
     -3734.3844
  19943005.20747  15648987.11846  23285795.7854   23285799.9104
     -4914.6514
   2822659.81947   2264958.39946  23454492.1244   23454493.9994
     -2939.7984
  28060239.55342  21955104.41045  25936040.9614   25936049.1954
     -5451.2384
 06  5  8  0 54 15.0040000  0  8G30G 4G25G 6G 1G 5G 2G14
   1362003.50548   1143822.28147  21394882.7934   21394886.2194
     -3069.1254
  19612145.29045  15322341.90345  25521019.8874   25521024.0314
     -4909.3654
  -2677959.20447   -645438.44246  23585092.7284   23585096.1234
      -197.2504
  -6086734.90247  -4642079.81147  22112059.0814   22112063.0884
      -228.3374
   9134454.94946   8575867.39946  24487308.7874   24487312.3784
     -3742.6464
  20016759.00847  15706457.59946  23299830.6784   23299834.9394
     -4919.1524
   2866834.22847   2299380.01246  23462898.2444   23462900.3054
     -2950.0914
  28142023.25843  22018831.90945  25951603.9694   25951606.9674
     -5453.2184
 06  5  8  0 54 30.0040000  0  7G30G 4G25G 6G 1G 5G 2
   1408101.23448   1179742.58247  21403654.9124   21403658.1374
     -3077.1204
  19685831.63745  15379759.81745  25535041.9634   25535044.8714
     -4915.3504
  -2674943.88547   -643088.84246  23585666.5324   23585670.2774
      -204.6554
  -6083256.35247  -4639369.25447  22112721.0454   22112725.0254
      -235.3344
   9190657.82646   8619661.84846  24498003.8594   24498007.9444
     -3750.9554
  20090581.35247  15763981.48846  23313878.6154   23313883.0614
     -4923.7034
   2911164.02147   2333922.70046  23471333.9164   23471335.5224
     -2960.4334
 06  5  8  0 54 45.0040000  0  7G30G 4G25G 6G 1G 5G 2
   1454317.64748   1215755.37647  21412449.6164   21412452.7654
     -3085.0234
  19759606.51445  15437246.72545  25549080.8894   25549086.9334
     -4921.2364
  -2671818.30547   -640653.31746  23586261.3184   23586265.3424
      -212.0264
  -6079674.14447  -4636577.91747  22113402.7274   22113406.4614
      -242.2404
   9246984.04046   8663552.42046  24508722.4004   24508726.3594
     -3759.1474
  20164470.72947  15821557.61846  23327939.3084   23327943.7754
     -4928.1584
   2955647.74547   2368585.34446  23479798.8884   23479801.2754
     -2970.6764
 06  5  8  0 55  0.0040000  0  7G30G 4G25G 6G 1G 5G 2
   1500654.19648   1251861.77447  21421267.1774   21421270.1914
     -3093.1434
  19833470.96745  15494803.36945  25563136.8844   25563141.0794
     -4927.3034
  -2668580.78347   -638130.57246  23586877.4024   23586881.1174
      -219.6054
  -6075986.69047  -4633704.56747  22114104.4334   22114107.6144
      -249.3794
   9303434.70446   8707539.93346  24519464.6084   24519468.5894
     -3767.5534
  20238428.46447  15879187.01046  23342013.0214   23342017.0474
     -4932.8304
   3000286.65747   2403368.90746  23488293.3954   23488296.0594
     -2981.1334
 06  5  8  0 55 15.0040000  0  7G30G 4G25G 6G 1G 5G 2
   1547109.99448   1288061.10147  21430107.4334   21430110.3024
     -3101.0284
  19907423.79445  15552428.92845  25577209.7024   25577214.1824
     -4933.1314
  -2665231.93847   -635521.08746  23587514.6764   23587517.8524
      -226.9744
  -6072194.66447  -4630749.73547  22114826.0304   22114829.4004
      -256.3004
   9360008.74146   8751623.60246  24530230.2864   24530234.2154
     -3775.7104
  20312453.46847  15936868.83046  23356099.5234   23356103.4964
     -4937.2434
   3045079.85447   2438272.69546  23496817.2664   23496819.0914
     -2991.3494
 06  5  8  0 55 30.0040000  0  7G30G 4G25G 6G 1G 5G 2
   1593685.52748   1324353.71947  21438970.4714   21438973.1284
     -3108.9574
  19981465.55145  15610123.78545  25591299.4174   25591310.7374
     -4939.0604
  -2661770.84247   -632824.12146  23588173.3084   23588176.6144
      -234.4514
  -6068297.20847  -4627712.75147  22115567.7024   22115571.1134
      -263.2984
   9416706.66346   8795803.80746  24541019.5224   24541024.3994
     -3783.9574
  20386546.33947  15994603.52546  23370198.9334   23370202.8934
     -4941.7454
   3090027.88647   2473297.13746  23505370.5964   23505372.0724
     -3001.6624
 06  5  8  0 55 45.0040000  0  7G30G 4G25G 6G 1G 5G 2
   1640379.82648   1360738.88447  21447856.1054   21447859.0984
     -3116.9394
  20055594.92945  15667886.92745  25605405.7814   25605416.3534
     -4944.8984
  -2658198.25247   -630040.28446  23588853.1524   23588856.0014
      -241.9074
  -6064295.23447  -4624594.31847  22116329.2464   22116332.6374
      -270.3014
   9473527.20346   8840079.53746  24551832.1234   24551837.5604
     -3792.1274
  20460705.89947  16052390.18846  23384311.0394   23384315.5334
     -4946.2114
   3135129.55547   2508441.29246  23513953.1644   23513954.6094
     -3011.9134
 06  5  8  0 56  0.0040000  0  7G30G 4G25G 6G 1G 5G 2
   1687193.77948   1397217.28747  21456764.5204   21456767.4124
     -3124.8714
  20129812.14945                  25619528.8354
     -4950.7274
  -2654513.23547   -627168.84346  23589554.4014   23589557.5094
      -249.3824
  -6060187.99647  -4621393.86847  22117110.8204   22117114.3894
      -277.2734
   9530470.73546   8884451.11746  24562668.1074   24562673.6654
     -3800.2904
  20534932.66947  16110229.20046  23398435.9254   23398440.4804
     -4950.6414
   3180385.45547   2543705.63246  23522565.0754   23522566.3764
     -3022.1584
 06  5  8  0 56 15.0040000  0  7G30G 4G25G 6G 1G 5G 2
   1734126.13948   1433787.96247  21465695.4544   21465698.4444
     -3132.7944
  20204116.07745                  25633668.4074
     -4956.4854
  -2650716.38647   -624210.25046  23590276.9174   23590280.0974
      -256.8784
  -6055976.13347  -4618111.88747  22117912.2974   22117915.6954
      -284.3014
   9587536.14246   8928917.64646  24573527.3094   24573532.2214
     -3808.4364
  20609225.58447  16168119.78746  23412573.4064   23412577.9824
     -4955.0824
   3225794.66247   2579089.41246  23531206.1574   23531207.7164
     -3032.4124
 06  5  8  0 56 30.0040000  0  7G30G 4G25G 6G 1G 5G 2
   1781178.35148   1470452.02147  21474649.1904   21474652.0094
     -3140.8184
  20278507.68545                  25647824.6954
     -4962.3554
  -2646806.17647   -621163.32946  23591021.0074   23591024.0044
      -264.4804
  -6051658.31747  -4614747.36047  22118733.9404   22118737.2754
      -291.4134
   9644724.54346   8973480.03646  24584409.9134   24584414.1144
     -3816.6634
  20683585.89347  16226062.88146  23426723.7104   23426728.1844
     -4959.5974
   3271358.34547   2614593.58146  23539876.6224   23539878.1554
     -3042.7504
 06  5  8  0 56 45.0040000  0  7G30G 4G25G 6G 1G 5G 2
   1828350.25448   1507209.34547  21483625.6994   21483628.4124
     -3148.7874
  20352986.68945                  25661997.6064
     -4968.1804
  -2642782.36647   -618027.89446  23591786.7224   23591789.8504
      -272.0454
  -6047234.29647  -4611300.06347  22119575.8004   22119579.4974
      -298.4684
   9702035.65146   9018138.04046  24595315.8474   24595318.7874
     -3824.8224
  20758013.34247  16284058.28746  23440886.7914   23440891.1884
     -4964.0584
   3317076.43947   2650218.06046  23548576.4864   23548577.7704
     -3053.0084
 06  5  8  0 57  0.0040000  0  7G30G 4G25G 6G 1G 5G 2
   1875641.23448   1544059.45647  21492624.8774   21492627.5844
     -3156.6614
  20427552.39545      7746.84045  25676187.0214   25676191.0394
     -4973.8824
  -2638645.17247   -614804.10446  23592574.0174   23592577.2414
      -279.5554
  -6042704.50847  -4607770.35646  22120437.7864   22120441.4114
      -305.4574
   9759468.69446   9062891.06146  24606245.0044   24606248.3614
     -3832.8944
  20832507.39847  16342105.60446  23455062.5444   23455066.6794
     -4968.4504
   3362948.24247   2685962.32146  23557305.5974   23557306.8804
     -3063.1974
 06  5  8  0 57 15.0040000  0  7G30G 4G25G 6G 1G 5G 2
   1923050.39448   1581001.65747  21501646.5414   21501649.2574
     -3164.5604
  20502203.46445     65916.51845  25690392.6714   25690394.8404
     -4979.6044
  -2634395.27047   -611492.50346  23593382.7504   23593386.1254
      -287.0964
  -6038069.79747  -4604158.88547  22121319.7354   22121323.3704
      -312.4924
   9817022.49746   9107738.16746  24617197.1584   24617200.6294
     -3840.9474
  20907066.87547  16400203.88446  23469250.7294   23469255.0434
     -4972.8204
   3408972.64147   2721825.48846  23566063.7494   23566064.7204
     -3073.3914
 06  5  8  0 57 30.0040000  0  7G30G 4G25G 6G 1G 5G 2
   1970578.13348   1618036.25847  21510690.7804   21510693.9594
     -3172.4904
  20576940.06345    124152.78145  25704614.5764   25704620.0114
     -4985.3114
  -2630032.03447   -608092.56646  23594213.0204   23594216.6244
      -294.6824
  -6033329.47947  -4600465.12147  22122221.7794   22122225.3084
      -319.5614
   9874697.29946   9152679.56046  24628172.3374   24628175.6434
     -3849.0414
  20981692.12547  16458353.41146  23483451.4434   23483455.9344
     -4977.2334
   3455150.11247   2757807.93246  23574851.0214   23574852.2684
     -3083.6234
 06  5  8  0 57 45.0040000  0  7G30G 4G25G 6G 1G 5G 2
   2018224.57948   1655163.35747  21519757.6044   21519760.5354
     -3180.4524
  20651761.91345    182455.55545  25718852.7054   25718859.6614
     -4991.0134
  -2625555.06947   -604604.02046  23595064.9314   23595068.5914
      -302.3194
  -6028483.42047  -4596688.96947  22123143.9414   22123147.5104
      -326.6674
   9932492.90346   9197715.11646  24639170.4834   24639174.0584
     -3857.1364
  21056383.07647  16516554.13846  23497664.6684   23497669.0294
     -4981.6454
   3501480.47147   2793909.50646  23583667.3944   23583668.8764
     -3093.8534
 06  5  8  0 58  0.0040000  0  7G30G 4G25G 6G 1G 5G 2
   2065990.04248   1692383.20347  21528847.0684   21528849.9084
     -3188.2554
  20726669.07745    240824.76845  25733107.0574   25733112.1954
     -4996.6014
  -2620963.75747   -601026.37046  23595938.5884   23595942.0534
      -309.8474
  -6023530.96647  -4592829.91747  22124086.3694   22124090.0264
      -333.6494
   9990409.44846   9242844.88146  24650191.6444   24650195.5534
     -3865.0674
  21131139.95347  16574806.24146  23511890.4504   23511894.7954
     -4985.9234
   3547964.14447   2830130.54146  23592512.9444   23592514.6874
     -3103.9604
 06  5  8  0 58 15.0040000  0  7G30G 4G25G 6G 1G 5G 2
   2113872.86748   1729694.48947  21537958.8734   21537962.0834
     -3196.1364
  20801659.97645    299259.20345  25747377.3724   25747384.4184
     -5002.2064
  -2616259.28647   -597360.54246  23596833.7794   23596836.8624
      -317.4374
  -6018473.57747  -4588889.09147  22125048.7614   22125052.7364
      -340.7204
  10048445.27246   9288067.58846  24661235.4694   24661239.0024
     -3873.0564
  21205961.18547  16633108.49446  23526128.4944   23526132.8684
     -4990.2654
   3594599.45047   2866469.73546  23601387.3524   23601389.1234
     -3114.1144
 06  5  8  0 58 30.0040000  0  7G30G 4G25G 6G 1G 5G 2
   2161875.20448   1767098.90747  21547093.4264   21547096.2154
     -3204.2054
  20876736.23345    357760.13245  25761663.9394   25761669.0154
     -5007.9874
  -2611439.32247   -593604.72746  23597750.9544   23597753.9814
      -325.2334
  -6013308.95147  -4584864.70447  22126031.5514   22126035.3424
      -347.9494
  10106602.19746   9333384.67746  24672302.3804   24672306.4644
     -3881.2114
  21280848.69247  16691462.38846  23540379.1574   23540383.4904
     -4994.7564
   3641388.37947   2902928.63446  23610291.0084   23610292.6964
     -3124.4384
 06  5  8  0 58 45.0040000  0  7G30G 4G25G 6G 1G 5G 2
   2209996.38748   1804595.93447  21556250.5874   21556253.1474
     -3212.0814
  20951896.98345    416326.93345  25775966.5884   25775970.0994
     -5013.5414
  -2606504.15147   -589759.14046  23598690.0604   23598692.9844
      -332.9024
  -6008037.55647  -4580757.12247  22127034.6644   22127038.4044
      -355.0234
  10164879.43646   9378795.51046  24683392.1774   24683395.5684
     -3889.2034
  21355801.80547  16749867.40746  23554642.2944   23554646.6764
     -4999.0974
   3688330.34547   2939506.78546  23619223.7844   23619225.2444
     -3134.6054
 06  5  8  0 59  0.0040000  0  7G30G 4G25G 6G 1G 5G 2
   2258236.02248   1842185.26047  21565430.2964   21565433.1154
     -3219.9184
  21027141.68245    474959.13845  25790285.2194   25790288.7464
     -5019.1104
  -2601453.90447   -585823.88046  23599651.0724   23599654.5604
      -340.5384
  -6002659.52547  -4576566.44646  22128058.0684   22128061.9664
      -362.0624
  10223276.42446   9424299.63946  24694504.7554   24694508.9764
     -3897.1114
  21430819.99347  16808323.13746  23568917.8004   23568922.1144
     -5003.3754
   3735424.66647   2976203.65546  23628185.5424   23628187.2234
     -3144.6944
 06  5  8  0 59 15.0040000  0  7G30G 4G25G 6G 1G 5G 2
   2306593.38048   1879866.31747  21574632.4034   21574635.1454
     -3227.7934
  21102469.37845    533656.04045  25804619.6124   25804625.9764
     -5024.6534
  -2596289.01447   -581799.28846  23600633.9004   23600637.4304
      -348.2114
  -5997175.52547  -4572293.19547  22129101.6384   22129105.2714
      -369.1894
  10281792.15445   9469896.29446  24705639.9124   24705644.9464
     -3905.0504
  21505902.44047  16866828.93246  23583205.5264   23583210.0594
     -5007.6804
   3782670.72947   3013018.76946  23637176.1774   23637177.5054
     -3154.8504
 06  5  8  0 59 30.0040000  0  7G30G 4G25G 6G 1G 5G 2
   2355068.80748   1917639.37847  21583856.9754   21583859.7054
     -3235.5994
  21177880.06944    592417.61945  25818969.8024   25818973.9444
     -5030.0914
  -2591008.83247   -577684.85346  23601638.6804   23601642.3554
      -355.8294
  -5991584.96647  -4567936.90647  22130165.4734   22130169.3264
      -376.2154
  10340426.75546   9515585.59546  24716797.7144   24716803.2624
     -3912.8894
  21581049.39147  16925384.98246  23597505.5384   23597510.1214
     -5011.8964
   3830068.87147   3049952.37146  23646195.7524   23646197.0334
     -3164.9034
 06  5  8  0 59 45.0040000  0  7G30G 4G25G 6G 1G 5G 2
   2403661.75448   1955504.00847  21593103.9114   21593106.5964
     -3243.5024
  21253372.92644    651243.16345  25833335.6224   25833340.4774
     -5035.6394
  -2585613.55947   -573480.74146  23602665.3604   23602669.1304
      -363.5684
  -5985888.16047  -4563497.83047  22131249.5314   22131253.3144
      -383.3634
  10399179.56546   9561367.00246  24727978.0214   24727982.8264
     -3920.8324
  21656260.22547  16983990.81646  23611817.7244   23611822.4154
     -5016.2374
   3877618.48047   3087004.01446  23655244.1544   23655245.5054
     -3175.0624
 06  5  8  1  0  0.0040000  0  7G30G 4G25G 6G 1G 5G 2
   2452371.36748   1993459.54547  21602373.0394   21602375.6354
     -3251.1684
  21328946.96744    710132.04545  25847716.8874   25847721.4214
     -5040.9484
  -2580103.86147   -569187.46846  23603713.8074   23603717.1214
      -371.1054
  -5980085.83447  -4558976.52647  22132353.6624   22132357.2944
      -390.3264
  10458049.36746   9607239.56446  24739180.5904   24739185.5844
     -3928.5244
  21731533.95847  17042645.66746  23626141.8724   23626146.1814
     -5020.3094
   3925318.42947   3124172.80346  23664321.1504   23664322.3324
     -3184.9824
 06  5  8  1  0 15.0040000  0  7G30G 4G25G 6G 1G 5G 2
   2501198.22748   2031506.44647  21611664.4884   21611666.8174
     -3258.9634
  21404602.30644    769084.22445  25862113.5974   25862118.3214
     -5046.3214
  -2574478.74647   -564804.26046  23604784.2184   23604787.8874
      -378.7934
  -5974177.28847  -4554372.45847  22133478.0034   22133481.8754
      -397.3594
  10517036.65346   9653203.68346  24750405.5084   24750409.5714
     -3936.3284
  21806871.10147  17101349.92446  23640478.0734   23640482.5704
     -5024.5194
   3973169.28847   3161459.17246  23673426.8694   23673427.8614
     -3195.0094
 06  5  8  1  0 30.0040000  0  7G30G 4G25G 6G 1G 5G 2
   2550141.80248   2069644.29947  21620978.1414   21620980.6574
     -3266.8364
  21480338.36444    828099.34245  25876525.6714   25876532.9384
     -5051.7964
  -2568738.48947   -560331.33146  23605876.5444   23605880.2764
      -386.5664
  -5968162.77947  -4549685.82347  22134622.5044   22134626.9744
      -404.5454
  10576140.69146   9699258.77646  24761652.6294   24761656.0784
     -3944.1864
  21882271.01647  17160103.09946  23654826.2034   23654830.2794
     -5028.7774
   4021170.41147   3198862.64946  23682561.1754   23682562.3744
     -3205.1224
 06  5  8  1  0 45.0040000  0  7G30G 4G25G 6G 1G 5G 2
   2599202.48048   2107873.39147  21630314.0814   21630316.4404
     -3274.6934
  21556155.01944    887177.27245  25890953.0884   25890958.9564
     -5057.2034
  -2562882.59147   -555768.28646  23606990.8794   23606994.1394
      -394.3524
  -5962042.02747  -4544916.40147  22135787.2444   22135791.8764
      -411.6794
  10635361.42346   9745404.78946  24772921.9244   24772925.1484
     -3952.0404
  21957733.83947  17218905.28846  23669186.3004   23669190.4034
     -5033.0394
   4069322.10747   3236383.45646  23691724.1444   23691725.7234
     -3215.2264
 06  5  8  1  1  0.0040000  0  7G30G 4G25G 6G 1G 5G 2
   2648380.86748   2146194.21547  21639672.4154   21639674.7994
     -3282.4744
  21632053.08444    946318.59045  25905396.0034   25905402.4774
     -5062.5254
  -2556909.71747   -551114.10046  23608127.4694   23608131.0594
      -402.0724
  -5955813.64847  -4540063.11447  22136972.4564   22136976.8804
      -418.7824
  10694699.76046   9791642.42646  24784213.6124   24784218.4864
     -3959.7774
  22033260.41747  17277757.15346  23683558.5354   23683562.6194
     -5037.2084
   4117625.22147   3274022.23746  23700915.9264   23700917.4314
     -3225.2154
 06  5  8  1  1 15.0040000  0  7G30G 4G25G 6G 1G 5G 2
   2697676.76648   2184606.60247  21649053.1064   21649055.2804
     -3290.2154
  21708031.67145   1005522.63045  25919854.2614   25919857.7124
     -5067.8114
  -2550820.19447   -546369.01246  23609286.2624   23609289.5584
      -409.7824
  -5949478.19947  -4535126.39947  22138178.0524   22138182.2794
      -425.8404
  10754154.86446   9837971.07946  24795527.5234   24795532.2534
     -3967.4814
  22108850.20947  17336658.29646  23697942.8104   23697947.4564
     -5041.3334
   4166078.86747   3311778.31446  23710136.3504   23710137.9344
     -3235.1794
 06  5  8  1  1 30.0040000  0  7G30G 4G25G 6G 1G 5G 2
   2747089.06248   2223109.68547  21658455.9554   21658458.6344
     -3298.0244
  21784089.78344   1064788.69745  25934327.6274   25934331.9364
     -5073.1804
  -2544614.51447   -541533.41546  23610467.1624   23610470.8414
      -417.5764
  -5943036.14547  -4530106.60747  22139403.9214   22139408.2134
      -432.9994
  10813725.75045   9884389.93645  24806863.4794   24806867.8254
     -3975.2334
  22184502.26547  17395607.93246  23712338.9334   23712343.3924
     -5045.5334
   4214682.35947   3349651.15946  23719385.3094   23719387.1334
     -3245.2144
 06  5  8  1  1 45.0040000  0  7G30G 4G25G 6G 1G 5G 2
   2796618.09648   2261703.73347  21667881.0214   21667883.6084
     -3305.8774
  21860227.18844   1124116.55645  25948816.0754   25948820.0024
     -5078.5174
  -2538292.35147   -536607.05146  23611670.2314   23611674.0074
      -425.4384
  -5936487.43147  -4525003.70947  22140650.0914   22140654.1604
      -440.1954
  10873412.20846   9930898.87645  24818221.4054   24818225.3974
     -3983.0114
  22260216.46547  17454606.00546  23726746.8664   23726751.5344
     -5049.7514
   4263435.65547   3387640.73846  23728662.7664   23728664.0884
     -3255.2734
 06  5  8  1  2  0.0040000  0  7G30G 4G25G 6G 1G 5G 2
   2846264.56748   2300389.28647  21677328.4374   21677330.9984
     -3313.6754
  21936444.65643   1183506.80445  25963319.7434   25963324.7254
     -5083.7884
  -2531852.38047   -531588.89146  23612895.7184   23612899.5274
      -433.2374
  -5929830.80347  -4519816.71947  22141916.7904   22141920.5844
      -447.3504
  10933215.02746   9977498.46345  24829601.4734   24829604.4594
     -3990.7224
  22335993.75947  17513653.24046  23741166.7804   23741170.8564
     -5053.9154
   4312339.54447   3425747.66446  23737968.8764   23737970.5734
     -3265.2594
 06  5  8  1  2 15.0040000  0  7G30G 4G25G 6G 1G 5G 2
   2896027.11848   2339165.30147  21686797.9364   21686800.3714
     -3321.3014
  22012740.22543   1242957.82345  25977838.2704   25977846.8804
     -5088.8844
  -2525295.94847   -526479.98346  23614143.3634   23614146.7954
      -440.9394
  -5923067.72347  -4514546.77747  22143203.7554   22143207.4974
      -454.3724
  10993132.39945  10024187.31145  24841003.3594   24841008.0754
     -3998.2694
  22411832.49547  17572748.34346  23755598.3844   23755602.8234
     -5057.9124
   4361392.43547   3463970.68546  23747303.3344   23747304.9504
     -3275.1074
 06  5  8  1  2 30.0040000  0  7G30G 4G25G 6G 1G 5G 2
   2945905.36548   2378031.46247  21696289.4534   21696291.9214
     -3329.1544
  22089113.78844   1302469.72845  25992371.7444   25992377.1134
     -5094.2294
  -2518622.82847   -521280.14946  23615413.2054   23615416.5314
      -448.8394
  -5916198.05047  -4509193.78647  22144511.0094   22144514.9324
      -461.6244
  11053164.01446  10070965.16246  24852427.0074   24852430.2634
     -4005.9844
  22487732.52947  17631891.21446  23770041.6634   23770046.2454
     -5062.1044
   4410594.21547   3502309.72446  23756666.1304   23756667.6844
     -3285.1474
 06  5  8  1  2 45.0040000  0  7G30G 4G25G 6G 1G 5G 2
   2995900.78948   2416988.93547  21705803.2664   21705805.7684
     -3336.8404
  22165565.92744   1362042.82545  26006920.1654   26006925.8984
     -5099.3244
  -2511831.53247   -515988.22346  23616705.5414   23616708.6284
      -456.6064
  -5909220.54547  -4503756.76447  22145838.7974   22145842.8334
      -468.6494
  11113310.72346  10117832.74645  24863872.5714   24863877.1324
     -4013.5184
  22563694.77547  17691082.56846  23784496.8044   23784501.2684
     -5066.1274
   4459945.91747   3540765.60846  23766057.4484   23766058.4414
     -3295.0214
 06  5  8  1  3  0.0040000  0  7G30G 4G25G 6G 1G 5G 2
   3046011.03848   2456035.87847  21715338.9204   21715341.3954
     -3344.5124
  22242094.40444   1421675.44045  26021483.0934   26021489.5894
     -5104.4854
  -2504924.06947   -510605.78646  23618019.9874   23618023.4214
      -464.4134
  -5902137.18947  -4498237.26047  22147186.7274   22147190.5094
      -475.7844
  11173570.21645  10164788.17446  24875339.5794   24875344.9064
     -4021.0864
  22639716.93047  17750320.59446  23798963.3434   23798967.5424
     -5070.1694
   4509445.21747   3579336.47246  23775476.8454   23775477.4894
     -3304.9054
 06  5  8  1  3 15.0040000  0  7G30G 4G25G 6G 1G 5G 2
   3096236.81348   2495172.83847  21724896.5644   21724899.1974
     -3352.1594
  22318699.85344   1481367.99045  26036060.5634   26036065.8224
     -5109.5014
  -2497899.10247   -505131.79346  23619356.7964   23619359.9444
      -472.1654
  -5894946.72047  -4492634.29147  22148555.0374   22148559.0504
      -482.8234
  11233943.29545  10211832.14345  24886828.2184   24886833.5924
     -4028.5514
  22715800.01247  17809606.11646  23813441.4734   23813445.1944
     -5074.1474
   4559092.97447   3618023.02146  23784924.4994   23784925.3864
     -3314.7044
 06  5  8  1  3 30.0040000  0  7G30G 4G25G 6G 1G 5G 2
   3146577.88648   2534399.65147  21734476.1484   21734478.7074
     -3360.0304
  22395381.47444   1541119.92645  26050652.5814   26050655.8464
     -5114.7334
  -2490757.04547   -499566.54146  23620715.8784   23620718.9994
      -480.1614
  -5887649.73047  -4486948.32147  22149943.6234   22149947.4444
      -490.1224
  11294429.02546  10258963.88845  24898338.2604   24898342.2174
     -4036.2534
  22791943.21847  17868938.47146  23827931.0414   23827935.1184
     -5078.3234
   4608888.47247   3656824.70446  23794400.2724   23794401.5674
     -3324.7364
 06  5  8  1  3 45.0040000  0  7G30G 4G25G 6G 1G 5G 2
   3197035.07648   2573716.94047  21744077.8124   21744080.3894
     -3367.6454
  22472140.09243   1600931.74045  26065259.2164   26065263.3004
     -5119.7864
  -2483496.46147   -493908.94346  23622097.5154   23622101.0134
      -487.9464
  -5880244.86447  -4481178.28847  22151352.7344   22151356.7634
      -497.2144
  11355028.37846  10306184.16146  24909869.9654   24909873.8134
     -4043.6954
  22868147.60647  17928318.50246  23842432.2414   23842436.2014
     -5082.2784
   4658832.72547   3695742.28846  23803904.3574   23803905.8624
     -3334.5404
 06  5  8  1  4  0.0040000  0  7G30G 4G25G 6G 1G 5G 2
   3247607.60148   2613124.09847  21753701.4294   21753704.0304
     -3375.3804
  22548974.40643   1660802.60545  26079880.2954   26079885.8164
     -5124.8444
  -2476117.86247   -488159.39146  23623501.6184   23623505.5304
      -495.8864
  -5872732.88047  -4475324.78947  22152782.2294   22152786.0004
      -504.4184
  11415740.24246  10353492.10246  24921423.0774   24921427.9544
     -4051.2404
  22944412.15747  17987745.40946  23856944.9024   23856949.4114
     -5086.3394
   4708924.72647   3734775.00846  23813436.5704   23813438.5474
     -3344.4284
 06  5  8  1  4 15.0040000  0  7G30G 4G25G 6G 1G 5G 2
   3298295.83048   2652621.42347  21763347.0594   21763349.7004
     -3383.0084
  22625884.81443   1720732.70845  26094515.9054   26094520.6924
     -5129.7954
  -2468620.77247   -482317.49046  23624928.2564   23624932.4734
      -503.7074
  -5865113.30747  -4469387.45847  22154232.1984   22154236.0924
      -511.5184
  11476564.74546  10400887.78846  24932997.6264   24933002.0984
     -4058.6544
  23020737.11947  18047219.41046  23871469.0754   23871472.4254
     -5090.2894
   4759164.79547   3773923.10846  23822996.9604   23822998.8274
     -3354.2264
 06  5  8  1  4 30.0040000  0  7G30G 4G25G 6G 1G 5G 2
   3349100.25548   2692209.28447  21773014.8084   21773017.4544
     -3390.7664
  22702871.49943   1780722.45544  26109166.0334   26109172.4734
     -5134.9144
  -2461004.15147   -476382.46146  23626377.6424   23626381.3484
      -511.7074
  -5857385.24447  -4463365.58747  22155702.8084   22155706.5634
      -518.7484
  11537502.29246  10448371.58746  24944593.6804   24944597.9434
     -4066.2054
  23097123.06147  18106740.92246  23886004.8544   23886008.5514
     -5094.3544
   4809553.48347   3813187.02746  23832585.6314   23832587.2974
     -3364.1164
 06  5  8  1  4 45.0040000  0  7G30G 4G25G 6G 1G 5G 2
   3400019.85548   2731886.88947  21782704.4744   21782706.9124
     -3398.5304
  22779933.12143   1840770.38844  26123830.3804   26123831.5414
     -5140.0254
  -2453268.96247   -470355.04046  23627849.6024   23627853.5094
      -519.7104
  -5849549.75747  -4457260.00947  22157193.8514   22157197.6944
      -526.0404
  11598551.51746  10495942.38746  24956210.9854   24956215.5254
     -4073.7494
  23173568.68847  18166308.93746  23900551.9864   23900555.7634
     -5098.4454
   4860089.37947   3852565.65646  23842202.2984   23842202.9254
     -3374.0494
 06  5  8  1  5  0.0050000  0  7G30G 4G25G 6G 1G 5G 2
   3451058.34748   2771657.14547  21792416.7664   21792419.7554
     -3406.1674
  22857074.87343   1900880.86245  26138509.9494   26138514.6234
     -5144.9654
  -2445413.93147   -464234.23046  23629344.3634   23629348.1054
      -527.6124
  -5841605.68647  -4451069.81747  22158705.5554   22158709.3724
      -533.1544
  11659716.70746  10543603.58946  24967850.3764   24967853.6684
     -4081.1234
  23250079.48247  18225927.71546  23915111.5184   23915115.2244
     -5102.3604
   4910776.22347   3892061.90246  23851847.6904   23851849.0864
     -3383.8084
 06  5  8  1  5 15.0050000  0  8G30G23G 4G25G 6G 1G 5G 2
   3502207.83048   2811513.88347  21802150.1804   21802153.0874
     -3413.7474
       -10.41644                  26114433.4644
         9.2544
  22934285.15542   1961044.82345  26153202.4954   26153214.7694
     -5149.7894
  -2437440.89847   -458021.48246  23630861.5844   23630865.2264
      -535.4524
  -5833555.02847  -4444796.56347  22160237.5274   22160241.1024
      -540.2524
  11720988.37746  10591347.76645  24979510.0044   24979513.9244
     -4088.4264
  23326643.99347  18285588.37546  23929681.2474   23929685.3244
     -5106.2174
   4961606.14047   3931669.62446  23861520.3064   23861521.7724
     -3393.4964
 06  5  8  1  5 30.0050000  0  8G30G23G 4G25G 6G 1G 5G 2
   3553472.16948   2851460.11047  21811905.4504   21811908.6264
     -3421.4354
       -86.31344                  26114419.2714
         0.9394
  23011569.45843   2021266.23445  26167909.2214   26167918.6784
     -5154.7464
  -2429348.55147   -451715.74546  23632401.5144   23632405.0154
      -543.4544
  -5825396.51947  -4438439.28447  22161790.0284   22161794.0914
      -547.4824
  11782370.90246  10639178.28446  24991190.7194   24991194.5034
     -4095.8384
  23403267.77147  18345295.19446  23944262.2594   23944266.2624
     -5110.2184
   5012582.81547   3971391.70846  23871220.8444   23871221.9674
     -3403.3244
 06  5  8  1  5 45.0050000  0  8G30G23G 4G25G 6G 1G 5G 2
   3604850.61548   2891495.26047  21821682.4334   21821685.5014
     -3429.0634
       -38.64945                  26114428.3634
        -7.3574
  23088926.71043   2081544.60844  26182629.9034   26182632.0154
     -5159.6014
  -2421137.46147   -445317.50746  23633964.0474   23633967.5694
      -551.4034
  -5817130.87447  -4431998.51547  22163362.9124   22163366.9984
      -554.6374
  11843863.25245  10687094.39845  25002892.2764   25002895.8374
     -4103.1844
  23479949.94347  18405047.51746  23958854.4124   23958858.9254
     -5114.1224
   5063705.40547   4011227.48746  23880949.1614   23880950.4214
     -3413.0644
 06  5  8  1  6  0.0050000  0  8G30G23G 4G25G 6G 1G 5G 2
   3656343.93348   2931619.93147  21831481.2784   21831484.2464
     -3436.6554
       133.99844                  26114461.2834
       -15.5994
  23166357.64643   2141880.35045  26197364.5844   26197371.8664
     -5164.4634
  -2412806.26747   -438825.65546  23635549.4364   23635552.9054
      -559.3504
  -5808756.84347  -4425473.29347  22164956.4304   22164960.4454
      -561.8094
  11905466.17046  10735096.63845  25014614.9074   25014619.4294
     -4110.4744
  23556691.39447  18464846.04946  23973457.8514   23973461.5904
     -5118.0134
   5114974.83747   4051177.68846  23890705.4014   23890706.7364
     -3422.7894
 06  5  8  1  6 15.0050000  0  8G30G23G 4G25G 6G 1G 5G 2
   3707951.98748   2971833.99147  21841301.9634   21841304.8874
     -3444.3824
       431.39645        53.93645  26114517.9014   26114520.0374
       -24.0064
  23243861.46543   2202272.91644  26212113.0914   26212114.8874
     -5169.3574
  -2404355.24247   -432240.43446  23637157.6214   23637161.1254
      -567.4294
  -5800274.82847  -4418863.92447  22166570.5004   22166574.4994
      -569.1074
  11967178.93445  10783184.48945  25026358.4604   25026363.0134
     -4117.8704
  23633491.48647  18524690.27346  23988072.4284   23988076.5654
     -5121.9724
   5166390.51647   4091241.83846  23900489.4874   23900491.2104
     -3432.6084
 06  5  8  1  6 30.0050000  0  8G30G23G 4G25G 6G 1G 5G 2
   3759674.26748   3012137.05447  21851144.3874   21851147.3964
     -3451.9884
       853.71444       383.02445  26114598.2294   26114600.2574
       -32.3704
  23321437.77243   2262722.05045  26226875.4034   26226881.6684
     -5174.2144
  -2395784.38147   -425561.84646  23638788.6114   23638791.6504
      -575.4264
  -5791684.80847  -4412170.39747  22168205.1234   22168209.5114
      -576.2894
  12029001.10045  10831357.62145  25038122.8114   25038125.4314
     -4125.1544
  23710349.88647  18584579.91946  24002698.0904   24002701.6484
     -5125.8534
   5217952.03347   4131419.63046  23910301.3114   23910303.1024
     -3442.3164
 06  5  8  1  6 45.0050000  0  8G30G23G 4G25G 6G 1G 5G 2
   3811510.91848   3052529.25347  21861008.5784   21861011.5254
     -3459.6244
      1401.43445       809.82645  26114702.4524   26114704.7844
       -40.7554
  23399086.21843   2323227.26744  26241651.3794   26241657.3824
     -5178.9874
  -2387093.29847   -418789.55446  23640442.4994   23640438.7954
      -583.4734
  -5782986.69147  -4405392.63946  22169860.3144   22169864.8634
      -583.5404
  12090932.49645  10879615.84945  25049907.9334   25049911.8814
     -4132.4614
  23787266.53947  18644514.96846  24017334.8414   24017339.1624
     -5129.7774
   5269659.29747   4171710.99846  23920140.8664   23920143.3174
     -3452.0604
 06  5  8  1  7  0.0050000  0  8G30G23G 4G25G 6G 1G 5G 2
   3863462.25548   3093010.81147  21870894.5894   21870897.7064
     -3467.1924
      2075.30244      1334.89145  26114830.6924   26114833.7334
       -49.0564
  23476807.22042   2383789.06945  26256441.1924   26256447.1774
     -5183.7604
  -2378281.20147                  23642119.4044
      -591.4434
  -5774179.74447  -4398530.07347  22171536.2254   22171540.5694
      -590.6934
  12152973.37845  10927959.38745  25061713.9194   25061717.8744
     -4139.6264
  23864242.00046  18704495.83246  24031982.7644   24031986.9344
     -5133.5754
   5321512.55147   4212116.12346  23930008.1994   23930010.4664
     -3461.6884
 06  5  8  1  7 15.0050000  0  8G30G23G 4G25G 6G 1G 5G 2
   3915526.89748   3133580.66247  21880802.1664   21880805.2524
     -3474.7094
      2873.86844      1957.14945  26114982.6384   26114984.4204
       -57.3834
  23554598.67243   2444405.70245  26271244.5634   26271247.5384
     -5188.4014
  -2369349.49447                  23643819.0874
      -599.4094
  -5765265.49947  -4391583.89247  22173232.5454   22173236.8974
      -597.8184
  12215121.87845  10976386.76846  25073540.3814   25073544.7254
     -4146.7684
  23941274.33047  18764521.01346  24046641.5394   24046645.8744
     -5137.3494
   5373510.33447   4252633.87546  23939903.0394   23939904.8844
     -3471.2994
 06  5  8  1  7 30.0050000  0  8G30G23G 4G25G 6G 1G 5G 2
   3967705.04348   3174238.95047  21890731.3484   21890734.5544
     -3482.3804
      3798.13544      2677.30045  26115158.5204   26115161.1304
       -65.8614
  23632460.88843   2505077.51844  26286061.3284   26286064.6764
     -5193.1864
  -2360297.54047                  23645541.6504
      -607.5214
  -5756243.38547  -4384553.67047  22174949.3864   22174953.6944
      -605.1274
  12277378.13445  11024898.09945  25085387.3214   25085392.3724
     -4154.0404
  24018363.93547  18824590.82746  24061311.2144   24061315.3334
     -5141.2594
   5425652.90947   4293264.45146  23949825.4414   23949826.8464
     -3481.0374
 06  5  8  1  7 45.0050000  0  8G30G23G 4G25G 6G 1G 5G 2
   4019998.03048   3214986.72347  21900682.3744   21900685.1664
     -3489.9484
      4849.81144      3496.84145  26115358.6534   26115361.1954
       -74.2844
  23710394.92842   2565805.39945  26300891.6414   26300894.0834
     -5197.8844
  -2351123.63947                  23647287.4144
      -615.5694
  -5747111.78947  -4377438.12947  22176687.0594   22176691.3364
      -612.3424
  12339743.26545  11073494.29945  25097255.0274   25097260.2384
     -4161.2124
  24095512.12747  18884706.29046  24075992.0344   24075996.2474
     -5145.0694
   5477941.44447   4334008.79247  23959775.6184   23959776.1694
     -3490.6814
 06  5  8  1  8  0.0050000  0  8G30G23G 4G25G 6G 1G 5G 2
   4072404.20648   3255822.71547  21910654.9394   21910657.9494
     -3497.4994
      6027.62244      4414.61345  26115582.8244   26115584.4154
       -82.7014
  23788399.01141   2626587.77043  26315735.1564   26315732.3324
     -5202.6094
  -2341829.07747       485.21646  23649056.1314   23649059.9524
      -623.6474
  -5737872.13747  -4370238.39847  22178445.2984   22178449.4934
      -619.5704
  12402215.56845  11122174.03245  25109143.1304   25109147.5964
     -4168.3734
  24172717.20547  18944866.08546  24090683.6764   24090687.8554
     -5148.8814
   5530374.30047                  23969753.2594
     -3500.3194
 06  5  8  1  8 15.0050000  0  7G30G23G25G 6G 1G 5G 2
   4124923.97848   3296747.20247  21920649.1274   21920652.1104
     -3505.1114
      7332.36844      5431.30945  26115831.1234   26115831.4834
       -91.2184
  -2332413.08447      7822.39146  23650847.9444   23650851.7284
      -631.7874
  -5728523.81147  -4362953.98047  22180224.2064   22180228.4444
      -626.8644
  12464795.30845  11170937.44845  25121051.6634   25121055.7974
     -4175.5664
  24249979.52247  19005070.47046  24105386.2064   24105390.1544
     -5152.7274
   5582951.76647                  23979758.4204
     -3509.9804
 06  5  8  1  8 30.0050000  0  7G30G23G25G 6G 1G 5G 2
   4177557.53048   3337760.36147  21930664.9574   21930668.1104
     -3512.6684
      8764.40344      6547.14945  26116103.6374   26116104.5934
       -99.6754
  -2322875.46747     15254.29346  23652662.8994   23652666.1974
      -639.8744
  -5719066.67347  -4355584.77947  22182023.8264   22182027.8324
      -634.0864
  12527482.18845  11219784.35545  25132980.5794   25132984.4374
     -4182.6624
  24327298.99247  19065319.39846  24120099.5954   24120103.8094
     -5156.5064
   5635673.68747     21920.97846  23989791.0784   23989791.7224
     -3519.5784
 06  5  8  1  8 45.0050000  0  7G30G23G25G 6G 1G 5G 2
   4230304.37448   3378861.79147  21940702.3514   21940705.8744
     -3520.2914
     10323.57344      7762.09945  26116400.3474   26116403.5484
      -108.2504
  -2313216.34747     22780.88146  23654500.9704   23654504.2874
      -648.0654
  -5709501.02747  -4348131.02447  22183844.1004   22183847.9204
      -641.4184
  12590275.52246  11268714.22645  25144929.8004   25144934.2884
     -4189.8464
  24404675.02946  19125612.40546  24134823.7474   24134828.6184
     -5160.3644
   5688539.42147     63115.04446  23999851.0904   23999852.4144
     -3529.2584
 06  5  8  1  9  0.0050000  0  7G30G23G25G 6G 1G 5G 2
   4283165.01348   3420051.89747  21950761.3974   21950764.7294
     -3527.8524
     12010.95745      9076.92745  26116721.4884   26116723.8334
      -116.7894
  -2303434.77447     30402.88046  23656362.3484   23656365.7244
      -656.2024
  -5699825.99347  -4340592.04447  22185685.1824   22185689.0344
      -648.6574
  12653175.81145  11317727.43345  25156899.3584   25156902.9924
     -4196.9104
  24482108.27246  19185949.97346  24149558.7894   24149563.7004
     -5164.1214
   5741549.66047    104421.71746  24009938.6124   24009940.2224
     -3538.8364
 06  5  8  1  9 15.0050000  0  7G30G23G25G 6G 1G 5G 2
   4336139.17148   3461330.45947  21960842.0414   21960845.4154
     -3535.4424
     13826.47645     10491.64945  26117066.9804   26117070.8034
      -125.3414
  -2293530.83847     38120.24446  23658247.0084   23658250.4494
      -664.3914
  -5690041.84547  -4332968.02947  22187547.0304   22187550.6574
      -655.9714
  12716182.43245  11366823.49245  25168889.1454   25168893.0044
     -4204.0354
  24559598.23346  19246331.75046  24164304.6364   24164309.8244
     -5167.9394
   5794703.80247    145840.51946  24020053.5064   24020055.7034
     -3548.4584
 06  5  8  1  9 30.0050000  0  7G30G23G25G 6G 1G 5G 2
   4389226.34048   3502697.07147  21970944.1974   21970947.5784
     -3542.9404
     15769.92545     12006.03245  26117436.8304   26117439.8164
      -133.8544
  -2283504.87347     45932.68046  23660154.8974   23660158.1674
      -672.5094
  -5680148.75247  -4325259.11647  22189429.6124   22189433.2414
      -663.2004
  12779294.66046  11416001.83145  25180899.0354   25180903.2794
     -4211.0264
  24637144.35546  19306757.29546  24179061.1774   24179066.0934
     -5171.6404
   5848001.33947    187371.05946  24030195.6944   24030197.5534
     -3557.9784
 06  5  8  1  9 45.0050000  0  7G30G23G25G 6G 1G 5G 2
   4442427.86148   3544152.80147  21981068.1204   21981071.2744
     -3550.5494
     17843.24445     13621.63845  26117831.4114   26117832.7574
      -142.5584
  -2273355.11747     53841.58046  23662086.3414   23662089.7514
      -680.7834
  -5670145.28647  -4317464.20847  22191333.2054   22191336.5604
      -670.5814
  12842513.63745  11465263.36145  25192929.2194   25192932.5334
     -4218.1394
  24714747.89946  19367227.58146  24193828.6654   24193832.9904
     -5175.4614
   5901443.55247    229014.33246  24040365.4174   24040367.1254
     -3567.6234
 06  5  8  1 10  0.0050000  0  7G30G23G25G 6G 1G 5G 2
   4495743.76148   3585697.65147  21991213.8104   21991216.9404
     -3558.1514
     20046.79044     15338.65845  26118250.6924   26118251.9784
      -151.1974
  -2263081.13947     61847.27946  23664041.4204   23664044.7334
      -689.0194
  -5660031.21147  -4309583.10847  22193257.8504   22193261.2054
      -677.9044
  12905839.25545  11514607.97845  25204979.6694   25204985.2504
     -4225.1874
  24792408.95646  19427742.68446  24208607.0904   24208611.7364
     -5179.2604
   5955030.44447    270770.34846  24050562.6684   24050564.4074
     -3577.2254
 06  5  8  1 10 15.0050000  0  7G30G23G25G 6G 1G 5G 2
   4549174.23848   3627331.79047  22001381.3084   22001384.1674
     -3565.8344
     22380.89745     17157.43845  26118694.8444   26118696.4664
      -159.9304
  -2252682.66847     69949.98146  23666020.1814   23666023.4434
      -697.3894
  -5649806.10447  -4301615.48847  22195203.6284   22195207.2644
      -685.3364
  12969271.32845  11564035.59645  25217050.4044   25217054.0924
     -4232.3414
  24870127.46246  19488302.55446  24223396.4334   24223401.3104
     -5183.1294
   6008761.86847    312638.98146  24060787.4134   24060789.2614
     -3586.9084
 06  5  8  1 10 30.0050000  0  7G30G23G25G 6G 1G 5G 2
   4602718.97248   3669054.95847  22011570.5384   22011573.4754
     -3573.3904
     24845.74844     19078.15945  26119163.8354   26119166.2594
      -168.6304
  -2242159.54547     78149.82746  23668022.6574   23668026.0584
      -705.6344
  -5639470.13447  -4293561.48247  22197170.4994   22197174.1994
      -692.6884
  13032809.42245  11613545.80345  25229141.3144   25229146.5214
     -4239.3314
  24947903.17346  19548906.99446  24238196.6564   24238201.2034
     -5186.8824
   6062637.58047    354620.04746  24071039.6154   24071041.6254
     -3596.4574
 06  5  8  1 10 45.0050000  0  7G30G23G25G 6G 1G 5G 2
   4656377.51948   3710866.80947  22021781.4344   22021784.4634
     -3580.9674
     27441.32445     21100.68345  26119657.7394   26119658.3654
      -177.3614
  -2231512.00747     86446.60946  23670048.8064   23670052.2724
      -713.9384
  -5629023.60947  -4285421.33047  22199158.4064   22199162.1014
      -700.0864
  13096452.93845  11663138.13845  25241252.2734   25241257.8964
     -4246.3544
  25025735.54246  19609555.58246  24253007.6894   24253012.4854
     -5190.6594
   6116657.05547    396713.12746  24081319.1844   24081320.8184
     -3606.0364
 06  5  8  1 11  0.0050000  0  7G30G23G25G 6G 1G 5G 2
   4710148.80448   3752766.49947  22032013.7854   22032016.6334
     -3588.5004
     30166.82645     23224.44445  26120176.3764   26120178.8164
      -186.0344
  -2220740.75047     94839.79946  23672098.4964   23672102.1394
      -722.1914
  -5618467.40847  -4277195.71447  22201167.1804   22201170.9844
      -707.3804
  13160200.51445  11712811.54045  25253383.0554   25253388.0994
     -4253.2734
  25103623.41546  19670247.42646  24267829.2714   24267834.1344
     -5194.3554
   6170819.03047    438917.26246  24091625.8734   24091627.8124
     -3615.5174
 06  5  8  1 11 15.0050000  0  7G30G23G25G 6G 1G 5G 2
   4764033.32148   3794754.43047  22042267.6854   22042270.7544
     -3596.0784
     33023.20745     25450.21845  26120719.9294   26120720.2594
      -194.8074
  -2209845.19147    103329.84646  23674171.8444   23674175.3034
      -730.5394
  -5607800.84147  -4268884.10547  22203196.9564   22203200.5324
      -714.7934
  13224052.34445  11762566.19845  25265533.6614   25265537.0414
     -4260.2634
  25181567.12846  19730982.77446  24282661.4784   24282665.5024
     -5198.1204
   6225123.87547    481232.72546  24101959.7484   24101961.3244
     -3625.0844
 06  5  8  1 11 30.0050000  0  7G30G23G25G 6G 1G 5G 2
   4818031.50748   3836830.93847  22052543.2104   22052546.0854
     -3603.6204
     36011.31945     27778.61445  26121288.5704   26121289.2684
      -203.5674
  -2198824.31747    111917.54346  23676269.0334   23676272.7334
      -738.8444
  -5597023.10047  -4260485.85847  22205247.8784   22205251.7044
      -722.1694
  13288008.90145  11812402.46845  25277704.2054   25277707.7174
     -4267.1984
  25259567.23547  19791762.08346  24297504.4284   24297508.8634
     -5201.8214
   6279572.09047    523659.89846  24112320.9044   24112322.2804
     -3634.5994
 06  5  8  1 11 45.0050000  0  7G30G23G25G 6G 1G 5G 2
   4872143.76348   3878996.32747  22062840.4334   22062843.2224
     -3611.3624
     39131.65345     30210.05845  26121882.3564   26121883.5634
      -212.5174
  -2187677.82347    120603.12846  23678390.1244   23678393.5184
      -747.3724
  -5586133.99247  -4252000.83047  22207319.9974   22207323.7664
      -729.7444
  13352070.03545  11862320.25345  25289894.6284   25289899.2944
     -4274.3104
  25337623.79846  19852585.36446  24312358.1164   24312362.0774
     -5205.7384
   6334163.67647    566198.78746  24122709.3384   24122711.2014
     -3644.2864
 06  5  8  1 12  0.0050000  0  7G30G23G25G 6G 1G 5G 2
   4926368.42348   3921249.30547  22073159.0474   22073161.5814
     -3618.6864
     42383.01245     32743.62745  26122501.0464   26122499.0444
      -221.0954
  -2176406.69347    129385.81946  23680534.9484   23680538.6214
      -755.5304
  -5575134.59347  -4243429.86347  22209413.1054   22209416.7814
      -736.9374
  13416234.24645  11912318.31545  25302104.7084   25302109.2554
     -4280.9994
  25415735.40947  19913451.54946  24327222.2704   24327226.7424
     -5209.2294
   6388897.04546    608848.15846  24133124.7414   24133126.7824
     -3653.5834
 06  5  8  1 12 15.0050000  0  7G30G23G25G 6G 1G 5G 2
   4980705.17348   3963589.62447  22083498.9904   22083501.6054
     -3626.1844
     45765.49945     35379.32945  26123144.6934   26123147.3674
      -229.8674
  -2165011.05047    138265.54546  23682703.4654   23682706.9484
      -763.8544
  -5564025.21047  -4234773.18747  22211527.1474   22211530.8454
      -744.2994
  13480500.83245  11962396.18045  25314334.2594   25314339.0454
     -4287.8464
  25493901.60147  19974360.24546  24342096.8144   24342100.8764
     -5212.9004
   6443771.85246    651607.73846  24143567.0504   24143569.2574
     -3663.0164
 06  5  8  1 12 30.0050000  0  7G30G23G25G 6G 1G 5G 2
   5035154.35748   4006017.55447  22093860.3234   22093863.1854
     -3633.5864
     49279.67145     38117.63245  26123813.4354   26123814.8954
      -238.5784
  -2153490.51747    147242.57646  23684895.7414   23684899.4044
      -772.1004
  -5552805.53847  -4226030.57746  22213662.1714   22213666.1634
      -751.5614
  13544869.79245  12012553.79745  25326583.2964   25326587.7614
     -4294.5614
  25572122.43746  20035311.53446  24356981.7614   24356986.3384
     -5216.4374
   6498788.13847    694477.56046  24154036.3024   24154037.6914
     -3672.3734
 06  5  8  1 12 45.0050000  0  7G30G23G25G 6G 1G 5G 2
   5089713.70248   4048531.32247  22104242.6264   22104245.9084
     -3641.1734
     52923.72945     40957.20445  26124506.8894   26124507.6394
      -247.5024
  -2141846.82347    156315.58846  23687111.4504   23687115.0544
      -780.5854
  -5541477.43247  -4217203.48747  22215817.8364   22215821.8624
      -759.0454
  13609338.81745  12062789.38145  25338851.3634   25338855.7654
     -4301.5024
  25650395.74547  20096303.71646  24371876.6854   24371880.8144
     -5220.2034
   6553943.59447    737455.83446  24164532.0344   24164533.0694
     -3681.8904
 06  5  8  1 13  0.0050000  0  7G30G23G25G 6G 1G 5G 2
   5144386.06148   4091133.16347  22114646.4304   22114649.4814
     -3648.5694
     56700.85245     43900.40345  26125225.7004   26125227.5404
      -256.2324
  -2130076.91647    165486.94046  23689351.1794   23689354.5294
      -788.8414
  -5530037.86747  -4208289.54347  22217994.7154   22217998.2644
      -766.3244
  13673910.50945  12113105.00245  25351138.9734   25351144.2484
     -4308.1684
  25728724.27047  20157338.92246  24386782.1234   24386785.5674
     -5223.7104
   6609240.88447    780544.61946  24175054.7594   24175055.6694
     -3691.1914
 06  5  8  1 13 15.0050000  0  7G30G23G25G 6G 1G 5G 2
   5199170.48748   4133822.32147  22125071.5554   22125074.8184
     -3656.1364
     60610.52145     46946.93845  26125969.6624   26125971.4774
      -265.1934
  -2118181.39847    174756.17746  23691614.8204   23691618.3014
      -797.3534
  -5518487.64247  -4199289.36147  22220192.6534   22220196.1984
      -773.8464
  13738583.70145  12163499.69745  25363445.9124   25363450.5864
     -4315.0494
  25807107.05846  20218416.41646  24401697.8794   24401701.6144
     -5227.4484
   6664679.08446    823743.21046  24185604.2974   24185605.7954
     -3700.7064
 06  5  8  1 13 30.0050000  0  7G30G23G25G 6G 1G 5G 2
   5254068.90448   4176600.29947  22135518.3794   22135521.7114
     -3663.6094
     64655.11745     50098.59045  26126739.2904   26126740.6044
      -274.0374
  -2106158.00847    184125.06046  23693902.7914   23693906.1024
      -805.7374
  -5506824.53447  -4190201.21847  22222412.0754   22222415.6724
      -781.2114
  13803360.16045  12213974.84445  25375772.4844   25375775.5784
     -4321.7734
  25885546.03346  20279537.69846  24416624.3474   24416628.3344
     -5231.0464
   6720260.17146    867053.13846  24196181.0134   24196182.9404
     -3710.0684
 06  5  8  1 13 45.0050000  0  7G30G23G25G 6G 1G 5G 2
   5309078.80148   4219465.15247  22145986.4134   22145989.6144
     -3671.0694
     68832.11445     53353.41745  26127534.0964   26127536.0844
      -282.9374
  -2094009.18147    193591.67446  23696214.6294   23696217.6174
      -814.1474
  -5495051.01747  -4181027.03847  22224652.5094   22224655.8954
      -788.6104
  13868236.99945  12264528.25045  25388118.0944   25388122.2524
     -4328.4964
  25964038.43446  20340700.59246  24431560.9734   24431564.8134
     -5234.6434
   6775981.19546    910472.10646  24206784.3704   24206786.1174
     -3719.4364
 06  5  8  1 14  0.0050000  0  7G30G23G25G 6G 1G 5G 2
   5364200.84548   4262417.38447  22156475.7964   22156479.2874
     -3678.5384
     73142.80244     56712.37345  26128354.3774   26128355.7424
      -291.8404
  -2081733.69747    203156.98446  23698550.5754   23698553.3844
      -822.5754
  -5483166.18447  -4171766.12247  22226914.1224   22226917.7544
      -796.0274
  13933214.82945  12315160.32345  25400482.9354   25400485.9564
     -4335.1974
  26042585.03546  20401905.72346  24446507.9184   24446512.0024
     -5238.2344
   6831842.80146    954000.62546  24217414.4924   24217416.4094
     -3728.7984
 06  5  8  1 14 15.0050000  0  7G30G23G25G 6G 1G 5G 2
   5419433.82748   4305456.06147  22166986.2874   22166989.5314
     -3685.8874
     77586.46345     60175.01145  26129199.9654   26129201.8844
      -300.6574
  -2069332.50247    212820.25246  23700910.4394   23700913.6684
      -830.9374
  -5471170.92247  -4162419.16647  22229196.7444   22229200.5954
      -803.3434
  13998292.24245  12365869.98845  25412866.7164   25412870.9654
     -4341.7894
  26121184.55446  20463152.10046  24461464.9304   24461469.3874
     -5241.7064
   6887843.80846    997637.77746  24228071.1174   24228073.3284
     -3738.0244
 06  5  8  1 14 30.0050000  0  7G30G23G25G 6G 1G 5G 2
   5474777.57848   4348581.05847  22177517.8544   22177521.2334
     -3693.2514
     82163.02245     63741.15045  26130070.8694   26130073.5364
      -309.5384
  -2056805.71447    222581.38946  23703294.1984   23703297.7554
      -839.2944
  -5459065.48447  -4152986.35247  22231500.3354   22231504.2054
      -810.6894
  14063468.70945  12416656.80945  25425269.3834   25425275.3004
     -4348.3714
  26199836.64146  20524439.42746  24476431.9454   24476436.6454
     -5245.2034
   6943983.87346   1041383.27246  24238754.2104   24238757.2624
     -3747.2904
 06  5  8  1 14 45.0050000  0  7G30G23G25G 6G 1G 5G 2
   5530231.13348   4391791.61947  22188070.3234   22188073.3764
     -3700.6164
     86871.86245     67410.38645  26130966.9414   26130967.5834
      -318.4104
  -2044153.99147    232439.86646  23705701.7344   23705705.0414
      -847.6744
  -5446850.74747  -4143468.36747  22233824.7204   22233828.5874
      -818.0224
  14128743.04945  12467519.93245  25437690.6594   25437695.8734
     -4354.9464
  26278540.23146  20585766.90146  24491408.7414   24491413.1564
     -5248.6874
   7000261.77446   1085236.16346  24249463.5414   24249465.8064
     -3756.5124
 06  5  8  1 15  0.0050000  0  7G30G23G25G 6G 1G 5G 2
   5585794.89848   4435088.05847  22198643.7614   22198646.9964
     -3707.7964
     91714.02345     71183.52145  26131888.3854   26131890.3664
      -327.1324
  -2031376.29047    242396.51746  23708133.2474   23708136.8084
      -855.9204
  -5434525.65947  -4133864.39347  22236170.1024   22236173.8734
      -825.2164
  14194115.71445  12518459.68345  25450130.7134   25450137.1754
     -4361.3234
  26357296.02746  20647135.03746  24506395.4854   24506400.1804
     -5251.9914
   7056678.09147   1129196.93746  24260199.2094   24260200.5074
     -3765.5694
 06  5  8  1 15 15.0050000  0  7G30G23G25G 6G 1G 5G 2
   5641468.38348   4478469.98647  22209238.0724   22209241.2694
     -3715.3184
     96689.14945     75060.27545  26132835.1584   26132836.9014
      -336.1994
  -2018473.09447    252450.96646  23710588.6404   23710592.2534
      -864.4944
  -5422090.80647  -4124174.90247  22238536.3744   22238540.5924
      -832.7474
  14259585.77745  12569475.32045  25462589.2714   25462592.9104
     -4367.9974
  26436103.18046  20708543.20746  24521391.9954   24521396.3094
     -5255.6174
   7113231.99146   1173264.90346  24270961.0614   24270962.9554
     -3774.9464
 06  5  8  1 15 30.0050000  0  7G30G23G25G 6G 1G 5G 2
   5697252.02948   4521937.76547  22219853.3434   22219856.3984
     -3722.5764
    101797.81845     79041.03645  26133807.2974   26133807.7204
      -345.0454
  -2005443.71947    262603.71546  23713068.0544   23713071.3284
      -872.8234
  -5409545.61347  -4114399.42747  22240923.6554   22240927.6154
      -840.0054
  14325153.37245  12620566.97045  25475066.3214   25475071.2864
     -4374.4044
  26514961.98746  20769991.61146  24536398.3414   24536403.1794
     -5258.9704
   7169923.70847   1217440.26046  24281749.1554   24281750.5654
     -3784.0404
 06  5  8  1 15 45.0050000  0  7G30G23G25G 6G 1G 5G 2
   5753146.08348   4565491.56947  22230489.6134   22230492.7924
     -3729.9824
    107040.92145     83126.61045  26134805.0284   26134807.2544
      -354.0814
  -1992287.47147    272855.33546  23715571.6074   23715575.1944
      -881.3684
  -5396889.63847  -4104537.62047  22243332.0104   22243336.2034
      -847.4764
  14390818.76945  12671734.77845  25487561.9794   25487566.4154
     -4380.9944
  26593872.83846  20831480.58646  24551414.5854   24551419.4474
     -5262.5154
   7226753.55846   1261723.25146  24292563.5344   24292565.1954
     -3793.3124
 06  5  8  1 16  0.0050000  0  7G30G23G25G 6G 1G 5G 2
   5809150.43948   4609131.31847  22241146.8754   22241150.2444
     -3737.3654
    112418.85345     87317.21545  26135828.3934   26135828.4114
      -363.0664
  -1979004.08847    283206.02946  23718099.3604   23718103.2844
      -889.8614
  -5384122.47747  -4094589.18847  22245761.5154   22245765.5514
      -854.8884
  14456581.70145  12722978.64245  25500076.2214   25500081.2914
     -4387.4984
  26672835.68946  20893010.06946  24566440.7264   24566444.9114
     -5265.9724
   7283721.54247   1306113.86946  24303404.2144   24303405.6914
     -3802.5144
 06  5  8  1 16 15.0050000  0  7G30G23G25G 6G 1G 5G 2
   5865264.98848   4652856.94247  22251825.1064   22251828.4514
     -3744.5794
    117931.49344     91612.76845  26136877.3644   26136878.9334
      -371.9464
  -1965593.65947    293655.71546  23720651.2824   23720654.7844
      -898.2134
  -5371244.59047  -4084554.46647  22248212.0964   22248216.1164
      -862.1754
  14522441.50245  12774297.93945  25512608.9314   25512613.5654
     -4393.8274
  26751849.98746  20954579.64746  24581476.6404   24581481.5494
     -5269.2804
   7340827.04147   1350611.65846  24314271.0774   24314272.2714
     -3811.5664
 06  5  8  1 16 30.0050000  0  7G30G23G25G 6G 1G 5G 2
   5921488.66748   4696667.59847  22262524.1024   22262527.7374
     -3751.9254
    123578.12645     96012.78645  26137951.9104   26137953.6874
      -380.9584
  -1952057.07247    304203.70946  23723227.1974   23723230.8144
      -906.7134
  -5358256.58447  -4074433.93847  22250683.6354   22250687.6524
      -869.5714
  14588397.05545  12825691.88045  25525159.8644   25525164.7834
     -4400.2634
  26830914.72746  21016188.51446  24596522.1474   24596527.0284
     -5272.7144
   7398068.88347   1395215.69246  24325163.8774   24325164.7624
     -3820.7084
 06  5  8  1 16 45.0050000  0  7G30G23G25G 6G 1G 5G 2
   5977822.43348   4740564.03147  22273244.0524   22273247.5934
     -3759.1964
    129360.36645    100518.43745  26139052.2084   26139053.7324
      -389.9594
  -1938392.64947    314851.31246  23725827.4394   23725831.0544
      -915.1704
  -5345157.24347  -4064226.66247  22253176.3654   22253180.4464
      -876.9484
  14654449.26645  12877161.11445  25537729.1974   25537735.1494
     -4406.6344
  26910031.01446  21077837.56146  24611577.4734   24611582.1224
     -5276.0874
   7455448.07647   1439926.73746  24336082.8184   24336083.9844
     -3829.7964
 06  5  8  1 17  0.0050000  0  7G30G23G25G 6G 1G 5G 2
   6034266.27748   4784546.24447  22283984.9584   22283988.4684
     -3766.6114
    135278.19645    105129.72645  26140178.3234   26140180.1674
      -399.0894
  -1924600.34947    325598.56346  23728452.0134   23728455.5124
      -923.7884
  -5331946.55247  -4053932.60247  22255690.2704   22255694.1504
      -884.4674
  14720597.78645  12928705.44645  25550316.8374   25550322.3974
     -4413.1424
  26989198.64846  21139526.61846  24626642.5634   24626647.1364
     -5279.5894
   7512964.34347   1484744.60446  24347027.8144   24347029.3984
     -3839.0114
 06  5  8  1 17 15.0050000  0  8G30G23G 7G25G 6G 1G 5G 2
   6090820.14648   4828614.18647  22294746.8044   22294750.4174
     -3773.9154
    141332.29345    109847.20445  26141330.4034   26141333.3174
      -408.1194
    -11431.36743                  26277936.6204
      1428.6514
  -1910679.76047    336445.77846  23731101.0064   23731104.2964
      -932.3054
  -5318624.07647  -4043551.44747  22258225.4504   22258229.5194
      -891.8564
  14786842.44145  12980324.62545  25562922.8024   25562928.2564
     -4419.4954
  27068417.74846  21201255.76646  24641717.4554   24641722.4224
     -5282.9604
   7570617.73747   1529669.32346  24357998.9034   24357999.9974
     -3848.1164
 06  5  8  1 17 30.0050000  0  8G30G23G 7G25G 6G 1G 5G 2
   6147483.75248   4872767.64247  22305529.5324   22305533.0304
     -3781.3204
    147522.38245    114670.69345  26142508.3434   26142510.9904
      -417.2934
    -32849.70043                  26273861.3784
      1427.0514
  -1896631.23847    347392.67046  23733774.3394   23733777.5094
      -940.9334
  -5305190.44247  -4033083.68547  22260781.7854   22260785.7424
      -899.3904
  14853182.44045  13032018.13345  25575546.8654   25575552.2814
     -4425.9374
  27147687.60646  21263024.47446  24656802.0034   24656806.7834
     -5286.4274
   7628407.66246   1574700.42046  24368995.9534   24368996.9314
     -3857.2904
 06  5  8  1 17 45.0050000  0  8G30G23G 7G25G 6G 1G 5G 2
   6204257.18548   4917006.68147  22316333.1614   22316336.6904
     -3788.5314
    153849.09145    119600.60445  26143712.2504   26143713.9394
      -426.3504
    -54245.32443                  26269790.0544
      1425.6124
  -1882454.20747    358439.71046  23736472.1474   23736475.3864
      -949.4324
  -5291645.04647  -4022528.82447  22263359.3874   22263363.5924
      -906.7604
  14919617.90945  13083786.02445  25588189.1154   25588193.5574
     -4432.2044
  27227008.48946  21324832.95046  24671896.2674   24671900.9414
     -5289.7674
   7686334.28446   1619838.03546  24380019.0144   24380020.3164
     -3866.3314
 06  5  8  1 18  0.0050000  0  8G30G23G 7G25G 6G 1G 5G 2
   6261139.64848   4961330.67947  22327157.5384   22327160.7934
     -3795.7794
    160312.12445    124636.70645  26144942.1084   26144944.1204
      -435.3844
    -75618.53443                  26265722.9784
      1424.1584
  -1868148.93847    369586.66946  23739194.3594   23739197.7634
      -957.9344
  -5277988.36447  -4011887.24847  22265958.1644   22265962.2854
      -914.1154
  14986147.95345  13135627.57945  25600849.4064   25600854.2084
     -4438.4534
  27306379.64746  21386680.60246  24687000.0854   24687004.9524
     -5293.0474
   7744396.69746   1665081.46246  24391067.9124   24391069.5224
     -3875.3274
 06  5  8  1 18 15.0050000  0  8G30G23G 7G25G 6G 1G 5G 2
   6318130.67148   5005739.26247  22338002.5754   22338005.7134
     -3803.0264
    166910.95845    129778.66145  26146197.8284   26146199.3964
      -444.4604
    -96969.93343                  26261660.0404
      1422.6744
  -1853716.09047    380833.04946  23741940.8404   23741944.1904
      -966.4504
  -5264221.01947  -4001159.44247  22268577.9964   22268581.7794
      -921.5194
  15052771.53545  13187542.08445  25613527.4694   25613532.9584
     -4444.6944
  27385800.20946  21448566.73446  24702113.2964   24702118.4034
     -5296.3624
   7802594.00346   1710429.99746  24402142.4854   24402144.7024
     -3884.3214
 06  5  8  1 18 30.0060000  0  8G30G23G 7G25G 6G 1G 5G 2
   6375234.19648   5050235.50947  22348869.0274   22348872.1094
     -3810.2644
    173646.65345    135027.26745  26147479.5734   26147482.9214
      -453.5834
   -118300.60144     -6645.27545  26257601.0004   26257606.6564
      1421.2154
  -1839154.15247    392180.01446  23744711.8844   23744715.1144
      -975.0044
  -5250341.76447  -3990344.43847  22271219.1264   22271222.9094
      -928.9404
  15119493.14445  13239532.93045  25626224.1514   25626228.9884
     -4450.9224
  27465275.62546  21510495.62246  24717236.9884   24717241.7314
     -5299.6584
   7860930.24246   1755886.79746  24413243.5044   24413245.8894
     -3893.3034
 06  5  8  1 18 45.0060000  0  8G30G23G 7G25G 6G 1G 5G 2
   6432441.67548   5094812.77047  22359755.2544   22359758.5524
     -3817.4414
    180517.90845    140381.47945  26148787.1294   26148789.7284
      -462.6224
   -139607.90944    -23248.33745  26253546.4104   26253553.3204
      1419.7454
  -1824465.53547    403625.69646  23747507.0294   23747510.3834
      -983.5194
  -5236352.94247  -3979444.05347  22273881.1034   22273884.9484
      -936.2794
  15186302.89445  13291592.44445  25638937.6644   25638941.7514
     -4457.0724
  27544794.59246  21572458.45146  24732368.9664   24732373.0644
     -5302.8924
   7919396.65347   1801445.02746  24424369.3174   24424371.0204
     -3902.2414
 06  5  8  1 19  0.0060000  0  8G30G23G 7G25G 6G 1G 5G 2
   6489758.32948   5139475.09347  22370662.2524   22370665.4274
     -3824.7594
    187526.54845    145842.76945  26150120.8274   26150122.0164
      -471.8394
   -160891.81943    -39833.19645  26249496.2344   26249502.6184
      1418.1574
  -1809647.80747    415171.97646  23750326.7464   23750330.7074
      -992.1624
  -5222252.24147  -3968456.48247  22276564.3744   22276568.2244
      -943.7744
  15253206.22445  13343724.93045  25651668.9864   25651672.7264
     -4463.3424
  27624363.48446  21634460.17646  24747510.4444   24747515.0204
     -5306.2574
   7977998.26447   1847108.61646  24435520.8604   24435522.6104
     -3911.2904
 06  5  8  1 19 15.0060000  0  8G30G23G 7G25G 6G 1G 5G 2
   6547184.59448   5184222.82947  22381590.1064   22381593.2744
     -3831.9974
    194673.78245    151412.02545  26151480.8934   26151481.3794
      -481.0254
   -182151.59843    -56399.20345  26245450.6484   26245456.1484
      1416.5744
  -1794699.99347    426819.62946  23753171.2094   23753174.8184
     -1000.7914
  -5208038.93347  -3957381.17547  22279269.0714   22279272.9314
      -951.2204
  15320203.55845  13395930.62945  25664418.1584   25664422.2244
     -4469.5394
  27703982.87546  21696501.26046  24762661.5284   24762665.6254
     -5309.5674
   8036735.54947   1892877.90946  24446698.2314   24446699.6724
     -3920.2534
 06  5  8  1 19 30.0060000  0  8G30G23G 7G25G 6G 1G 5G 2
   6604719.10648   5229054.91747  22392538.5534   22392541.8624
     -3839.2214
    201958.36445    157088.34345  26152867.0994   26152867.8724
      -490.1994
   -203388.24043    -72947.20845  26241409.4234   26241414.4884
      1415.0254
  -1779623.27247    438567.72646  23756040.2184   23756044.1994
     -1009.4024
  -5193714.17447  -3946219.02447  22281994.9734   22281998.8964
      -958.6824
  15387293.26945  13448208.29045  25677184.9174   25677188.8264
     -4475.7014
  27783651.29646  21758580.54146  24777821.9544   24777825.7174
     -5312.8444
   8095606.94047   1938751.72546  24457901.1124   24457902.6884
     -3929.2164
 06  5  8  1 19 45.0060000  0  8G30G23G 7G25G 6G 1G 5G 2
   6662361.60148   5273971.14647  22403507.5574   22403511.0614
     -3846.3844
    209380.34945    162871.71145  26154279.4414   26154281.2464
      -499.3514
   -224601.69943    -89477.18345  26237372.6424   26237377.0874
      1413.4704
  -1764417.69947    450416.22346  23758933.7534   23758937.3084
     -1017.9864
  -5179278.19447  -3934970.19947  22284742.0454   22284746.0584
      -966.0944
  15454474.79945  13500557.52045  25689969.1504   25689973.6304
     -4481.7844
  27863368.40246  21820697.76746  24792991.6284   24792995.6124
     -5316.0644
   8154612.14247   1984729.79546  24469129.4504   24469130.8834
     -3938.1024
 06  5  8  1 20  0.0060000  0  8G30G23G 7G25G 6G 1G 5G 2
   6720112.35948   5318971.73047  22414497.1604   22414500.7184
     -3853.6664
    216940.63945    168762.82145  26155718.0834   26155719.5624
      -508.6284
   -245791.39544   -105988.60545  26233340.3874   26233343.2944
      1411.8484
  -1749082.56747    462365.67346  23761851.9384   23761855.3254
     -1026.6684
  -5164730.39547  -3923634.24947  22287510.3874   22287514.3094
      -973.5914
  15521748.36445  13552978.47645  25702770.8854   25702775.6294
     -4487.9694
  27943134.55346  21882853.19046  24808170.6194   24808175.4964
     -5319.3874
   8213751.35447   2030812.28946  24480383.2784   24480384.6794
     -3947.0814
 06  5  8  1 20 15.0060000  0  8G30G23G 7G25G 6G 1G 5G 2
   6777971.83248   5364057.02747  22425507.4474   22425510.8534
     -3860.9554
    224639.73245    174762.14945  26157183.1644   26157184.8584
      -517.9194
   -266956.80443   -122481.11545  26229312.7544   26229316.3474
      1410.1824
  -1733617.34147    474416.49946  23764794.8794   23764798.1804
     -1035.3804
  -5150070.32947  -3912210.81447  22290300.0994   22290304.3324
      -981.1174
  15589114.00745  13605471.18645  25715590.1144   25715594.1614
     -4494.1234
  28022949.99946  21945047.04646  24823359.0034   24823363.5754
     -5322.6914
   8273024.75046   2076999.33846  24491662.6394   24491664.7024
     -3956.0604
 06  5  8  1 20 30.0060000  0  8G30G23G 7G25G 6G 1G 5G 2
   6835939.53248   5409226.65847  22436538.3374   22436541.7284
     -3868.0804
    232477.49345    180869.49845  26158674.6644   26158676.0984
      -527.1014
   -288097.87743   -138954.61845  26225289.6844   26225295.5774
      1408.6204
  -1718022.03947    486568.68246  23767762.5674   23767765.8034
     -1043.9844
  -5135298.04947  -3900699.94747  22293111.1704   22293115.1004
      -988.5234
  15656571.22645  13658035.22945  25728426.7594   25728432.9464
     -4500.1514
  28102814.34146  22007278.99046  24838556.6864   24838561.3674
     -5325.8714
   8332431.88746   2123290.59546  24502967.4594   24502969.2914
     -3964.8864
 06  5  8  1 20 45.0060000  0  8G30G23G 7G25G 6G 1G 5G 2
   6894015.52048   5454480.67347  22447589.8424   22447593.0854
     -3875.3544
    240454.31645    187085.17445  26160192.6134   26160194.3184
      -536.4414
   -309214.37443   -155409.03845  26221271.3174   26221277.6364
      1406.9444
  -1702296.44847    498822.38946  23770755.0574   23770758.3794
     -1052.7364
  -5120413.43147  -3889101.53447  22295943.6214   22295947.4344
      -996.0514
  15724119.63245  13710670.29145  25741280.8164   25741286.3504
     -4506.2734
  28182727.43646  22069548.93046  24853763.6584   24853768.4614
     -5329.1674
   8391972.52247   2169685.88246  24514297.6834   24514299.3554
     -3973.8254
 06  5  8  1 21  0.0060000  0  8G30G23G 7G25G 6G 1G 5G 2
   6952199.14748   5499818.56047  22458661.8304   22458665.1534
     -3882.4864
    248569.87145    193408.99245  26161736.9734   26161738.9774
      -545.6864
   -330306.67543   -171844.57845  26217257.5654   26217263.9374
      1405.3224
  -1686440.99447    511177.29146  23773772.2474   23773775.4594
     -1061.3784
  -5105417.04547  -3877416.03347  22298797.3324   22298800.9364
     -1003.4944
  15791758.43745  13763375.88045  25754152.0664   25754157.3954
     -4512.2624
  28262688.61646  22131856.33546  24868979.7904   24868983.8704
     -5332.3544
   8451645.83846   2216184.55946  24525653.1444   24525654.7884
     -3982.6544
 06  5  8  1 21 15.0060000  0  8G30G23G 7G25G 6G 1G 5G 2
   7010491.16148   5545240.90547  22469754.4484   22469757.3604
     -3889.7924
    256825.32945    199841.82845  26163307.9234   26163308.9974
      -555.0854
   -351373.64844   -188260.38045  26213248.6774   26213252.1694
      1403.5734
  -1670454.50547    523634.30046  23776814.3744   23776818.0604
     -1070.1754
  -5090307.77347  -3865642.57347  22301672.5214   22301676.4314
     -1011.0944
  15859488.25845  13816152.32145  25767040.6644   25767045.5824
     -4518.3874
  28342698.68746  22194201.83346  24884205.2414   24884210.0184
     -5335.6734
   8511452.62247   2262787.24646  24537034.0154   24537035.5964
     -3991.6224
 06  5  8  1 21 30.0060000  0  8G30G23G 7G25G 6G 1G 5G 2
   7068890.06948   5590746.55547  22480867.4104   22480869.9074
     -3896.8294
    265219.53445    206382.78545  26164905.2904   26164907.8994
      -564.2374
   -372416.53943   -204657.44445  26209244.3084   26209248.8844
      1402.0584
  -1654338.34747    536192.34246  23779881.1744   23779884.5504
     -1078.7394
  -5075087.08447  -3853782.29147  22304568.9094   22304572.9194
     -1018.4314
  15927307.36045  13868998.38245  25779946.2424   25779950.3894
     -4524.2464
  28422756.03246  22256584.17446  24899439.6814   24899443.7634
     -5338.7254
   8571391.27746   2309492.68446  24548439.9664   24548441.5794
     -4000.2914
 06  5  8  1 21 45.0060000  0  8G30G23G 7G25G 6G 1G 5G 2
   7127395.72448   5636335.37147  22492000.6734   22492003.3324
     -3903.9404
    273752.64845    213031.95845  26166529.0804   26166528.9184
      -573.5094
   -393435.21243   -221035.57945  26205244.5414   26205249.8414
      1400.4324
  -1638092.25247    548851.63546  23782972.7034   23782976.3664
     -1087.4164
  -5059754.94047  -3841835.16247  22307486.5124   22307490.7564
     -1025.8594
  15995215.35745  13921913.70345  25792868.7304   25792872.5774
     -4530.1564
  28502860.46346  22319003.20746  24914683.0774   24914687.4524
     -5341.8644
   8631461.37746   2356300.53846  24559870.9254   24559872.7934
     -4009.0634
 06  5  8  1 22  0.0060000  0  8G30G23G 7G25G 6G 1G 5G 2
   7186009.22848   5682008.23547  22503154.4574   22503157.2574
     -3911.1804
    282426.08245    219790.49045  26168179.6094   26168181.3094
      -582.9244
   -414428.27943   -237393.77945  26201249.6614   26201254.7344
      1398.6534
  -1621714.95747    561613.15746  23786089.2014   23786093.0504
     -1096.2184
  -5044310.02547  -3829800.15947  22310425.5714   22310429.3334
     -1033.4464
  16063213.13745  13974898.94945  25805808.3034   25805812.3334
     -4536.1904
  28583013.02446  22381459.74446  24929935.5974   24929939.0584
     -5345.1184
   8691663.93646   2403211.61146  24571327.1024   24571328.9584
     -4017.9374
 06  5  8  1 22 15.0060000  0  8G30G23G 7G25G 6G 1G 5G 2
   7244730.96548   5727765.42347  22514328.8314   22514331.8864
     -3918.3374
    291240.41745    226658.77645  26169856.9344   26169858.6054
      -592.2984
   -435395.02043   -253731.50045  26197259.7974   26197264.7314
      1396.9264
  -1605205.78747    574477.45146  23789230.7894   23789234.7094
     -1104.9734
  -5028751.79947  -3817676.87147  22313386.1974   22313390.1014
     -1040.9634
  16131300.87045  14027954.31945  25818764.9654   25818769.5354
     -4542.1414
  28663214.04246  22443954.03146  24945197.3254   24945202.0484
     -5348.3144
   8751999.20847   2450226.10046  24582808.5324   24582810.0124
     -4026.7404
 06  5  8  1 22 30.0060000  0  8G30G23G 7G25G 6G 1G 5G 2
   7303561.32848   5773607.26447  22525523.8774   22525526.9334
     -3925.5804
    300196.63645    233637.63345  26171561.2834   26171562.5664
      -601.7414
   -456334.65644   -270048.05845  26193275.1844   26193280.2414
      1395.1624
  -1588564.01947    587445.06146  23792397.6084   23792401.6324
     -1113.8014
  -5013079.61547  -3805464.77647  22316368.5124   22316372.1584
     -1048.5384
  16199478.75845  14081079.93745  25831738.7844   25831741.4374
     -4548.1224
  28743463.96946  22506486.43746  24960468.3574   24960472.6254
     -5351.5604
   8812467.47847   2497344.22546  24594315.2864   24594316.2344
     -4035.5774
 06  5  8  1 22 45.0060000  0  8G30G23G 7G25G 6G 1G 5G 2
   7362498.64948   5819532.44247  22536739.2644   22536742.4814
     -3932.6694
    309293.12845    240725.84045  26173292.2784   26173294.7174
      -611.0694
   -477248.96444   -286344.90345  26189295.3454   26189299.4144
      1393.4784
  -1571791.13747    600514.83546  23795589.3754   23795592.9884
     -1122.5224
  -4997295.20647  -3793165.22947  22319372.1854   22319375.9254
     -1055.9654
  16267744.77045  14134274.25345  25844729.3964   25844733.6944
     -4553.9534
  28823760.89246  22569055.44946  24975748.3324   24975752.6924
     -5354.6434
   8873066.90147   2544564.53946  24605846.9974   24605848.3904
     -4044.2924
 06  5  8  1 23  0.0060000  0  8G30G23G 7G25G 6G 1G 5G 2
   7421544.32348   5865542.05147  22547975.2874   22547978.9684
     -3939.9624
    318531.82345    247924.82345  26175050.3044   26175052.3524
      -620.6404
   -498135.84043   -302620.35545  26185320.6884   26185326.6794
      1391.5584
  -1554885.40647    613688.14046  23798806.4124   23798810.1924
     -1131.4604
  -4981396.65147  -3780776.73647  22322397.5814   22322401.8214
     -1063.6934
  16336100.26345  14187538.28745  25857736.9764   25857742.3614
     -4559.9894
  28904106.35946  22631662.29646  24991037.5404   24991041.4724
     -5357.9454
   8933798.96847   2591888.22346  24617403.9584   24617405.2464
     -4053.2014
 06  5  8  1 23 15.0060000  0  8G30G23G 7G25G 6G 1G 5G 2
   7480695.66348   5911633.99947  22559231.4214   22559235.0464
     -3946.9904
    327910.32245    255232.72345  26176834.9824   26176837.5154
      -629.9574
   -518997.71644   -318876.29745  26181350.8154   26181356.7264
      1389.9104
  -1537849.24747    626963.06646  23802048.2654   23802051.7664
     -1140.1454
  -4965386.55647  -3768301.33447  22325444.2044   22325448.3434
     -1071.1074
  16404542.35245  14240869.74245  25870761.0294   25870764.9184
     -4565.7374
  28984497.58346  22694304.79746  25006335.4814   25006340.1534
     -5360.9804
   8994660.72047   2639312.94346  24628985.5814   24628987.0894
     -4061.8084
 06  5  8  1 23 30.0060000  0  8G30G23G 7G25G 6G 1G 5G 2
   7539955.07348   5957810.16247  22570508.1134   22570511.7084
     -3954.2394
    337431.33045    262651.71245  26178646.7454   26178649.9104
      -639.5204
   -539832.08445   -335110.91245  26177386.2264   26177392.4354
      1388.0114
  -1520679.99447    640341.70846  23805315.4474   23805318.9634
     -1149.0794
  -4949262.51147  -3755737.13247  22328512.5074   22328516.4774
     -1078.7594
  16473073.13545  14294270.34345  25883801.9834   25883806.9074
     -4571.6864
  29064936.91546  22756984.79546  25021642.5854   25021646.8694
     -5364.2564
   9055654.42646   2686840.49946  24640592.3044   24640594.3884
     -4070.6564
 06  5  8  1 23 45.0060000  0  8G30G23G 7G25G 6G 1G 5G 2
   7599322.17448   6004070.23447  22581805.3114   22581808.7294
     -3961.3454
    347094.88245    270181.75045  26180485.6864   26180488.4714
      -648.9354
   -560638.92944   -351323.99745  26173426.8174   26173431.9234
      1386.2624
  -1503377.72647    653824.00146  23808607.9354   23808611.6664
     -1157.8724
  -4933024.59247  -3743084.20247  22331602.4814   22331606.2494
     -1086.2604
  16541692.03545  14347739.59445  25896859.7184   25896864.6814
     -4577.4544
  29145423.99446  22819701.99346  25036958.7694   25036962.8714
     -5367.3344
   9116779.52046   2734470.43346  24652224.0264   24652225.9784
     -4079.3304
 06  5  8  1 24  0.0060000  0  8G30G23G 7G25G 6G 1G 5G 2
   7658797.35948   6050414.52947  22593123.0824   22593126.2184
     -3968.6404
    356901.71345    277823.39945  26182351.9004   26182352.7414
      -658.5954
   -581417.37844   -367515.00145  26169472.7804   26169477.7284
      1384.2444
  -1485941.74347    667410.48046  23811925.8744   23811929.4444
     -1166.8864
  -4916672.19347  -3730342.07347  22334714.2444   22334717.9384
     -1094.0084
  16610399.25045  14401277.65445  25909934.2624   25909938.1274
     -4583.4544
  29225959.11646  22882456.63046  25052284.0874   25052289.1274
     -5370.6344
   9178036.36446   2782203.03546  24663880.8114   24663883.0764
     -4088.2164
 06  5  8  1 24 15.0060000  0  8G30G23G 7G25G 6G 1G 5G 2
   7718378.94548   6096841.74247  22604461.0924   22604464.0844
     -3975.6384
    366850.58345    285575.79945  26184245.0894   26184245.9304
      -667.9594
   -602168.86045   -383684.96945  26165523.8774   26165528.4684
      1382.5654
  -1468373.44247    681100.06846  23815268.9934   23815272.5604
     -1175.6174
  -4900206.72147  -3717511.84047  22337847.5234   22337851.2394
     -1101.4384
  16679193.07945  14454883.23945  25923025.2944   25923029.8144
     -4589.1084
  29306540.72646  22945247.48746  25067618.2324   25067623.6254
     -5373.6264
   9239423.24646   2830036.95146  24675562.3644   24675564.5144
     -4096.7534
 06  5  8  1 24 30.0060000  0  8G30G23G 7G25G 6G 1G 5G 2
   7778067.80948   6143352.54447  22615819.5104   22615822.7774
     -3982.8804
    376942.21345    293439.41045  26186165.4684   26186167.3114
      -677.6004
   -622892.63945   -399833.32545  26161580.2934   26161584.5634
      1380.5954
  -1450671.97847    694893.41046  23818637.4664   23818641.5584
     -1184.5974
  -4883627.55447  -3704593.01147  22341002.4324   22341006.2304
     -1109.1184
  16748073.75645  14508556.44845  25936132.8574   25936137.7534
     -4594.9934
  29387169.26646  23008074.91146  25082961.3274   25082966.4654
     -5376.8494
   9300940.44047   2877972.41746  24687268.7234   24687270.6684
     -4105.5474
 06  5  8  1 24 45.0060000  0  8G30G23G 7G25G 6G 1G 5G 2
   7837863.50648   6189946.59047  22627198.2524   22627201.2954
     -3989.9474
    387176.73145    301414.38345  26188112.9924   26188114.8274
      -687.0644
   -643588.56945   -415960.00945  26157641.9874   26157646.4604
      1378.7844
  -1432837.30847    708790.55646  23822031.2954   23822034.8034
     -1193.4284
  -4866934.74847  -3691585.63147  22344178.9604   22344182.9774
     -1116.6454
  16817040.83145  14562297.05545  25949256.8904   25949261.2774
     -4600.6714
  29467844.41646  23070938.63346  25098313.3064   25098318.2634
     -5379.9084
   9362587.62347   2926009.19446  24698999.8134   24699001.4384
     -4114.1594
 06  5  8  1 25  0.0060000  0  8G30G23G 7G25G 6G 1G 5G 2
   7897766.36548   6236624.13747  22638597.3874   22638600.5934
     -3997.1354
    397554.87445    309501.25245  26190087.8734   26190088.5764
      -696.7114
   -664255.89645   -432064.40045  26153709.1004   26153714.0524
      1376.8314
  -1414868.76647    722792.01146  23825450.5964   23825454.1414
     -1202.4004
  -4850127.65447  -3678489.18447  22347377.2334   22347381.3684
     -1124.2964
  16886094.49845  14616105.11845  25962397.4484   25962401.7824
     -4606.5014
  29548566.58546  23133839.03246  25113674.2324   25113679.4594
     -5383.0684
   9424365.20046   2974147.56546  24710755.7054   24710757.3964
     -4122.8794
 06  5  8  1 25 15.0060000  0  8G30G23G 7G25G 6G 1G 5G 2
   7957776.24448   6283385.07847  22650016.8934   22650020.2374
     -4004.2524
    408076.69245    317700.05145  26192090.0834   26192090.9004
      -706.2764
   -684894.51944   -448146.45945  26149781.6844   26149786.3034
      1374.9274
  -1396766.29847    736897.83246  23828895.3834   23828899.1004
     -1211.3214
  -4833206.25047  -3665303.67347  22350597.2534   22350601.3834
     -1131.9304
  16955234.32345  14669980.26845  25975554.3804   25975557.1384
     -4612.2134
  29629335.54146  23196775.87446  25129044.0654   25129049.3754
     -5386.1884
   9486272.85746   3022387.28146  24722536.3484   24722537.9054
     -4131.5394
 06  5  8  1 25 30.0060000  0  8G30G23G 7G25G 6G 1G 5G 2
   8017892.31948   6330228.76447  22661456.6064   22661459.9804
     -4011.2734
    418741.73845    326010.48445  26194119.5894   26194120.0724
      -715.7794
   -705504.96544   -464206.50045  26145859.5884   26145865.2194
      1373.1114
  -1378530.43347    751107.60546  23832365.5474   23832369.4934
     -1220.1654
  -4816171.19247  -3652029.60447  22353838.9004   22353843.0804
     -1139.4384
  17024459.32745  14723921.84545  25988727.4694   25988731.3184
     -4617.8144
  29710150.49846  23259748.55146  25144422.6554   25144427.3594
     -5389.1794
   9548309.57946   3070727.58646  24734341.5354   24734343.2584
     -4140.0694
 06  5  8  1 25 45.0060000  0  8G30G23G 7G25G 6G 1G 5G 2
   8078114.34548   6377155.00947  22672916.4914   22672919.6874
     -4018.3844
    429550.31245    334432.74245  26196176.3874   26196177.9894
      -725.4124
   -726087.17545   -480244.55745  26141942.8894   26141948.1794
      1371.1774
  -1360161.09447    765421.37446  23835861.1114   23835864.6954
     -1229.1274
  -4799022.54547  -3638667.01347  22357102.1644   22357106.3144
     -1147.0624
  17093769.06145  14777929.37245  26001916.7274   26001921.8724
     -4623.5204
  29791011.14346  23322756.85546  25159809.9434   25159815.2614
     -5392.2764
   9610474.99346   3119168.14746  24746171.2164   24746173.0904
     -4148.7024
 06  5  8  1 26  0.0060000  0  8G30G23G 7G25G 6G 1G 5G 2
   8138444.17848   6424165.26947  22684396.8894   22684400.0054
     -4025.5674
    440504.20545    342968.29745  26198260.8324   26198262.6164
      -735.1204
   -746639.14744   -496259.07345  26138031.9724   26138035.2934
      1369.1234
  -1341656.40147    779840.61946  23839382.4234   23839386.0584
     -1238.1684
  -4781758.55347  -3625214.54247  22360387.3774   22360391.4844
     -1154.7784
  17163164.95545  14832004.08045  26015122.3974   26015127.0674
     -4629.2544
  29871919.15046  23385802.02946  25175206.2484   25175210.8474
     -5395.4424
   9672770.64746   3167710.20346  24758025.6564   24758027.1844
     -4157.3744
 06  5  8  1 26 15.0060000  0  8G30G23G 7G25G 6G 1G 5G 2
   8198881.02348   6471258.91047  22695897.6484   22695900.7674
     -4032.6154
    451603.11145    351616.80745  26200372.8774   26200375.2924
      -744.6904
   -767161.10843   -512250.20345  26134126.7564   26134131.3564
      1367.2004
  -1323016.57847    794365.15746  23842929.4514   23842933.1364
     -1247.0794
  -4764379.40347  -3611672.33547  22363694.5034   22363698.6814
     -1162.3684
  17232646.26145  14886145.37445  26028344.3464   26028347.3864
     -4634.8434
  29952873.88946  23448883.64446  25190611.4414   25190616.0314
     -5398.4584
   9735195.82046   3216353.19046  24769904.7474   24769906.4734
     -4165.8894
 06  5  8  1 26 30.0060000  0  8G30G23G 7G25G 6G 1G 5G 2
   8259424.13948   6518435.35847  22707418.6354   22707421.5844
     -4039.7484
    462846.60645    360377.97545  26202512.4634   26202515.0854
      -754.3924
   -787653.74843   -528218.41245  26130227.1154   26130233.6304
      1365.2124
  -1304242.29647    808994.46446  23846502.0714   23846505.7224
     -1256.0984
  -4746886.00447  -3598041.11347  22367023.3784   22367027.6724
     -1170.0314
  17302211.84445  14940352.32945  26041582.3174   26041585.8494
     -4640.5154
  30033874.48346  23512000.98146  25206025.3574   25206029.7774
     -5401.5584
   9797749.41146   3265096.24446  24781808.2774   24781809.7104
     -4174.5054
 06  5  8  1 26 45.0060000  0  8G30G23G 7G25G 6G 1G 5G 2
   8320073.03348   6565694.23047  22718959.7494   22718962.7034
     -4046.8314
    474234.47945    369251.64945  26204679.5244   26204679.7994
      -764.0754
   -808117.08544   -544163.92745  26126333.0454   26126340.0574
      1363.1934
  -1285333.75547    823728.39646  23850100.2504   23850103.3154
     -1265.1064
  -4729278.49947  -3584320.97947  22370373.9684   22370377.9174
     -1177.6854
  17371861.10745  14994624.47845  26054836.1734   26054840.2864
     -4646.1154
  30114920.36046  23575153.60746  25221447.8854   25221452.6294
     -5404.6254
   9860430.84946   3313938.89946  24793736.1424   24793738.3074
     -4183.0694
 06  5  8  1 27  0.0060000  0  8G30G23G 7G25G 6G 1G 5G 2
   8380828.31148   6613036.00947  22730521.0964   22730524.1374
     -4053.8324
    485767.80045    378238.69845  26206874.2274   26206875.2684
      -773.6704
   -828550.25744   -560085.77645  26122444.6914   26122450.3964
      1361.2464
  -1266290.02947    838567.65446  23853724.1634   23853727.2224
     -1274.0244
  -4711556.16547  -3570511.36547  22373746.4124   22373750.2434
     -1185.2524
  17441594.44845  15048962.09345  26068106.0574   26068109.8124
     -4651.5984
  30196012.17746  23638342.03246  25236879.1564   25236883.6564
     -5407.5784
   9923240.76046   3362881.67046  24805688.4574   24805690.3274
     -4191.5294
 06  5  8  1 27 15.0060000  0  8G30G23G 7G25G 6G 1G 5G 2
   8441689.65348   6660460.42447  22742102.6324   22742106.1114
     -4060.9994
    497446.25445    387338.81045  26209096.5414   26209097.0754
      -783.4514
   -848953.51145   -575984.45945  26118562.0774   26118568.0854
      1359.1424
  -1247111.34947    853512.08246  23857373.7574   23857377.0334
     -1283.1334
  -4693719.35447  -3556612.55547  22377140.6494   22377144.2544
     -1193.0004
  17511411.12845  15103364.68345  26081391.8044   26081396.4744
     -4657.2744
  30277149.38446  23701565.82546  25252319.0504   25252323.7414
     -5410.7214
   9986178.51646   3411924.06746  24817665.1074   24817667.1944
     -4200.1564
 06  5  8  1 27 30.0060000  0  8G30G23G 7G25G 6G 1G 5G 2
   8502656.39848   6707966.97247  22753704.2234   22753707.7024
     -4068.0334
    509269.75545    396551.92645  26211346.4094   26211346.9374
      -793.1464
   -869326.88444   -591859.76745  26114685.1224   26114691.1334
      1357.1644
  -1227797.87747    868561.54846  23861048.9934   23861052.4694
     -1292.1154
  -4675768.16847  -3542624.61047  22380556.6544   22380560.6064
     -1200.6314
  17581310.53446  15157831.72745  26094693.3324   26094697.2924
     -4662.7774
  30358331.55246  23764824.64046  25267767.4894   25267772.3374
     -5413.6974
  10049243.57346   3461065.66746  24829665.9844   24829668.5954
     -4208.6424
 06  5  8  1 27 45.0060000  0  8G30G23G 7G25G 6G 1G 5G 2
   8563729.28548   6755556.23747  22765326.0084   22765329.4804
     -4075.0744
    521239.31444    405878.91045  26213624.0804   26213626.2094
      -802.8474
   -889669.53044   -607711.19845  26110814.0334   26110820.4484
      1355.1474
  -1208348.81247    883716.65346  23864750.0274   23864753.2924
     -1301.1474
  -4657701.96847  -3528547.05547  22383994.5394   22383998.3274
     -1208.2494
  17651292.96245  15212363.49545  26108010.6244   26108013.4954
     -4668.2694
  30439559.15446  23828118.86246  25283224.5804   25283229.0904
     -5416.7104
  10112436.29546   3510306.73846  24841691.1444   24841693.6314
     -4217.1054
 06  5  8  1 28  0.0060000  0  8G30G23G 7G25G 6G 1G 5G 2
   8624908.07448   6803228.01747  22776967.9494   22776971.3414
     -4082.0644
    533354.80945    415319.54445  26215929.5324   26215931.1824
      -812.5094
   -909981.25344   -623538.48545  26106948.8184   26106954.9554
      1353.1474
  -1188763.99847    898977.55946  23868476.8944   23868480.6914
     -1310.1154
  -4639520.68847  -3514379.82447  22387454.3344   22387458.3614
     -1215.8764
  17721358.16045  15266959.73045  26121343.6384   26121348.5034
     -4673.7054
  30520832.08846  23891448.41746  25298690.3194   25298695.1984
     -5419.6414
  10175756.46646   3559647.11846  24853740.5894   24853742.3874
     -4225.5354
 06  5  8  1 28 15.0060000  0  8G30G23G 7G25G 6G 1G 5G 2
   8686190.89448   6850980.86047  22788629.6754   22788633.0534
     -4089.0454
    545614.92045    424872.87645  26218262.5364   26218264.0424
      -822.2274
   -930263.52544   -639342.83645  26103089.1874   26103093.7664
      1351.1264
  -1169045.00447    914343.01046  23872229.2934   23872233.0004
     -1319.1364
  -4621225.94347  -3500124.17547  22390935.7094   22390939.2214
     -1223.4834
  17791504.07445  15321618.91945  26134691.9634   26134695.7424
     -4679.1234
  30602148.47746  23954811.83346  25314164.3094   25314168.6004
     -5422.5894
  10239202.06546   3609085.24546  24865813.8874   24865815.8394
     -4233.9294
 06  5  8  1 28 30.0060000  0  8G30G23G 7G25G 6G 1G 5G 2
   8747577.95048   6898814.92647  22800311.2394   22800314.3504
     -4095.8474
    558020.25645    434539.38045  26220623.2214   26220624.1314
      -831.7934
   -950516.06644   -655124.03245  26099235.2274   26099240.2494
      1349.2484
  -1149191.49447    929813.28046  23876007.2854   23876010.5664
     -1327.9804
  -4602817.54647  -3485779.96647  22394438.7114   22394442.0504
     -1230.9454
  17861730.53945  15376340.75945  26148055.6414   26148060.4774
     -4684.3774
  30683508.39646  24018209.14946  25329646.5584   25329651.5334
     -5425.3714
  10302773.01146   3658621.03446  24877911.0364   24877913.2954
     -4242.1714
 06  5  8  1 28 45.0060000  0  8G30G23G 7G25G 6G 1G 5G 2
   8809069.55748   6946730.45647  22812012.6994   22812015.4784
     -4102.9314
    570571.22545    444319.43145  26223011.6014   26223012.7124
      -841.5884
   -970738.23945   -670881.55245  26095387.0924   26095394.0584
      1347.1094
  -1129202.78447    945388.89246  23879811.0174   23879814.4624
     -1337.0944
  -4584294.87647  -3471346.71747  22397963.4634   22397967.0824
     -1238.6554
  17932037.72445  15431125.57445  26161434.7004   26161436.9074
     -4689.8284
  30764912.12146  24081640.61846  25345137.1724   25345142.0024
     -5428.3754
  10366469.57146   3708254.70346  24890032.0944   24890034.3084
     -4250.6264
 06  5  8  1 29  0.0060000  0  8G30G23G 7G25G 6G 1G 5G 2
   8870666.57748   6994728.13547  22823734.2224   22823737.1054
     -4110.0044
    583268.75045    454213.61045  26225427.8754   26225429.6124
      -851.4194
   -990928.84744   -686614.46745  26091544.9014   26091550.5674
      1344.9534
  -1109078.00647    961070.54046  23883640.6394   23883644.4454
     -1346.2214
  -4565657.12347  -3456823.78847  22401510.1114   22401513.6134
     -1246.3994
  18002426.06645  15485973.64945  26174829.2094   26174832.9644
     -4695.2984
  30846360.37146  24145106.78446  25360636.2874   25360640.1384
     -5431.3934
  10430292.29646   3757986.68246  24902177.1594   24902179.5504
     -4259.0934
 06  5  8  1 29 15.0060000  0  9G30G23G 7G25G 6G 1G 5G 2G16
   8932367.47648   7042806.74547  22835475.5144   22835478.6164
     -4116.8124
    596111.95145    464221.28045  26227871.8674   26227871.3944
      -861.0464
  -1011088.86845   -702323.61545  26087708.5794   26087713.9894
      1343.0254
  -1088818.18247    976857.41646  23887495.9674   23887499.8244
     -1355.1214
  -4546905.42047  -3442212.06547  22405078.4454   22405082.1284
     -1253.8754
  18072894.12045  15540883.79045  26188238.8644   26188242.0054
     -4700.4804
  30927851.85646  24208606.64046  25376143.6104   25376148.1904
     -5434.1564
  10494239.90046   3807815.97746  24914345.9874   24914347.8514
     -4267.2814
     -3038.53843                  26669840.4454
      1519.5214
 06  5  8  1 29 30.0060000  0  9G30G23G 7G25G 6G 1G 5G 2G16
   8994171.30148   7090965.56847  22847236.3884   22847239.3404
     -4123.7834
    609100.26145    474342.05945  26230343.4754   26230344.9784
      -870.8224
  -1031219.34644   -718009.61545  26083877.8634   26083884.5304
      1340.9324
  -1068424.11047    992748.89346  23891376.8454   23891380.8954
     -1364.1844
  -4528040.54847  -3427512.16547  22408668.3174   22408672.3744
     -1261.5214
  18143440.57445  15595855.01745  26201663.3664   26201667.4244
     -4705.7974
  31009385.38846  24272139.24846  25391658.9474   25391662.8644
     -5437.0724
  10558311.00446   3857741.50546  24926538.3474   24926540.1404
     -4275.6214
    -25823.96243                  26665503.5694
      1518.4574
 06  5  8  1 29 45.0060000  0  9G30G23G 7G25G 6G 1G 5G 2G16
   9056080.37848   7139206.39447  22859017.2964   22859020.7234
     -4130.7734
    622236.23345    484577.91045  26232843.1754   26232845.5694
      -880.6444
  -1051317.36844   -733670.41945  26080053.3064   26080059.2754
      1338.7774
  -1047893.12247   1008747.07246  23895283.7724   23895287.9924
     -1373.2874
  -4509060.05547  -3412722.16147  22412280.1844   22412283.6214
     -1269.2144
  18214067.60545  15650889.03745  26215103.2264   26215105.7674
     -4711.1414
  31090963.40046  24335706.53846  25407182.7484   25407186.5994
     -5440.0044
  10622507.97146   3907765.11846  24938754.6324   24938755.9344
     -4283.9864
    -48592.13143                  26661170.8434
      1517.3154
 06  5  8  1 30  0.0060000  0  9G30G23G 7G25G 6G 1G 5G 2G16
   9118093.20248   7187528.07247  22870817.9534   22870821.1834
     -4137.5854
    635518.81945    494928.03145  26235370.7584   26235372.1094
      -890.3274
  -1071384.12844   -749306.83045  26076234.7004   26076240.0614
      1336.7924
  -1027226.45847   1024850.97146  23899216.5154   23899220.1654
     -1382.2494
  -4489965.13247  -3397842.98947  22415913.8184   22415917.4024
     -1276.7474
  18284773.51245  15705984.52945  26228558.1394   26228559.5684
     -4716.2954
  31172584.33646  24399307.25146  25422714.6924   25422718.9004
     -5442.7524
  10686829.11246   3957885.47246  24950994.5544   24950995.5854
     -4292.1584
    -71344.11144                  26656841.2724
      1516.3074
 06  5  8  1 30 15.0060000  0  9G30G23G 7G25G 6G 1G 5G 2G16
   9180208.26748   7235929.41647  22882638.0674   22882641.1894
     -4144.5664
    648946.32445    505391.04645  26237925.8924   26237926.9564
      -900.1564
  -1091420.97244   -764919.97545  26072421.8094   26072427.1964
      1334.6474
  -1006425.53447   1041059.48046  23903174.8044   23903178.6144
     -1391.3684
  -4470757.42647  -3382875.95147  22419568.9244   22419572.6804
     -1284.4294
  18355556.43445  15761140.06445  26242027.6754   26242031.5704
     -4721.5754
  31254246.54346  24462940.14546  25438254.4864   25438258.5174
     -5445.6604
  10751272.68346   4008101.24046  24963257.7714   24963258.3544
     -4300.4624
    -94081.28443                  26652514.4594
      1515.1784
 06  5  8  1 30 30.0060000  0  9G30G23G 7G25G 6G 1G 5G 2G16
   9242428.33848   7284412.58547  22894478.1604   22894481.1564
     -4151.3954
    662522.13545    515969.62645  26240509.2664   26240509.9264
      -909.8944
  -1111424.83245   -780507.35745  26068615.2254   26068621.9404
      1332.5884
   -985487.15447   1057375.09546  23907159.2544   23907162.8374
     -1400.3724
  -4451433.75347  -3367818.53647  22423246.0914   22423249.8034
     -1292.0144
  18426419.09445  15816357.69845  26255512.3664   26255516.5174
     -4726.7054
  31335952.93946  24526607.44546  25453802.6904   25453807.0794
     -5448.4544
  10815841.39746   4058414.51046  24975544.7884   24975545.6744
     -4308.6434
   -116800.44043         0.82555  26648191.0534   26648194.4824
      1514.1124
 06  5  8  1 30 45.0060000  0  9G30G23G 7G25G 6G 1G 5G 2G16
   9304750.52848   7332975.32247  22906337.6874   22906340.5804
     -4158.2254
    676243.42545    526661.55845  26243120.3444   26243121.3064
      -919.6364
  -1131398.28345   -796071.07445  26064814.4284   26064820.5574
      1330.5064
   -964414.13747   1073795.62946  23911169.3224   23911173.1954
     -1409.3904
  -4431996.97747  -3352672.99247  22426944.7814   22426948.5854
     -1299.5964
  18497358.23445  15871634.92945  26269011.6254   26269016.9444
     -4731.8544
  31417700.32846  24590306.70846  25469358.6994   25469362.2204
     -5451.2254
  10880532.09646   4108822.84146  24987855.0264   24987856.4044
     -4316.8084
   -139504.17043    -17690.43745  26643870.6334   26643875.8664
      1513.0474
 06  5  8  1 31  0.0060000  0  9G30G23G 7G25G 6G 1G 5G 2G16
   9367175.93148   7381618.48047  22918216.8644   22918220.0914
     -4165.1834
    690111.80145    537468.02345  26245759.4324   26245761.3514
      -929.5064
  -1151339.76745   -811609.87545  26061019.7024   26061025.0034
      1328.3274
   -943205.02647   1090322.21246  23915205.2864   23915208.8824
     -1418.5074
  -4412445.77147  -3337438.28047  22430665.2414   22430668.6524
     -1307.2604
  18568374.82244  15926972.50145  26282525.5824   26282530.2384
     -4737.0614
  31499489.98846  24654038.90246  25484922.7444   25484927.5414
     -5454.0844
  10945345.81346   4159327.02546  25000188.6614   25000190.2774
     -4325.0524
   -162191.15443    -35368.51645  26639553.3974   26639556.1914
      1511.8544
 06  5  8  1 31 15.0060000  0  9G30G23G 7G25G 6G 1G 5G 2G16
   9429704.53648   7430342.06447  22930115.6654   22930118.4534
     -4172.0764
    704127.40645    548389.28245  26248426.5394   26248427.9484
      -939.3584
  -1171249.17745   -827123.71045  26057231.0364   26057235.7634
      1326.1504
   -921859.66147   1106954.96046  23919267.1754   23919270.5924
     -1427.6364
  -4392779.96447  -3322114.28047  22434407.5204   22434411.1924
     -1314.9364
  18639468.59645  15982370.17245  26296054.2424   26296057.7454
     -4742.2054
  31581321.77946  24717803.94146  25500494.8094   25500498.7694
     -5456.9074
  11010282.36546   4209926.93646  25012545.6644   25012547.1564
     -4333.2634
   -184860.99043    -53033.35245  26635239.4264   26635241.0094
      1510.6744
 06  5  8  1 31 30.0060000  0  9G30G23G 7G25G 6G 1G 5G 2G16
   9492336.67848   7479146.32447  22942034.1644   22942037.1504
     -4178.8784
    718291.07745    559425.84145  26251121.8164   26251122.6254
      -949.1244
  -1191125.70345   -842611.89945  26053448.6604   26053451.9634
      1324.0464
   -900377.27447   1123694.49246  23923355.1404   23923358.8444
     -1436.6774
  -4372998.97748  -3306700.51647  22438171.7204   22438175.2534
     -1322.5404
  18710639.75745  16037828.21945  26309597.6784   26309601.8124
     -4747.2734
  31663196.11146  24781602.09046  25516074.9914   25516079.9004
     -5459.6624
  11075342.08146   4260622.79946  25024926.1154   25024928.0704
     -4341.3674
   -207512.99643    -70684.26645  26630928.8384   26630931.5384
      1509.5714
 06  5  8  1 31 45.0070000  0  9G30G23G 7G25G 6G 1G 5G 2G16
   9555076.70148   7528034.64547  22953973.1864   22953976.4054
     -4185.8234
    732604.21445    570578.95945  26253845.4994   26253846.0784
      -959.0604
  -1210970.20045   -858075.09945  26049672.3454   26049677.8974
      1321.7844
   -878756.09847   1140542.15446  23927469.5124   23927472.9454
     -1445.8814
  -4353101.19247  -3291195.74847  22441958.1414   22441961.3704
     -1330.2574
  18781893.01545  16093350.31345  26323156.7144   26323161.8224
     -4752.4504
  31745118.57346  24845437.77546  25531664.3454   25531668.7554
     -5462.5254
  11140529.22646   4311417.97346  25037330.8204   25037333.3554
     -4349.6094
   -230147.93944    -88321.86245  26626621.5504   26626625.1514
      1508.2984
 06  5  8  1 32  0.0070000  0  9G30G23G 7G25G 6G 1G 5G 2G16
   9617914.82648   7576999.41247  22965930.8734   22965934.0824
     -4192.6114
    747063.47945    581845.89845  26256596.9964   26256597.6084
      -968.8504
  -1230781.34745   -873512.33745  26045902.3814   26045906.3564
      1319.6774
   -857000.33147   1157494.69946  23931609.5034   23931612.8584
     -1454.9244
  -4333090.77647  -3275603.21847  22445765.9964   22445769.4074
     -1337.8344
  18853217.04745  16148927.46945  26336729.2354   26336733.7084
     -4757.4594
  31827076.62046  24909301.17746  25547260.4704   25547264.2224
     -5465.2354
  11205833.45146   4362304.36546  25049757.8034   25049760.2424
     -4357.6524
   -252764.22344   -105944.94945  26622317.8554   26622322.9524
      1507.1924
 06  5  8  1 32 15.0070000  0  9G30G23G 7G25G 6G 1G 5G 2G16
   9680854.90648   7626043.62147  22977907.9694   22977911.4114
     -4199.4214
    761669.98045    593227.57545  26259376.5094   26259377.3424
      -978.6904
  -1250560.37745   -888924.54745  26042138.5084   26042145.6674
      1317.4994
   -835108.55147   1174553.22946  23935775.3674   23935779.3284
     -1464.0034
  -4312966.33447  -3259921.83047  22449595.5394   22449598.7724
     -1345.4564
  18924616.20444  16204563.11345  26350315.9714   26350321.9224
     -4762.4564
  31909075.51146  24973196.41646  25562864.3624   25562868.8484
     -5467.9764
  11271258.78346   4413285.11946  25062207.8694   25062210.8924
     -4365.7324
   -275363.32745   -123554.63145  26618017.4324   26618021.4964
      1506.0154
 06  5  8  1 32 30.0070000  0  9G30G23G 7G25G 6G 1G 5G 2G16
   9743898.47748   7675168.47847  22989904.7654   22989908.1634
     -4206.2464
    776425.52545    604725.43645  26262184.3454   26262186.4114
      -988.5974
  -1270305.43445   -904310.31145  26038381.1254   26038386.3534
      1315.2854
   -813078.98147   1191719.12646  23939967.4544   23939971.1284
     -1473.1454
  -4292726.20047  -3244150.29447  22453447.1134   22453450.4964
     -1353.1104
  18996091.73344  16260258.31745  26363917.2754   26363921.7594
     -4767.4974
  31991116.70346  25037124.61846  25578476.3114   25578480.4684
     -5470.7354
  11336806.53846   4464361.29046  25074681.2104   25074683.5404
     -4373.8424
   -297943.30644   -141149.50645  26613720.6034   26613724.3994
      1504.7614
 06  5  8  1 32 45.0070000  0  9G30G23G 7G25G 6G 1G 5G 2G16
   9807043.08148   7724372.06447  23001920.7934   23001923.9514
     -4213.0634
    791328.26145    616337.96445  26265020.2394   26265022.6174
      -998.4744
  -1290018.52345   -919671.11145  26034629.7984   26034634.9014
      1313.0934
   -790913.61947   1208990.83947  23944185.3954   23944189.0034
     -1482.2674
  -4272372.48547  -3228290.25547  22457320.2854   22457324.0364
     -1360.7514
  19067641.23843  16316011.14545  26377532.5874   26377537.5244
     -4772.4614
  32073197.90346  25101083.98546  25594095.8904   25594099.5484
     -5473.4744
  11402474.28046   4515530.95646  25087177.3644   25087179.1294
     -4381.8954
   -320506.10544   -158730.88145  26609427.0794   26609428.8584
      1503.5344
 06  5  8  1 33  0.0070000  0  9G30G23G 7G25G 6G 1G 5G 2G16
   9870289.59948   7773655.06347  23013956.2184   23013959.3264
     -4219.8774
    806379.07345    628065.84045  26267884.2954   26267885.7544
     -1008.3774
  -1309698.48445   -935006.14845  26030884.7714   26030889.6354
      1310.8514
   -768611.49647   1226369.11747  23948429.3584   23948432.7684
     -1491.4164
  -4251904.31647  -3212341.03647  22461215.2494   22461218.9684
     -1368.3924
  19139265.16644  16371821.97245  26391162.1674   26391169.5434
     -4777.4374
  32155319.77146  25165075.04546  25609723.2134   25609727.9684
     -5476.1894
  11468262.59746   4566794.56046  25099696.4544   25099699.1894
     -4389.9434
   -343050.76043   -176298.13945  26605137.0094   26605141.2824
      1502.3094
 06  5  8  1 33 15.0070000  0  9G30G23G 7G25G 6G 1G 5G 2G16
   9933637.84048   7823017.32647  23026010.9944   23026014.0164
     -4226.6024
    821578.19645    639909.33545  26270776.5934   26270778.2354
     -1018.2244
  -1329345.26645   -950315.29145  26027146.0674   26027152.6054
      1308.6814
   -746172.55347   1243854.01347  23952699.3594   23952702.6384
     -1500.4834
  -4231321.66947  -3196302.60547  22465131.9964   22465135.8074
     -1375.9934
  19210963.06245  16427690.45145  26404805.8634   26404813.2364
     -4782.3244
  32237482.15446  25229097.67646  25625358.2174   25625363.0624
     -5478.8334
  11534171.16146   4618151.86246  25112238.4364   25112241.2274
     -4397.8954
   -365577.04143   -193851.11045  26600850.3994   26600853.4134
      1501.1154
 06  5  8  1 33 30.0070000  0  9G30G23G 7G25G 6G 1G 5G 2G16
   9997088.14748   7872459.11747  23038085.2004   23038088.3154
     -4233.4814
    836926.18945    651868.83445  26273697.2334   26273698.0024
     -1028.2454
  -1348958.20945   -965598.06945  26023413.8434   26023418.9274
      1306.3534
   -723596.09947   1261446.05047  23956995.5364   23956998.9414
     -1509.7374
  -4210624.00747  -3180174.55947  22469070.6394   22469074.4374
     -1383.7404
  19282735.20645  16483616.80745  26418463.6214   26418469.1254
     -4787.3334
  32319685.40646  25293152.13546  25641001.0134   25641005.6704
     -5481.6284
  11600200.23446   4669603.07646  25124803.3474   25124805.5644
     -4405.9964
   -388084.13043   -211389.05145  26596567.4314   26596572.7564
      1499.7744
 06  5  8  1 33 45.0070000  0  9G30G23G 7G25G 6G 1G 5G 2G16
  10060640.44248   7921980.38747  23050178.8094   23050181.7574
     -4240.2094
    852423.14145    663944.38245  26276646.2294   26276647.0604
     -1038.0884
  -1368537.11445   -980854.35145  26019688.0774   26019694.1274
      1304.1354
   -700882.13647   1279145.24147  23961317.8734   23961321.2234
     -1518.8524
  -4189811.30247  -3163956.85547  22473031.1674   22473034.8904
     -1391.3454
  19354581.23144  16539600.71845  26432135.4124   26432139.7034
     -4792.1824
  32401929.34946  25357238.32846  25656651.5394   25656656.0724
     -5484.2624
  11666349.47646   4721147.92846  25137391.1184   25137394.0984
     -4413.9414
   -410571.82343   -228911.95245  26592288.1794   26592291.7734
      1498.5494
 06  5  8  1 34  0.0070000  0  9G30G23G 7G25G 6G 1G 5G 2G16
  10124293.58548   7971580.24347  23062291.5984   23062294.8144
     -4246.8834
    868068.28845    676135.42045  26279623.3844   26279625.9394
     -1047.9494
  -1388082.86145   -996084.78545  26015968.6244   26015974.7274
      1301.9534
   -678031.53247   1296950.90447  23965666.2204   23965669.9344
     -1527.9334
  -4168884.49247  -3147650.25447  22477013.4144   22477017.0634
     -1398.9104
  19426499.79343  16595641.14745  26445820.9534   26445826.9854
     -4796.9584
  32484212.84646  25421355.33946  25672309.5854   25672313.6244
     -5486.8754
  11732617.69146   4772785.48946  25150001.5324   25150004.9474
     -4421.8254
   -433041.03344   -246420.41345  26588012.4404   26588015.7824
      1497.3184
 06  5  8  1 34 15.0070000  0  9G30G23G 7G25G 6G 1G 5G 2G16
  10188047.82748   8021258.87247  23074423.6194   23074426.9014
     -4253.6174
    883862.33845    688442.46645  26282628.8734   26282629.6494
     -1057.8654
  -1407594.65845  -1011288.76145  26012255.6354   26012260.9324
      1299.7084
   -655043.59447   1314863.58447  23970040.6954   23970044.3934
     -1537.0704
  -4147843.03047  -3131254.30347  22481017.4674   22481021.0014
     -1406.5564
  19498491.00444  16651738.20245  26459520.4104   26459527.6214
     -4801.7804
  32566536.22346  25485503.40546  25687975.2154   25687979.4624
     -5489.5034
  11799005.10046   4824515.93346  25162634.6234   25162638.5474
     -4429.7484
   -455491.00544   -263913.89945  26583740.3414   26583743.4014
      1496.0744
 06  5  8  1 34 30.0070000  0  9G30G23G 7G25G 6G 1G 5G 2G16
  10251903.86048   8071016.81647  23086575.0214   23086578.3924
     -4260.4574
    899805.91645    700866.06045  26285662.8174   26285663.5744
     -1067.9034
  -1427071.69545  -1026465.69045  26008549.2864   26008554.1694
      1297.3004
   -631917.61147   1332883.83647  23974441.4254   23974444.9574
     -1546.3324
  -4126686.29047  -3114768.53547  22485043.4784   22485047.1374
     -1414.2914
  19570555.15445  16707892.02745  26473233.7694   26473237.5794
     -4806.7044
  32648899.95946  25549682.93846  25703648.5044   25703651.9124
     -5492.2524
  11865512.02046   4876339.51046  25175290.4444   25175293.6874
     -4437.7834
   -477920.99544   -281391.82245  26579472.0424   26579474.4744
      1494.6444
 06  5  8  1 34 45.0070000  0  9G30G23G 7G25G 6G 1G 5G 2G16
  10315862.23448   8120854.51447  23098745.8964   23098749.3344
     -4267.2724
    915899.88745    713406.80245  26288725.3984   26288726.2174
     -1077.9114
  -1446513.22445  -1041614.88245  26004849.6864   26004854.4634
      1294.9484
   -608652.89347   1351012.19046  23978868.5484   23978872.1354
     -1555.5784
  -4105413.62548  -3098192.42547  22489091.5434   22489094.8484
     -1422.0224
  19642692.59745  16764102.99745  26486961.0844   26486965.4594
     -4811.5814
  32731304.55446  25613894.28546  25719329.5754   25719333.5414
     -5494.9674
  11932138.86846   4928256.51846  25187969.0934   25187972.3334
     -4445.7524
   -500330.06044   -298853.38545  26575207.7414   26575210.7164
      1493.2584
 06  5  8  1 35  0.0070000  0  9G30G23G 7G25G 6G 1G 5G 2G16
  10379921.38748   8170770.73047  23110935.9574   23110939.0854
     -4273.9784
    932143.31845    726064.06345  26291816.3774   26291818.2134
     -1087.8844
  -1465920.23345  -1056737.22945  26001156.6824   26001161.4154
      1292.6294
   -585250.48747   1369247.82947  23983321.8814   23983325.3784
     -1564.7624
  -4084026.12447  -3081526.83847  22493161.4564   22493165.0504
     -1429.6664
  19714901.83745  16820369.91645  26500702.0804   26500706.3964
     -4816.3424
  32813748.66146  25678136.45546  25735018.1614   25735022.6384
     -5497.5894
  11998884.16246   4980265.81146  25200670.2994   25200673.1154
     -4453.6364
   -522719.12244   -316299.40845  26570947.2474   26570951.7744
      1491.9004
 06  5  8  1 35 15.0070000  0  9G30G23G 7G25G 6G 1G 5G 2G16
  10444081.71648   8220765.78647  23123145.2714   23123148.5734
     -4280.6564
    948536.64845    738838.11845  26294935.8924   26294939.0844
     -1097.8224
  -1485292.09545  -1071832.17245  25997470.3584   25997474.2504
      1290.3444
   -561709.86847   1387591.16647  23987801.5084   23987804.8384
     -1573.9124
  -4062523.27847  -3064771.36947  22497253.3094   22497256.8084
     -1437.2964
  19787182.88544  16876692.81545  26514456.6824   26514460.8824
     -4821.0504
  32896232.57646  25742409.60246  25750714.3394   25750718.7314
     -5500.1844
  12065748.04446   5032367.53346  25213394.0654   25213397.2024
     -4461.4724
   -545087.56044   -333729.31445  26566690.6464   26566693.2324
      1490.5824
 06  5  8  1 35 30.0070000  0  9G30G23G 7G25G 6G 1G 5G 2G16
  10508343.55548   8270839.93847  23135373.9034   23135377.2474
     -4287.4764
    965080.68245    751729.54545  26298084.0774   26298084.5714
     -1107.9334
  -1504628.00845  -1086899.11145  25993790.8894   25993795.8244
      1287.9014
   -538030.32047   1406042.76447  23992307.5814   23992310.9574
     -1583.2394
  -4040904.55548  -3047925.61547  22501367.2174   22501370.6214
     -1445.0754
  19859535.98443  16933071.82345  26528224.9544   26528228.6634
     -4825.9174
  32978756.69146  25806714.11046  25766418.1464   25766422.7194
     -5502.9194
  12132730.80346   5084561.88146  25226140.4604   25226142.9844
     -4469.4524
   -567434.55344   -351142.56445  26562438.1464   26562440.8914
      1489.1084
 06  5  8  1 35 45.0070000  0  9G30G23G 7G25G 6G 1G 5G 2G16
  10572706.73848   8320993.06647  23147621.8194   23147625.0034
     -4294.2154
    981775.35845    764738.37545  26301260.9894   26301262.8724
     -1117.9484
  -1523928.10145  -1101938.12345  25990118.1904   25990122.6224
      1285.5234
   -514211.99947   1424602.49447  23996840.0614   23996843.2334
     -1592.4724
  -4019170.06248  -3030989.63747  22505503.1524   22505506.4534
     -1452.7894
  19931960.63844  16989506.59545  26542006.8844   26542009.7724
     -4830.6434
  33061320.66346  25871049.68246  25782129.5714   25782133.5714
     -5505.5544
  12199831.88446   5136848.42946  25238909.3894   25238911.2884
     -4477.3204
   -589760.12744   -368539.12745  26558189.7494   26558195.1194
      1487.6914
 06  5  8  1 36  0.0070000  0  9G30G23G 7G25G 6G 1G 5G 2G16
  10637170.88248   8371224.85547  23159888.9434   23159892.3444
     -4300.9654
    998620.65645    777864.56245  26304466.5674   26304466.3264
     -1128.0464
  -1543192.25745  -1116949.15945  25986452.3434   25986455.9184
      1283.0704
   -490254.90147   1443270.35847  24001398.9464   24001402.2024
     -1601.7674
  -3997319.99348  -3013963.61047  22509661.0834   22509664.4134
     -1460.5204
  20004456.33443  17045996.78145  26555802.2754   26555805.9344
     -4835.3914
  33143924.18846  25935416.04246  25797848.5034   25797852.3374
     -5508.2114
  12267051.01946   5189226.96346  25251700.7794   25251703.0004
     -4485.1904
   -612064.24544   -385918.96745  26553945.4114   26553949.6524
      1486.2054
 06  5  8  1 36 15.0070000  0  9G30G23G 7G25G 6G 1G 5G 2G16
  10701736.25548   8421535.52647  23172175.3374   23172178.7224
     -4307.7044
   1015616.90245    791108.40345  26307700.8544   26307701.1884
     -1138.1064
  -1562420.07945  -1131931.85645  25982793.4044   25982799.4854
      1280.6664
   -466158.76047   1462046.58047  24005984.2914   24005987.5154
     -1611.0274
  -3975354.11047  -2996847.32847  22513841.0594   22513844.7874
     -1468.2294
  20077022.89344  17102542.12545  26569611.2264   26569614.9144
     -4840.1114
  33226567.30046  25999813.28146  25813574.9654   25813579.0214
     -5510.8484
  12334388.00346   5241697.33346  25264514.6014   25264516.2744
     -4493.0414
   -634346.51443   -403281.80145  26549705.2404   26549708.2834
      1484.7874
 06  5  8  1 36 30.0070000  0  9G30G23G 7G25G 6G 1G 5G 2G16
  10766401.69048   8471924.17247  23184480.7714   23184484.3694
     -4314.3954
   1032763.36045    804469.23845  26310963.7454   26310964.6654
     -1148.1514
  -1581612.27045  -1146886.79145  25979141.2634   25979145.4394
      1278.2554
   -441924.28647   1480930.58947  24010595.9454   24010599.2814
     -1620.2744
  -3953273.22947  -2979641.44847  22518042.9084   22518046.4134
     -1475.9164
  20149659.12644  17159141.72645  26583433.4094   26583438.2084
     -4844.7674
  33309249.06146  26064240.61546  25829308.7744   25829312.7084
     -5513.4324
  12401841.83446   5294258.73846  25277350.6414   25277353.1734
     -4500.8304
   -656607.51643   -420628.05545  26545469.1144   26545471.6574
      1483.3034
 06  5  8  1 36 45.0070000  0  9G30G23G 7G25G 6G 1G 5G 2G16
  10831167.16448   8522390.76547  23196805.2564   23196808.5264
     -4321.0674
   1050060.43245    817947.49045  26314255.2784   26314256.4864
     -1158.1994
  -1600768.48445  -1161813.69445  25975495.9444   25975499.8274
      1275.8454
   -417551.29247   1499922.53747  24015233.9654   24015237.3114
     -1629.5284
  -3931077.20148  -2962345.84547  22522266.6804   22522270.2314
     -1483.6094
  20222364.81943  17215795.52945  26597268.8344   26597273.9184
     -4849.3754
  33391969.43046  26128698.02346  25845049.9374   25845054.0784
     -5516.0224
  12469412.22046   5346910.98846  25290208.9014   25290211.2014
     -4508.5944
   -678846.91143   -437957.41545  26541237.1324   26541241.2044
      1481.8914
 06  5  8  1 37  0.0070000  0  9G30G23G 7G25G 6G 1G 5G 2G16
  10896034.44448   8572936.69747  23209149.1114   23209152.2494
     -4327.7694
   1067510.06945    831544.62845  26317575.8114   26317577.7654
     -1168.2744
  -1619886.69745  -1176710.95045  25971857.8164   25971863.1844
      1273.3884
   -393037.77147   1519023.97547  24019898.7244   24019902.1934
     -1638.8134
  -3908763.97748  -2944958.91947  22526512.7494   22526516.2364
     -1491.3444
  20295141.59943  17272504.67145  26611117.7994   26611123.5444
     -4854.0234
  33474730.07346  26193186.84346  25860798.7424   25860803.5904
     -5518.5894
  12537100.83146   5399655.36446  25303089.6214   25303091.4654
     -4516.4134
   -701062.65943   -455268.36145  26537009.6754   26537014.7424
      1480.3484
 06  5  8  1 37 15.0070000  0  9G30G23G 7G25G 6G 1G 5G 2G16
  10961000.69448   8623559.73747  23221511.8064   23221514.5404
     -4334.3354
   1085109.42045    845258.39845  26320924.8464   26320926.4934
     -1178.2464
  -1638969.60045  -1191580.70845  25968226.4184   25968231.5974
      1271.0424
   -368386.42947   1538232.80447  24024589.7184   24024593.2964
     -1647.9754
  -3886336.53248  -2927482.98547  22530780.5554   22530783.7104
     -1498.9414
  20367986.23043  17329266.67945  26624979.6224   26624986.4114
     -4858.5374
  33557527.97446  26257704.68246  25876554.6464   25876558.7694
     -5521.0624
  12604904.52346   5452489.39546  25315992.2304   25315994.8064
     -4524.0414
   -723257.32943   -472562.92345  26532786.1094   26532790.0324
      1478.9824
 06  5  8  1 37 30.0070000  0  9G30G23G 7G25G 6G 1G 5G 2G16
  11026066.35548   8674260.25147  23233893.4094   23233896.0224
     -4341.0784
   1102859.39245    859089.55445  26324302.5224   26324304.0594
     -1188.4024
  -1658016.19845  -1206422.22845  25964601.9474   25964605.6844
      1268.5024
   -343596.55047   1557549.60547  24029307.0734   24029310.5374
     -1657.3434
  -3863794.00148  -2909917.37247  22535070.2604   22535073.6244
     -1506.7364
  20440899.01043  17386081.78745  26638854.4764   26638860.4064
     -4863.1604
  33640363.80446  26322252.05246  25892317.7464   25892322.7644
     -5523.6884
  12672823.84346   5505413.52446  25328916.8494   25328919.4844
     -4531.8494
   -745429.94943   -489840.30345  26528566.7064   26528566.4234
      1477.3784
 06  5  8  1 37 45.0070000  0  9G30G23G 7G25G 6G 1G 5G 2G16
  11091231.82248   8725038.53347  23246293.9964   23246296.7134
     -4347.6114
   1120760.84445    873038.77645  26327709.0374   26327710.1184
     -1198.4144
  -1677025.82945  -1221234.88945  25960984.5334   25960989.6804
      1266.1344
   -318667.40847   1576974.91047  24034050.9354   24034054.4794
     -1666.5234
  -3841135.84848  -2892261.66447  22539381.9654   22539385.1944
     -1514.3174
  20513880.15043  17442950.23245  26652742.3574   26652747.4014
     -4867.5984
  33723237.95146  26386829.30446  25908088.1654   25908092.5514
     -5526.1364
  12740859.06546   5558427.95346  25341863.5284   25341865.9914
     -4539.4594
   -767579.83843   -507099.91845  26524351.6404   26524357.5644
      1475.9374
 06  5  8  1 38  0.0070000  0  9G30G23G 7G25G 6G 1G 5G 2G16
  11156496.86648   8775894.40547  23258713.5254   23258715.9704
     -4354.2834
   1138813.57045    887105.85845  26331144.3834   26331145.9184
     -1208.5284
  -1695998.58245  -1236018.84545  25957374.1244   25957379.3624
      1263.6664
   -293599.15747   1596508.61347  24038821.2704   24038824.8714
     -1675.8234
  -3818362.31247  -2874516.05447  22543715.6244   22543719.4454
     -1522.0484
  20586929.08544  17499871.47845  26666643.1714   26666648.2714
     -4872.1534
  33806149.98946  26451436.07345  25923865.7934   25923869.9484
     -5528.7024
  12809009.48946   5611532.18346  25354832.1374   25354834.1294
     -4547.1594
   -789706.93643   -524341.81645  26520140.8934   26520142.7904
      1474.4384
 06  5  8  1 38 15.0070000  0  9G30G23G 7G25G 6G 1G 5G 2G16
  11221861.07348   8826827.54947  23271151.9144   23271154.5994
     -4360.9084
   1157017.37945    901290.65445  26334608.4584   26334610.2914
     -1218.6374
  -1714934.50445  -1250774.11845  25953770.7014   25953774.7994
      1261.1714
   -268391.99947   1616150.54547  24043618.0434   24043621.6264
     -1685.1164
  -3795473.55647  -2856680.65547  22548071.2174   22548074.8804
     -1529.7544
  20660045.21143  17556845.06845  26680556.6814   26680560.5904
     -4876.6424
  33889099.45546  26516072.01645  25939650.5154   25939654.2574
     -5531.2274
  12877274.61846   5664725.77546  25367822.5774   25367825.1014
     -4554.8264
   -811811.32844   -541565.98545  26515934.5794   26515937.9504
      1472.8714
 06  5  8  1 38 30.0070000  0  9G30G23G 7G25G 6G 1G 5G 2G16
  11287325.00148   8877838.39047  23283609.2824   23283612.1674
     -4367.5954
   1175373.35945    915593.99745  26338101.4554   26338102.0094
     -1228.8164
  -1733832.40845  -1265499.71145  25950174.5554   25950179.0874
      1258.5774
   -243044.93847   1635901.50147  24048441.4384   24048444.9284
     -1694.4834
  -3772468.75548  -2838754.83747  22552448.8914   22552452.3734
     -1537.5644
  20733229.11443  17613871.44045  26694483.1284   26694486.1944
     -4881.1824
  33972087.15346  26580737.73745  25955442.5044   25955446.9824
     -5533.7914
  12945655.08046   5718009.22946  25380834.9724   25380837.1744
     -4562.5504
   -833891.74545   -558771.53345  26511732.8614   26511736.7384
      1471.2114
 06  5  8  1 38 45.0070000  0  9G30G23G 7G25G 6G 1G 5G 2G16
  11352889.02348   8928927.23047  23296085.6884   23296088.3844
     -4374.2854
   1193882.10545    930016.40145  26341623.5334   26341625.1104
     -1239.0204
  -1752691.62045  -1280195.19545  25946585.7724   25946590.5004
      1255.9924
   -217557.29547   1655762.00847  24053291.5794   24053295.2904
     -1703.8644
  -3749347.19648  -2820738.03247  22556848.7854   22556852.3984
     -1545.3414
  20806481.00643  17670950.82945  26708422.4654   26708427.1874
     -4885.7214
  34055113.52246  26645433.61645  25971241.8594   25971247.0804
     -5536.3584
  13014151.11346   5771382.76246  25393869.3324   25393870.9434
     -4570.2584
   -855947.63345   -575957.94545  26507535.8164   26507541.0914
      1469.5614
 06  5  8  1 39  0.0070000  0  9G30G23G 7G25G 6G 1G 5G 2G16
  11418551.95048   8980093.13647  23308580.9194   23308583.9814
     -4380.7724
   1212542.41045    944556.85645  26345174.4384   26345176.8334
     -1249.0374
  -1771513.45045  -1294861.54645  25943004.1174   25943008.3724
      1253.5884
   -191930.43047   1675730.99147  24058168.2084   24058171.6964
     -1713.0574
  -3726110.33548  -2802631.38847  22561270.6034   22561274.5044
     -1552.9144
  20879799.12943  17728081.84545  26722374.3804   26722380.3834
     -4890.0174
  34138176.87046  26710158.29145  25987048.2884   25987054.1104
     -5538.7364
  13082761.18946   5824845.14546  25406925.4044   25406927.7194
     -4577.7494
   -877980.37645   -593126.31645  26503343.2054   26503345.7024
      1468.1114
 06  5  8  1 39 15.0070000  0  9G30G23G 7G25G 6G 1G 5G 2G16
  11484312.52748   9031335.13447  23321094.7454   23321097.3834
     -4387.3304
   1231353.71845    959215.03645  26348754.1124   26348754.9654
     -1259.1484
  -1790298.51345  -1309499.25645  25939429.4264   25939434.3044
      1251.0814
   -166165.03047   1695807.92347  24063071.2004   24063074.6594
     -1722.3464
  -3702758.91848  -2784435.48447  22565714.2374   22565718.0254
     -1560.6134
  20953182.28843  17785263.48145  26736338.7164   26736347.1074
     -4894.4124
  34221276.35446  26774911.12645  26002861.5734   26002866.6094
     -5541.2104
  13151484.07046   5878395.43346  25420002.9654   25420004.6984
     -4585.3134
   -899990.08045   -610276.73645  26499154.9334   26499158.6424
      1466.5254
 06  5  8  1 39 30.0070000  0  9G30G23G 7G25G 6G21G 5G 2G16
  11550172.01048   9082654.20447  23333627.3944   23333629.8064
     -4393.9554
   1250317.30745    973991.86445  26352362.7784   26352364.0034
     -1269.3434
  -1809045.28845  -1324107.12345  25935862.0394   25935866.8784
      1248.4794
   -140259.70847   1715993.89047  24068000.8234   24068004.5404
     -1731.7014
  -3679291.70148  -2766149.33547  22570179.8954   22570183.5014
     -1568.3384
     -8650.87645                  26941933.3974
      1730.2284
  34304413.09045  26839692.98745  26018681.9714   26018688.0844
     -5543.7134
  13220320.76246   5932034.40846  25433102.1724   25433103.4324
     -4592.9094
   -921975.44945   -627408.18345  26494971.2794   26494973.7724
      1464.8534
 06  5  8  1 39 45.0070000  0  9G30G23G 7G25G 6G21G 5G 2G16
  11616130.86548   9134050.70447  23346178.9364   23346181.7654
     -4400.4714
   1269433.97045    988887.96945  26356000.5724   26356002.7184
     -1279.4404
  -1827752.91045  -1338684.48545  25932302.0964   25932307.0254
      1245.9674
   -114213.76047   1736289.43547  24072957.2054   24072960.6484
     -1741.0014
  -3655707.99847  -2747772.42247  22574667.7184   22574671.5434
     -1576.0384
    -34596.83845                  26936990.9434
      1729.3214
  34387587.57345  26904504.27145  26034509.5374   26034515.1344
     -5546.1284
  13289271.66346   5985762.38246  25446223.0964   25446225.0234
     -4600.4434
   -943935.62845   -644519.99945  26490792.4064   26490796.2634
      1463.2834
 06  5  8  1 40  0.0070000  0  9G30G23G 7G25G 6G21G 5G 2G16
  11682188.02848   9185523.80847  23358749.1784   23358751.8124
     -4407.1394
   1288702.78845   1003902.62245  26359667.3034   26359667.5194
     -1289.7224
  -1846422.40245  -1353232.14645  25928749.3924   25928753.9834
      1243.3084
    -88028.14747   1756693.80947  24077940.1654   24077943.7694
     -1750.4174
  -3632008.85847  -2729305.56247  22579177.5084   22579181.4724
     -1583.8534
    -60528.83545                  26932055.0134
      1728.2634
  34470798.55545  26969343.96145  26050344.0804   26050349.5754
     -5548.6654
  13358335.38746   6039578.25246  25459365.4704   25459366.6354
     -4608.0624
   -965871.48245   -661612.85545  26486618.1084   26486618.8994
      1461.4954
 06  5  8  1 40 15.0070000  0  9G30G23G 7G25G 6G21G 5G 2G16
  11748343.31148   9237073.36247  23371338.0824   23371341.1524
     -4413.5774
   1308123.84445   1019035.94445  26363362.9934   26363364.5434
     -1299.7634
  -1865053.37145  -1367749.74145  25925204.0164   25925208.6324
      1240.8204
    -61702.84047   1777207.03447  24082949.7004   24082953.3114
     -1759.6464
  -3608194.25347  -2710748.73147  22583709.2714   22583713.3764
     -1591.4424
    -86446.55445                  26927122.5344
      1727.4154
  34554045.93545  27034212.06845  26066185.5564   26066190.6474
     -5550.9824
  13427511.70146   6093481.86446  25472529.3104   25472531.3254
     -4615.4644
   -987782.69344   -678686.55145  26482448.5304   26482449.0594
      1459.9564
 06  5  8  1 40 30.0070000  0  9G30G23G 7G25G 6G21G 5G 2G16
  11814597.06548   9288699.65147  23383945.7324   23383948.8144
     -4420.1184
   1327697.83445   1034288.39845  26367087.7684   26367090.1264
     -1309.9624
  -1883645.27945  -1382236.93745  25921666.0304   25921670.4554
      1238.2424
    -35237.12947   1797829.66347  24087985.9484   24087989.0444
     -1768.9784
  -3584263.53447  -2692101.42047  22588263.1294   22588267.4544
     -1599.1854
   -112349.09844     -8071.25745  26922193.0924   26922194.4744
      1726.4034
  34637330.11446  27099108.82045  26082034.0274   26082038.4564
     -5553.4134
  13496800.89446   6147473.44646  25485714.6184   25485716.8264
     -4622.9664
  -1009668.56144   -695740.44645  26478283.7304   26478284.2824
      1458.2994
 06  5  8  1 40 45.0070000  0  9G30G23G 7G25G 6G21G 5G 2G16
  11880949.20848   9340402.60047  23396572.1164   23396575.4194
     -4426.7744
   1347424.78645   1049660.03845  26370841.6934   26370844.8524
     -1320.2584
  -1902197.82245  -1396693.44245  25918135.5724   25918140.6894
      1235.5054
     -8630.98047   1818561.73247  24093048.9234   24093052.2664
     -1778.4504
  -3560216.63047  -2673363.57547  22592839.0904   22592843.1484
     -1607.0234
   -138236.11144    -28242.90545  26917266.7104   26917268.3564
      1725.2464
  34720650.91546  27164034.10745  26097889.4734   26097894.0074
     -5555.9604
  13566202.65246   6201552.73246  25498921.3454   25498924.1074
     -4630.5704
  -1031528.90243   -712774.49145  26474123.7734   26474126.8154
      1456.4754
 06  5  8  1 41  0.0070000  0  9G30G23G 7G25G 6G21G 5G 2G16
  11947398.79247   9392181.48847  23409217.0404   23409220.5594
     -4433.2004
   1367304.20745   1065150.52445  26374624.6294   26374625.4634
     -1330.3524
  -1920711.40845  -1411119.64345  25914612.5404   25914617.1604
      1232.9474
     18115.09747   1839402.83247  24098138.5184   24098141.8334
     -1787.7124
  -3536054.33947  -2654535.81047  22597437.0194   22597441.2084
     -1614.6414
   -164107.95044    -48402.75945  26912343.2884   26912345.1774
      1724.2944
  34804007.52346  27228987.30245  26113751.7524   26113755.1124
     -5558.2724
  13635716.02946   6255718.99446  25512149.2954   25512151.4934
     -4637.9154
  -1053364.02344   -729788.84845  26469968.6114   26469973.3604
      1454.8414
 06  5  8  1 41 15.0070000  0  9G30G23G 7G25G 6G21G 5G 2G16
  12013945.32747   9444035.92447  23421880.4134   23421884.2544
     -4439.7054
   1387335.60545   1080759.43045  26378436.4654   26378437.0824
     -1340.5494
  -1939186.58645  -1425515.86245  25911096.8344   25911102.2274
      1230.3534
     45000.56547   1860352.54047  24103254.6474   24103257.7644
     -1797.0614
  -3511777.12247  -2635618.49747  22602056.8174   22602061.0284
     -1622.3654
   -189964.86145    -68550.98245  26907422.7634   26907424.2024
      1723.2524
  34887399.20646  27293967.85045  26129620.7094   26129624.3734
     -5560.6564
  13705340.15946   6309971.54846  25525398.3344   25525400.3084
     -4645.3204
  -1075174.35345   -746783.91645  26465818.2094   26465821.6494
      1453.1594
 06  5  8  1 41 30.0070000  0  9G30G23G 7G25G 6G21G 5G 2G16
  12080588.68147   9495965.79947  23434562.2154   23434565.9164
     -4446.1534
   1407519.27345   1096486.98445  26382277.2864   26382279.1784
     -1350.7104
  -1957623.08345  -1439881.94445  25907588.4754   25907593.7954
      1227.7484
     72025.51547   1881410.94147  24108397.3274   24108400.8264
     -1806.3644
  -3487384.94347  -2616611.59947  22606698.4994   22606702.5644
     -1630.0204
   -215806.41744    -88687.26845  26902505.1914   26902509.0104
      1722.2034
  34970825.89546  27358975.64145  26145496.3104   26145500.8104
     -5562.9904
  13775074.80946   6364310.22246  25538668.4174   25538671.0434
     -4652.7034
  -1096959.60545   -763759.46545  26461672.6214   26461676.0874
      1451.4684
 06  5  8  1 41 45.0070000  0  9G30G23G 7G25G 6G21G 5G 2G16
  12147328.80047   9547971.07747  23447262.4414   23447265.8114
     -4452.5724
   1427855.47345   1112333.38145  26386147.1514   26386149.1944
     -1360.8384
  -1976020.45745  -1454217.53345  25904087.5404   25904093.4354
      1225.1734
     99190.32747   1902578.32747  24113566.6354   24113570.3224
     -1815.6594
  -3462877.55848  -2597514.93347  22611362.0974   22611366.3044
     -1637.6704
   -241632.21544   -108811.24645  26897590.5774   26897594.1774
      1721.1914
  35054287.65446  27424010.75745  26161378.5934   26161382.9244
     -5565.2804
  13844919.88346   6418734.94746  25551959.4884   25551961.0474
     -4660.0224
  -1118719.37645   -780715.10845  26457531.9234   26457535.6394
      1449.7914
 06  5  8  1 42  0.0070000  0  9G30G23G 7G25G 6G21G 5G 2G16
  12214166.40548   9600052.33147  23459981.2254   23459984.5604
     -4459.0634
   1448345.11745   1128299.34345  26390046.2064   26390048.2774
     -1371.0814
  -1994377.59345  -1468521.76245  25900594.2704   25900598.6614
      1222.4974
    126495.90147   1923855.39447  24118762.7274   24118766.4054
     -1825.0304
  -3438254.04648  -2578327.78247  22616047.7984   22616051.5744
     -1645.4074
   -267441.04445   -128921.96745  26892679.2284   26892681.3834
      1720.0424
  35137785.20246  27489073.75945  26177267.6784   26177272.0254
     -5567.6684
  13914876.00046   6473246.19146  25565271.7044   25565273.9924
     -4667.4054
  -1140452.65345   -797650.13345  26453396.2714   26453398.4764
      1448.0284
 06  5  8  1 42 15.0070000  0  9G30G23G 7G25G 6G21G 5G 2G16
  12281100.82947   9652209.01647  23472718.4214   23472721.8954
     -4465.4954
   1468987.60945   1144384.43045  26393974.3684   26393976.4884
     -1381.2384
  -2012695.22445  -1482795.23945  25897108.5424   25897113.3964
      1219.8764
    153941.51247   1945241.59047  24123985.4644   24123989.1954
     -1834.3574
  -3413515.17048  -2559050.73647  22620755.4484   22620759.2564
     -1653.0784
   -293233.33844   -149019.82845  26887771.0494   26887775.1124
      1718.9464
  35221317.61346  27554163.95245  26193163.4394   26193167.5364
     -5569.9694
  13984942.11146   6527843.16546  25578604.8414   25578607.2954
     -4674.7224
  -1162159.79845   -814564.80545  26449265.5764   26449269.0214
      1446.2924
 06  5  8  1 42 30.0070000  0  9G30G23G 7G25G 6G21G 5G 2G16
  12348132.36247   9704441.36847  23485474.0954   23485477.5204
     -4472.0254
   1489783.84545   1160589.29445  26397931.7924   26397932.5614
     -1391.5604
  -2030972.33245  -1497037.13145  25893630.4984   25893636.1224
      1217.1084
    181527.96447   1966737.51747  24129235.0034   24129238.5204
     -1843.8144
  -3388660.19547  -2539683.22647  22625485.1994   22625489.0364
     -1660.8974
   -319007.93245   -169103.93945  26882866.2594   26882868.1914
      1717.6924
  35304885.48146  27619281.77445  26209065.9204   26209070.4714
     -5572.3954
  14055118.71746   6582526.20046  25591959.0034   25591960.8364
     -4682.1334
  -1183839.84845   -831458.31445  26445140.0594   26445144.1654
      1444.3974
 06  5  8  1 42 45.0070000  0  9G30G23G 7G25G 6G21G 5G 2G16
  12415259.51448   9756748.22047  23498247.9734   23498251.6694
     -4478.3194
   1510732.45345   1176912.90045  26401918.1554   26401919.5264
     -1401.6284
  -2049210.28445  -1511248.49045  25890159.9174   25890164.4744
      1214.5744
    209253.91047   1988342.15247  24134511.0924   24134514.2004
     -1853.0464
  -3363690.40648  -2520226.24447  22630236.8014   22630240.4864
     -1668.4484
   -344766.05844   -189175.19945  26877964.6014   26877966.6414
      1716.6704
  35388487.18346  27684425.93145  26224974.8204   26224979.5734
     -5574.5504
  14125403.92246   6637293.88646  25605333.8454   25605335.4434
     -4689.2904
  -1205494.08845   -848331.76245  26441019.4704   26441023.7744
      1442.7624
 06  5  8  1 43  0.0070000  0  9G30G23G 7G25G 6G21G 5G 2G16
  12482482.17848   9809129.50947  23511040.0234   23511043.3604
     -4484.7614
   1531833.32645   1193355.13245  26405933.5124   26405935.2734
     -1411.8824
  -2067409.08545  -1525429.34245  25886696.7744   25886702.4024
      1211.8714
    237119.24347   2010055.40247  24139813.6984   24139816.6814
     -1862.4184
  -3338606.24047  -2500680.13847  22635010.1564   22635014.0154
     -1676.1704
   -370507.57844   -209233.46945  26873066.0704   26873069.1164
      1715.4574
  35472122.36646  27749596.19845  26240890.0914   26240893.4674
     -5576.8634
  14195797.22546   6692145.79546  25618729.2444   25618730.9054
     -4696.5574
  -1227122.50045   -865185.06945  26436903.7764   26436907.4074
      1440.9574
 06  5  8  1 43 15.0070000  0  9G30G23G 7G25G 6G21G 5G 2G16
  12549800.53548   9861585.36547  23523850.2904   23523853.4904
     -4491.0724
   1553087.18945   1209916.56845  26409977.9934   26409978.3054
     -1422.0024
  -2085567.73745  -1539578.93745  25883241.3074   25883246.3804
      1209.2524
    265124.70947   2031877.84147  24145142.9634   24145145.9754
     -1871.6944
  -3313406.94747  -2481044.32747  22639805.4164   22639809.5704
     -1683.8044
   -396231.33044   -229277.97845  26868170.9454   26868175.8484
      1714.3374
  35555791.62246  27814793.00945  26256811.8354   26256814.4374
     -5579.0744
  14266299.01946   6747082.25046  25632145.3044   25632147.1994
     -4703.7144
  -1248724.21145   -882017.56445  26432793.1174   26432796.5924
      1439.2264
 06  5  8  1 43 30.0070000  0  9G30G23G 7G25G 6G21G 5G 2G16
  12617214.70248   9914115.87047  23536678.7984   23536682.1554
     -4497.5054
   1574494.16045   1226597.33845  26414051.6224   26414052.1734
     -1432.2794
  -2103686.12645  -1553697.16745  25879793.4954   25879798.6914
      1206.5054
    293270.35447   2053809.51347  24150498.9004   24150502.3644
     -1881.0874
  -3288092.31447  -2461318.63547  22644622.6214   22644626.6644
     -1691.5224
   -421937.16145   -249308.43345  26863279.2304   26863282.1104
      1713.0594
  35639494.73446  27880016.21045  26272740.0104   26272744.1564
     -5581.3654
  14336909.03846   6802103.02146  25645581.9454   25645584.3194
     -4710.9774
  -1270298.87645   -898828.98845  26428687.5664   26428691.8874
      1437.3654
 06  5  8  1 43 45.0070000  0  9G30G23G 7G25G 6G21G 5G 2G16
  12684724.61948   9966720.98547  23549525.5364   23549529.0614
     -4503.9274
   1596054.52145   1243397.61245  26418154.4384   26418155.3084
     -1442.5464
  -2121763.93445  -1567783.75445  25876353.3854   25876358.3224
      1203.7554
    321556.50647   2075850.67047  24155881.5664   24155885.0504
     -1890.4904
  -3262662.31648  -2441503.06047  22649461.7944   22649465.8434
     -1699.2514
   -447624.48145   -269324.52045  26858391.0684   26858394.4894
      1711.7854
  35723231.78446  27945265.84945  26288674.6504   26288679.1504
     -5583.6714
  14407627.31346   6857208.15546  25659039.2014   25659041.3544
     -4718.2394
  -1291846.20245   -915619.09245  26424587.1924   26424590.6724
      1435.5014
 06  5  8  1 44  0.0070000  0  9G30G23G 7G25G 6G21G 5G 2G16
  12752329.32248  10019399.96847  23562390.3034   23562393.5874
     -4510.1314
   1617767.48345   1260316.83045  26422286.2894   26422287.0494
     -1452.6124
  -2139801.87445  -1581839.28245  25872920.8594   25872925.0614
      1201.1804
    349982.27547   2098000.62447  24161290.8084   24161294.2024
     -1899.7194
  -3237117.66348  -2421598.13847  22654322.7814   22654326.6864
     -1706.7974
   -473293.90445   -289326.63845  26853506.3164   26853510.7484
      1710.6964
  35807001.69246  28010541.07745  26304615.5484   26304620.2194
     -5585.7584
  14478452.73246   6912396.78346  25672516.8574   25672519.0614
     -4725.2614
  -1313366.79945   -932388.38945  26420491.9044   26420492.4924
      1433.8074
 06  5  8  1 44 15.0070000  0  9G30G23G 7G25G 6G21G 5G 2G16
  12820030.76748  10072154.32647  23575273.4884   23575277.1094
     -4516.6354
   1639635.30845   1277356.70245  26426447.6224   26426448.4914
     -1463.0194
  -2157797.46145  -1595861.81045  25869496.4144   25869501.8334
      1198.2964
    378549.94947   2120261.14347  24166727.0474   24166730.4404
     -1909.2294
  -3211456.14548  -2401602.14747  22659206.0114   22659209.6484
     -1714.6254
   -498942.84445   -309312.78545  26848625.4464   26848629.7594
      1709.2614
  35890806.55445  28075843.56045  26320563.0804   26320566.7944
     -5588.1384
  14549387.02146   6967670.26246  25686015.2274   25686017.8794
     -4732.5524
  -1334858.22644   -949134.94145  26416402.1694   26416404.7904
      1431.7954
 06  5  8  1 44 30.0070000  0  9G30G23G 7G25G 6G21G 5G 2G16
  12887826.68948  10124982.30347  23588174.6444   23588178.2594
     -4522.8864
   1661656.04545   1294515.73945  26430638.0024   26430639.3994
     -1473.1604
  -2175752.62745  -1609852.83145  25866079.6934   25866084.0874
      1195.6314
    407257.41047   2142630.58947  24172189.9004   24172193.1414
     -1918.5094
  -3185680.27148  -2381517.04147  22664110.9944   22664114.6434
     -1722.2554
   -524573.18345   -329284.43845  26843748.1124   26843752.8724
      1708.0494
  35974644.09845  28141171.51445  26336516.8234   26336522.1594
     -5590.2694
  14620427.82346   7023026.72146  25699533.8534   25699537.3404
     -4739.6104
  -1356322.42344   -965860.26345  26412317.6184   26412321.5284
      1430.0284
 06  5  8  1 44 45.0070000  0  9G30G23G 7G25G 6G21G 5G 2G16
  12955716.73548  10177883.63347  23601093.7124   23601096.8744
     -4529.1864
   1683829.57845   1311793.81945  26434857.4774   26434859.0774
     -1483.3864
  -2193667.59145  -1623812.53145  25862670.5894   25862674.7564
      1192.9224
    436104.49847   2165108.84147  24177679.3264   24177682.5804
     -1927.8504
  -3159789.77248  -2361342.62747  22669037.7814   22669041.5374
     -1729.9154
   -550184.91045   -349241.61345  26838874.3184   26838878.9114
      1706.7634
  36058513.86745  28206524.54745  26352476.7144   26352481.3484
     -5592.4444
  14691574.54146   7078465.69846  25713072.6364   25713075.3134
     -4746.6844
  -1377759.47144   -982564.47245  26408238.2244   26408241.5104
      1428.1624
 06  5  8  1 45  0.0070000  0  9G30G23G 7G25G 6G21G 5G 2G16
  13023701.65548  10230858.88647  23614030.8224   23614033.9364
     -4535.4364
   1706156.98945   1329191.83645  26439106.2364   26439107.4124
     -1493.5634
  -2211541.04845  -1637739.88145  25859269.3644   25859273.4074
      1190.2374
    465092.30047   2187696.74247  24183195.5224   24183198.5354
     -1937.1494
  -3133783.82348  -2341078.25547  22673986.5424   22673990.1954
     -1737.5144
   -575776.29145   -369182.95145  26834004.4164   26834007.6584
      1705.4784
  36142416.77445  28271903.43645  26368442.9064   26368446.7274
     -5594.5704
  14762827.95946   7133987.83646  25726631.7194   25726634.2674
     -4753.7164
  -1399167.96445   -999246.39245  26404164.3304   26404165.5744
      1426.3414
 06  5  8  1 45 15.0080000  0  9G30G23G 7G25G 6G21G 5G 2G16
  13091785.39648  10283911.14447  23626986.7414   23626989.8804
     -4541.7134
   1728639.03145   1346710.31345  26443384.4364   26443385.5294
     -1503.7704
  -2229374.85145  -1651636.32845  25855875.7104   25855878.7364
      1187.5084
    494222.11847   2210395.30547  24188738.7394   24188741.6904
     -1946.4914
  -3107661.48948  -2320723.19847  22678957.4634   22678961.1264
     -1745.1684
   -601349.76645   -389110.29845  26829137.9004   26829142.8224
      1704.1694
  36226357.47846  28337311.75645  26384416.2954   26384420.8524
     -5596.7054
  14834191.75946   7189595.97946  25740211.8024   25740214.1224
     -4760.7404
  -1420549.88245  -1015907.65545  26400095.5204   26400097.3404
      1424.4594
 06  5  8  1 45 30.0080000  0  9G30G23G 7G25G 6G21G 5G 2G16
  13159958.34048  10337032.90447  23639959.6334   23639962.6214
     -4547.9784
   1751272.79845   1364347.00745  26447691.5124   26447691.4004
     -1514.0144
  -2247166.42945  -1665499.88245  25852490.0494   25852493.0794
      1184.7484
    523489.96547   2233201.40847  24194308.2364   24194311.3514
     -1955.8454
  -3081426.19647  -2300280.11547  22683949.8814   22683953.6324
     -1752.8214
   -626901.84145   -409020.99645  26824275.4794   26824279.1894
      1702.8114
  36310324.53945  28402740.61045  26400394.6904   26400399.1434
     -5598.8694
  14905656.00846   7245282.38046  25753811.0074   25753813.6444
     -4767.7624
  -1441902.33545  -1032545.95845  26396032.3044   26396033.1964
      1422.5684
